[[{"header":{"parameterUnit":"m.s-1","parameterCategory":1,"la1":30.6,"la2":29.2853,"lo1":-89.7004,"lo2":-87.6739,"dy":0.0162,"dx":0.0183,"nx":112,"ny":82,"refTime":"2026-05-02T12:00:00:Z","depth":0,"parameterNumber":2,"parameterNumberName":"U-component_of_WINDS"},"data":[0.0,0.0,0.0,0.0,0.0,0.0,0.0,0.0,0.0,0.0,0.0,0.0,0.0,0.0,0.0,0.0,0.0,0.0,0.0,0.0,0.0,0.0,0.0,0.0,0.0,0.0,0.0,0.0,0.0,0.0,0.0,0.0,0.0,0.0,0.0,0.0,0.0,0.0,0.0,0.0,0.0,0.0,0.0,0.0,0.0,0.0,0.0,0.0,0.0,0.0,0.0,0.0,0.0,0.0,0.0,0.0,0.0,0.0,0.0,0.0,0.0,0.0,0.0,0.0,0.0,0.0,0.0,0.0,0.0,0.0,0.0,0.0,0.0,0.0,0.0,0.0,0.0,0.0,0.0,0.0,0.0,0.0,0.0,0.0,0.0,0.0,0.0,0.0,0.0,0.0,-2.6807,-2.9399,-3.3233,-3.5382,-3.4941,-3.4774,-3.4099,-3.2659,0.0,0.0,0.0,0.0,0.0,0.0,0.0,0.0,0.0,0.0,0.0,0.0,0.0,0.0,0.0,0.0,0.0,0.0,0.0,0.0,0.0,0.0,0.0,0.0,0.0,0.0,0.0,0.0,0.0,0.0,0.0,0.0,0.0,0.0,0.0,0.0,0.0,0.0,0.0,0.0,0.0,0.0,0.0,0.0,0.0,0.0,0.0,0.0,0.0,0.0,0.0,0.0,0.0,0.0,0.0,0.0,0.0,0.0,0.0,0.0,0.0,0.0,0.0,0.0,0.0,0.0,0.0,0.0,0.0,0.0,0.0,0.0,0.0,0.0,0.0,0.0,0.0,0.0,0.0,0.0,0.0,0.0,0.0,0.0,0.0,0.0,0.0,0.0,0.0,0.0,0.0,0.0,0.0,0.0,0.0,0.0,0.0,0.0,0.0,0.0,0.0,0.0,0.0,0.0,-2.8428,-3.2646,-3.5295,-3.6865,-3.7009,-3.7397,-3.6885,-3.5082,0.0,0.0,0.0,0.0,0.0,0.0,0.0,0.0,0.0,0.0,0.0,0.0,0.0,0.0,0.0,0.0,0.0,0.0,0.0,0.0,0.0,0.0,0.0,0.0,0.0,0.0,0.0,0.0,0.0,0.0,0.0,0.0,0.0,0.0,0.0,0.0,0.0,0.0,0.0,0.0,0.0,0.0,0.0,0.0,0.0,0.0,0.0,0.0,0.0,0.0,0.0,0.0,0.0,0.0,0.0,0.0,0.0,0.0,0.0,0.0,0.0,0.0,0.0,0.0,0.0,0.0,0.0,0.0,0.0,0.0,0.0,0.0,0.0,0.0,0.0,0.0,0.0,0.0,0.0,0.0,0.0,0.0,0.0,0.0,0.0,0.0,0.0,0.0,0.0,0.0,0.0,0.0,0.0,0.0,0.0,0.0,0.0,0.0,0.0,0.0,0.0,0.0,0.0,-2.8198,-3.0736,-3.3945,-3.6121,-3.7696,-3.805,-3.8268,-3.7864,-3.6435,-3.3521,0.0,0.0,0.0,0.0,0.0,0.0,0.0,0.0,0.0,0.0,0.0,0.0,0.0,0.0,0.0,0.0,0.0,0.0,0.0,0.0,0.0,0.0,0.0,0.0,0.0,0.0,0.0,0.0,0.0,0.0,0.0,0.0,0.0,0.0,0.0,0.0,0.0,0.0,0.0,0.0,0.0,0.0,0.0,0.0,0.0,0.0,0.0,0.0,0.0,0.0,0.0,0.0,0.0,0.0,0.0,0.0,0.0,0.0,0.0,0.0,0.0,0.0,0.0,0.0,0.0,0.0,0.0,0.0,0.0,0.0,0.0,0.0,0.0,0.0,0.0,0.0,0.0,0.0,0.0,0.0,0.0,0.0,0.0,0.0,0.0,0.0,0.0,0.0,0.0,0.0,0.0,0.0,0.0,0.0,0.0,0.0,0.0,0.0,0.0,0.0,0.0,0.0,-3.0568,-3.2629,-3.484,-3.6733,-3.8005,-3.8683,-3.8625,-3.8282,-3.708,-3.4701,0.0,0.0,0.0,0.0,0.0,0.0,0.0,0.0,0.0,0.0,0.0,0.0,0.0,0.0,0.0,0.0,0.0,0.0,0.0,0.0,0.0,0.0,0.0,0.0,0.0,0.0,0.0,0.0,0.0,0.0,0.0,0.0,0.0,0.0,0.0,0.0,0.0,0.0,0.0,0.0,0.0,0.0,0.0,0.0,0.0,0.0,0.0,0.0,0.0,0.0,0.0,0.0,0.0,0.0,0.0,0.0,0.0,0.0,0.0,0.0,0.0,0.0,0.0,0.0,0.0,0.0,0.0,0.0,0.0,0.0,0.0,0.0,0.0,0.0,0.0,0.0,0.0,0.0,0.0,0.0,0.0,0.0,0.0,0.0,0.0,0.0,0.0,0.0,0.0,0.0,0.0,0.0,0.0,0.0,0.0,0.0,0.0,0.0,0.0,0.0,0.0,0.0,-3.1037,-3.3145,-3.5552,-3.7057,-3.8147,-3.8793,-3.9336,-3.8671,-3.6833,-3.4963,0.0,0.0,0.0,0.0,0.0,0.0,0.0,0.0,0.0,0.0,0.0,0.0,0.0,0.0,0.0,0.0,0.0,0.0,0.0,0.0,0.0,0.0,0.0,0.0,0.0,0.0,0.0,0.0,0.0,0.0,0.0,0.0,0.0,0.0,0.0,0.0,0.0,0.0,0.0,0.0,0.0,0.0,0.0,0.0,0.0,0.0,0.0,0.0,0.0,0.0,0.0,0.0,0.0,0.0,0.0,0.0,0.0,0.0,0.0,0.0,0.0,0.0,0.0,0.0,0.0,0.0,0.0,0.0,0.0,0.0,0.0,0.0,0.0,0.0,0.0,0.0,0.0,0.0,0.0,0.0,0.0,0.0,0.0,0.0,0.0,0.0,0.0,0.0,0.0,0.0,0.0,0.0,0.0,0.0,0.0,0.0,0.0,0.0,0.0,0.0,0.0,0.0,-3.2754,-3.5065,-3.6741,-3.8003,-3.8851,-3.9353,-3.9328,-3.8682,-3.7371,0.0,0.0,0.0,0.0,0.0,0.0,0.0,0.0,0.0,0.0,0.0,0.0,0.0,0.0,0.0,0.0,0.0,0.0,0.0,0.0,0.0,0.0,0.0,0.0,0.0,0.0,0.0,0.0,0.0,0.0,0.0,0.0,0.0,0.0,0.0,0.0,0.0,0.0,0.0,0.0,0.0,0.0,0.0,0.0,0.0,0.0,0.0,0.0,0.0,0.0,0.0,0.0,0.0,0.0,0.0,0.0,0.0,0.0,0.0,0.0,0.0,0.0,0.0,0.0,0.0,0.0,0.0,0.0,0.0,0.0,0.0,0.0,0.0,0.0,0.0,0.0,0.0,0.0,0.0,0.0,0.0,0.0,0.0,0.0,0.0,0.0,0.0,0.0,0.0,0.0,0.0,0.0,0.0,0.0,0.0,0.0,0.0,0.0,0.0,0.0,0.0,0.0,-3.1597,-3.4718,-3.7069,-3.8438,-3.9234,-3.9801,-3.9903,-3.9391,-3.8526,-3.7345,0.0,0.0,0.0,0.0,0.0,0.0,0.0,0.0,0.0,0.0,0.0,0.0,0.0,0.0,0.0,0.0,0.0,0.0,0.0,0.0,0.0,0.0,0.0,0.0,0.0,0.0,0.0,0.0,0.0,0.0,0.0,0.0,0.0,0.0,0.0,0.0,0.0,0.0,0.0,0.0,0.0,0.0,0.0,0.0,0.0,0.0,0.0,0.0,0.0,0.0,0.0,0.0,0.0,0.0,0.0,0.0,0.0,0.0,0.0,0.0,0.0,0.0,0.0,0.0,0.0,0.0,0.0,0.0,0.0,0.0,0.0,0.0,0.0,0.0,0.0,0.0,0.0,0.0,0.0,0.0,0.0,0.0,0.0,0.0,0.0,0.0,0.0,0.0,0.0,0.0,0.0,0.0,0.0,0.0,0.0,0.0,0.0,0.0,0.0,0.0,0.0,0.0,-3.3331,-3.6881,-3.9431,-4.0746,-4.0836,-4.0691,-4.0424,-3.9548,-3.823,0.0,0.0,0.0,0.0,0.0,0.0,0.0,0.0,0.0,0.0,0.0,0.0,0.0,0.0,0.0,0.0,0.0,0.0,0.0,0.0,0.0,0.0,0.0,0.0,0.0,0.0,0.0,0.0,0.0,0.0,0.0,0.0,0.0,0.0,0.0,0.0,0.0,0.0,0.0,0.0,0.0,0.0,0.0,0.0,0.0,0.0,0.0,0.0,0.0,0.0,0.0,0.0,0.0,0.0,0.0,0.0,0.0,0.0,0.0,0.0,0.0,0.0,0.0,0.0,0.0,0.0,0.0,0.0,0.0,0.0,0.0,0.0,0.0,0.0,0.0,0.0,0.0,0.0,0.0,0.0,0.0,0.0,0.0,0.0,0.0,0.0,0.0,0.0,0.0,0.0,0.0,0.0,0.0,0.0,0.0,0.0,0.0,0.0,0.0,0.0,0.0,0.0,0.0,-3.3839,-3.8195,-4.1118,-4.1858,-4.2159,-4.2112,-4.1875,-4.0927,-3.9425,-3.7327,0.0,0.0,0.0,0.0,0.0,0.0,0.0,0.0,0.0,0.0,0.0,0.0,0.0,0.0,0.0,0.0,0.0,0.0,0.0,0.0,0.0,0.0,0.0,0.0,0.0,0.0,0.0,0.0,0.0,0.0,0.0,0.0,0.0,0.0,0.0,0.0,0.0,0.0,0.0,0.0,0.0,0.0,0.0,0.0,0.0,0.0,0.0,0.0,0.0,0.0,0.0,0.0,0.0,0.0,0.0,0.0,0.0,0.0,0.0,0.0,0.0,0.0,0.0,0.0,0.0,0.0,0.0,0.0,0.0,0.0,0.0,0.0,0.0,0.0,0.0,0.0,0.0,0.0,0.0,0.0,0.0,0.0,0.0,0.0,0.0,0.0,0.0,0.0,0.0,0.0,0.0,0.0,0.0,0.0,0.0,0.0,0.0,0.0,0.0,0.0,0.0,0.0,-3.488,-3.9721,-4.2919,-4.3398,-4.3835,-4.3738,-4.2893,-4.217,-4.0532,-3.7954,0.0,0.0,0.0,0.0,0.0,0.0,0.0,0.0,0.0,0.0,0.0,0.0,0.0,0.0,0.0,0.0,0.0,0.0,0.0,0.0,0.0,0.0,0.0,0.0,0.0,0.0,0.0,0.0,0.0,0.0,0.0,0.0,0.0,0.0,0.0,0.0,0.0,0.0,0.0,0.0,0.0,0.0,0.0,0.0,0.0,0.0,0.0,0.0,0.0,0.0,0.0,0.0,0.0,0.0,0.0,0.0,0.0,0.0,0.0,0.0,0.0,0.0,0.0,0.0,0.0,0.0,0.0,0.0,0.0,0.0,0.0,0.0,0.0,0.0,0.0,0.0,0.0,0.0,0.0,0.0,0.0,0.0,0.0,0.0,0.0,0.0,0.0,0.0,0.0,0.0,0.0,0.0,0.0,0.0,0.0,0.0,0.0,0.0,0.0,0.0,0.0,0.0,-3.6004,-4.1042,-4.4422,-4.4877,-4.5312,-4.5022,-4.3718,-4.3159,-4.1524,-3.8378,0.0,0.0,0.0,0.0,0.0,0.0,0.0,0.0,0.0,0.0,0.0,0.0,0.0,0.0,0.0,0.0,0.0,0.0,0.0,0.0,0.0,0.0,0.0,0.0,0.0,0.0,0.0,0.0,0.0,0.0,0.0,0.0,0.0,0.0,0.0,0.0,0.0,0.0,0.0,0.0,0.0,0.0,0.0,0.0,0.0,0.0,0.0,0.0,0.0,0.0,0.0,0.0,0.0,0.0,0.0,0.0,0.0,0.0,0.0,0.0,-1.1105,-1.141,0.0,0.0,0.0,0.0,0.0,0.0,0.0,0.0,0.0,0.0,0.0,0.0,0.0,0.0,0.0,0.0,0.0,0.0,0.0,0.0,0.0,0.0,0.0,0.0,0.0,0.0,0.0,0.0,0.0,0.0,0.0,0.0,0.0,0.0,0.0,0.0,0.0,0.0,0.0,0.0,-3.5896,-4.0747,-4.3946,-4.4401,-4.4546,-4.4319,-4.3677,-4.287,-4.1193,-3.8357,-3.5832,0.0,0.0,0.0,0.0,0.0,0.0,0.0,0.0,0.0,0.0,0.0,0.0,0.0,0.0,0.0,0.0,0.0,0.0,0.0,0.0,0.0,0.0,0.0,0.0,0.0,0.0,0.0,0.0,0.0,0.0,0.0,0.0,0.0,0.0,0.0,0.0,0.0,0.0,0.0,0.0,0.0,0.0,0.0,0.0,0.0,0.0,0.0,0.0,0.0,0.0,0.0,0.0,0.0,0.0,0.0,0.0,0.0,0.0,0.0,-1.2268,-1.2278,0.0,0.0,0.0,0.0,0.0,0.0,0.0,0.0,0.0,0.0,0.0,0.0,0.0,0.0,0.0,0.0,0.0,0.0,0.0,0.0,0.0,0.0,0.0,0.0,0.0,0.0,0.0,0.0,0.0,0.0,0.0,0.0,0.0,0.0,0.0,0.0,0.0,0.0,0.0,0.0,-3.5588,-4.0282,-4.3449,-4.3925,-4.4174,-4.3946,-4.3035,-4.2538,-4.1089,-3.8357,-3.6225,0.0,0.0,0.0,0.0,0.0,0.0,0.0,0.0,0.0,0.0,0.0,0.0,0.0,0.0,0.0,0.0,0.0,0.0,0.0,0.0,0.0,0.0,0.0,0.0,0.0,0.0,0.0,0.0,0.0,0.0,0.0,0.0,0.0,0.0,0.0,0.0,0.0,0.0,0.0,0.0,0.0,0.0,0.0,0.0,0.0,0.0,0.0,0.0,0.0,0.0,0.0,0.0,0.0,-1.0633,-1.1626,-1.2496,-1.3267,-1.3816,-1.3946,-1.342,-1.3274,-1.346,-1.3882,0.0,0.0,0.0,0.0,0.0,0.0,0.0,0.0,0.0,0.0,0.0,0.0,0.0,0.0,0.0,0.0,0.0,0.0,0.0,0.0,0.0,0.0,-2.6852,-2.7055,-2.6712,-2.607,-2.4683,0.0,0.0,0.0,0.0,0.0,0.0,0.0,0.0,0.0,0.0,0.0,-3.5412,-4.0002,-4.2973,-4.3449,-4.3822,-4.3573,-4.2352,-4.2186,-4.1048,-3.846,-3.6639,-3.4879,0.0,0.0,0.0,0.0,0.0,0.0,0.0,0.0,0.0,0.0,0.0,0.0,0.0,0.0,0.0,0.0,0.0,0.0,0.0,0.0,0.0,0.0,0.0,0.0,0.0,0.0,0.0,0.0,0.0,0.0,0.0,0.0,-0.2947,-0.1692,0.0,0.0,0.0,0.0,0.0,0.0,0.0,0.0,0.0,0.0,0.0,0.0,0.0,-0.6156,-0.7699,-0.9131,-1.0321,-1.1484,-1.2216,-1.297,-1.3625,-1.4109,-1.451,-1.4991,-1.5054,0.0,-1.4197,-1.467,0.0,0.0,0.0,0.0,0.0,0.0,0.0,0.0,0.0,0.0,0.0,0.0,0.0,0.0,0.0,0.0,0.0,0.0,0.0,0.0,0.0,0.0,-2.8256,-2.8996,-2.8716,-2.8444,-2.8773,-2.7416,-2.5835,-2.4984,-2.4196,-2.3387,0.0,0.0,0.0,0.0,0.0,0.0,-3.6162,-4.0024,-4.2518,-4.2973,-4.3056,-4.287,-4.2311,-4.1897,-4.082,-3.8874,-3.7425,-3.5976,-3.4548,-3.2313,0.0,0.0,0.0,0.0,0.0,0.0,0.0,0.0,0.0,0.0,0.0,0.0,0.0,0.0,0.0,0.0,0.0,0.0,0.0,0.0,0.0,0.0,0.0,0.0,0.0,0.0,0.0,0.0,0.0,-0.5689,-0.6738,-0.4003,-0.3337,-0.299,0.0,0.0,0.0,0.0,0.0,0.0,0.0,0.0,0.0,-0.5023,-0.6237,-0.7713,-0.9402,-1.1639,-1.3166,-1.3722,-1.4609,-1.5108,-1.5546,-1.579,-1.6116,-1.6188,-1.6438,-1.6077,-1.5671,-1.5585,-1.5163,-1.4732,0.0,0.0,0.0,0.0,-1.5722,-1.6147,-1.6563,-1.6805,-1.7067,-1.7301,0.0,0.0,0.0,0.0,0.0,0.0,0.0,-2.6164,-2.7408,-2.8512,-2.9375,-3.0017,-3.003,-3.0084,-3.0373,-2.9446,-2.8239,-2.6823,-2.5549,-2.4658,-2.4498,-2.3988,0.0,0.0,0.0,-3.4073,-3.6984,-4.0064,-4.2042,-4.2497,-4.2538,-4.2352,-4.1897,-4.169,-4.1007,-3.9702,-3.8564,-3.7446,-3.6349,-3.4113,-3.2561,0.0,0.0,0.0,0.0,0.0,0.0,0.0,0.0,0.0,0.0,0.0,0.0,0.0,0.0,0.0,0.0,0.0,0.0,0.0,0.0,0.0,0.0,0.0,0.0,0.0,0.0,0.0,0.0,-0.7149,-0.8552,-0.5614,-0.5148,-0.4664,0.0,0.0,0.0,0.0,0.0,0.0,-0.4687,-0.502,-0.5464,-0.6434,-0.7769,-0.9226,-1.106,-1.3749,-1.5247,-1.542,-1.6245,-1.6722,-1.686,-1.7031,-1.7112,-1.7112,-1.7112,-1.7039,-1.6868,-1.6243,-1.5764,-1.5556,-1.542,-1.5624,-1.6033,-1.65,-1.7042,-1.7613,-1.792,-1.8229,-1.8409,-1.8664,-1.8886,-1.8988,-1.9369,0.0,0.0,0.0,0.0,-2.71,-2.8218,-2.9227,-3.0241,-3.0891,-3.125,-3.1417,-3.1168,-3.0662,-2.985,-2.8563,-2.7057,-2.6215,-2.6577,-2.6485,0.0,-2.9923,-3.263,-3.534,-3.7753,-4.0144,-4.169,-4.2042,-4.1979,-4.1772,-4.1421,-4.1172,-4.0717,-3.993,-3.9123,-3.8316,-3.7529,-3.5625,-3.4176,-3.3265,0.0,0.0,0.0,0.0,0.0,0.0,0.0,0.0,0.0,0.0,0.0,0.0,0.0,0.0,0.0,0.0,0.0,0.0,0.0,0.0,0.0,0.0,0.0,0.0,0.0,0.0,0.0,0.0,0.0,-0.5632,-0.5639,0.0,0.0,0.0,0.0,-0.4164,-0.4972,-0.5701,-0.6134,-0.6661,-0.743,-0.8416,-0.9183,-1.0716,-1.2895,-1.4519,-1.5609,-1.6284,-1.6657,-1.6844,-1.686,-1.7031,-1.7112,-1.7112,-1.7112,-1.7104,-1.7071,-1.6698,-1.6659,-1.663,-1.6436,-1.7012,-1.7663,-1.7645,-1.8346,-1.9203,-1.9212,-1.9599,-2.0072,-1.9892,-2.0296,-2.1243,-2.2579,-2.3578,0.0,0.0,-2.7216,-2.8095,-2.9546,-3.0226,-3.0746,-3.1872,-3.2258,-3.2232,-3.1873,-3.1008,-3.019,-2.9841,-2.9175,-2.896,-2.9622,0.0,-3.0185,-3.2604,-3.4576,-3.6436,-3.8126,-4.0165,-4.1565,-4.1607,-4.1214,-4.0944,-4.0924,-4.0137,-3.9433,-3.8957,-3.8481,-3.8005,-3.7508,-3.6535,-3.5583,-3.4672,-3.3244,0.0,0.0,0.0,0.0,0.0,0.0,0.0,0.0,0.0,0.0,0.0,0.0,0.0,0.0,0.0,0.0,0.0,0.0,0.0,0.0,0.0,0.0,0.0,0.0,0.0,0.0,0.0,0.0,-0.7389,-0.7547,0.0,-0.6165,-0.4701,-0.4341,-0.513,-0.6189,-0.7085,-0.7742,-0.892,-0.9767,-1.0208,-1.1278,-1.2501,-1.3873,-1.5539,-1.6422,-1.6657,-1.6901,-1.7015,-1.7023,-1.708,-1.7112,-1.7112,-1.7112,-1.7288,-1.7455,-1.7505,-1.7228,-1.7204,-1.7522,-1.7937,-1.8293,-1.8588,-1.9109,-1.9713,-1.9845,-2.0305,-2.1087,-2.1946,-2.2675,-2.3631,-2.4836,-2.583,-2.6725,-2.7537,-2.8555,-2.9487,-3.0196,-3.0907,-3.1888,-3.2391,-3.2796,-3.2933,-3.2396,-3.1715,-3.1437,-3.1647,-3.086,-3.0668,-3.1783,-3.2805,-3.3843,-3.5131,-3.674,-3.813,-3.8911,-4.0224,-4.1007,-4.0717,-4.0551,-4.0344,-4.0034,-3.9723,-3.9475,-3.9309,-3.8874,-3.8543,-3.8378,-3.7488,-3.6577,-3.5645,-3.43,-3.2706,0.0,0.0,0.0,0.0,0.0,0.0,0.0,0.0,0.0,0.0,0.0,0.0,0.0,0.0,0.0,0.0,0.0,0.0,0.0,0.0,0.0,0.0,0.0,0.0,0.0,0.0,-0.9929,-0.894,-0.9143,-0.8927,-0.7636,-0.611,-0.559,-0.6379,-0.7404,-0.837,-0.9324,-1.0739,-1.1647,-1.2112,-1.2992,-1.3888,-1.4961,-1.6215,-1.6885,-1.6942,-1.7055,-1.7112,-1.7112,-1.7112,-1.7112,-1.7112,-1.7288,-1.7463,-1.7822,-1.8164,-1.8192,-1.7939,-1.8497,-1.8827,-1.908,-1.939,-1.9873,-2.0261,-2.0817,-2.1472,-2.2378,-2.4017,-2.5104,-2.6133,-2.7126,-2.8015,-2.8905,-2.9239,-3.0026,-3.0746,-3.1118,-3.1833,-3.2538,-3.2936,-3.3312,-3.3286,-3.2571,-3.2237,-3.2184,-3.2827,-3.2441,-3.2473,-3.3771,-3.5085,-3.6216,-3.6789,-3.7831,-3.8792,-3.9247,-3.9972,-4.0303,-3.9992,-3.9847,-3.964,-3.933,-3.9019,-3.8854,-3.8854,-3.8419,-3.8171,-3.8171,-3.7591,-3.6908,-3.6121,-3.4465,-3.2841,-3.1013,0.0,0.0,0.0,0.0,0.0,0.0,0.0,0.0,0.0,0.0,0.0,0.0,0.0,0.0,0.0,0.0,0.0,0.0,0.0,0.0,0.0,0.0,0.0,-0.7378,-0.8559,-0.9636,-1.004,-1.0327,-1.0084,-0.9019,-0.7833,-0.7268,-0.7999,-0.8569,-0.9603,-1.0808,-1.198,-1.3083,-1.4052,-1.4216,-1.4961,-1.6152,-1.6687,-1.6942,-1.7112,-1.7112,-1.7112,-1.7112,-1.7112,-1.7112,-1.7112,-1.7647,-1.7822,-1.7998,-1.8864,-1.9204,-1.9204,-1.9204,-1.9674,-2.0214,-2.0223,-2.0488,-2.1058,-2.2362,-2.3195,-2.407,-2.6056,-2.7635,-2.8893,-2.9759,-3.0394,-3.0984,-3.1316,-3.1482,-3.1813,-3.2654,-3.2819,-3.2983,-3.3296,-3.346,-3.327,-3.2555,-3.2396,-3.2662,-3.3635,-3.3909,-3.427,-3.5323,-3.6446,-3.7254,-3.7616,-3.7904,0.0,-3.8792,-3.9247,-3.9537,-3.9516,-3.9102,-3.8833,-3.8812,-3.7984,-3.7467,-3.7467,-3.7032,-3.6784,-3.6804,-3.6784,-3.6577,-3.6121,-3.3906,-3.1989,-3.0454,0.0,0.0,0.0,0.0,0.0,0.0,0.0,0.0,0.0,0.0,0.0,0.0,0.0,0.0,0.0,0.0,0.0,0.0,0.0,0.0,0.0,0.0,-0.9099,-0.8884,-0.9958,-1.1001,-1.1186,-1.1431,-1.1315,-1.05,-0.9704,-0.9198,-0.9454,-1.0188,-1.1011,-1.2018,-1.3809,-1.5021,-1.5234,-1.5856,-1.6231,-1.6679,-1.68,-1.7063,-1.7112,-1.7112,-1.7112,-1.7112,-1.7112,-1.7288,-1.7647,-1.7822,-1.8173,-1.8864,-1.903,-1.9388,-1.9746,-1.9746,-1.9949,-2.056,-2.1215,-2.2141,-2.3268,-2.443,-2.5207,-2.6032,-2.7448,-2.8711,-2.9731,-3.0028,-3.0738,-3.1316,-3.1482,-3.1978,-3.2489,-3.2819,-3.2983,-3.3249,-3.3158,-3.3095,-3.3065,-3.2521,-3.2673,-3.3304,-3.4493,-3.5319,-3.6149,-3.6605,-3.7848,-3.8664,-3.814,-3.8326,-3.8709,-3.8833,-3.9247,-3.9413,-3.9081,-3.8626,-3.8233,-3.7902,-3.7322,-3.6991,-3.6991,-3.6556,-3.6453,-3.6784,-3.6473,-3.6246,-3.6121,-3.4768,-3.3413,0.0,0.0,0.0,0.0,0.0,0.0,0.0,0.0,0.0,0.0,0.0,0.0,0.0,0.0,0.0,0.0,0.0,0.0,0.0,0.0,0.0,0.0,-0.8986,-1.0293,-1.0417,-1.1074,-1.1545,-1.1687,-1.1972,-1.2032,-1.1327,-1.091,-1.0716,-1.0722,-1.1344,-1.2188,-1.3173,-1.4795,-1.5845,-1.6084,-1.6534,-1.6885,-1.6958,-1.7063,-1.7112,-1.7112,-1.7112,-1.7112,-1.7112,-1.7112,-1.7288,-1.7822,-1.7998,-1.8514,-1.9204,-1.9388,-1.9737,-2.0095,0.0,0.0,0.0,0.0,-2.3895,-2.5037,-2.6127,-2.6912,-2.7813,-2.8884,-2.9852,-3.0594,-3.0927,-3.1268,-3.1647,-3.1978,-3.2489,-3.2788,-3.2811,-3.3091,-3.3174,-3.2809,-3.273,-3.273,-3.2813,-3.3133,-3.3941,-3.5228,-3.6439,0.0,-3.7626,-3.8523,-3.8999,-3.8295,-3.8398,-3.8564,-3.8564,-3.8812,-3.8874,-3.8605,-3.8336,-3.8088,-3.7819,-3.7177,0.0,0.0,0.0,-3.6039,-3.6494,-3.6246,0.0,0.0,0.0,0.0,0.0,0.0,0.0,0.0,-3.1696,-3.2663,0.0,0.0,0.0,0.0,0.0,0.0,0.0,0.0,0.0,0.0,0.0,0.0,0.0,0.0,0.0,0.0,-0.9977,-1.1307,-1.1579,-1.1667,-1.1742,-1.187,-1.2135,-1.2219,-1.205,-1.1723,-1.1653,-1.1671,-1.2391,-1.32,-1.4016,0.0,0.0,0.0,0.0,-1.6958,-1.7112,-1.7112,-1.7112,-1.7112,-1.7112,-1.7112,-1.7112,-1.7112,-1.7463,-1.7822,-1.8339,-1.8864,-1.9379,-1.9737,-2.0269,-2.0781,-2.0434,-2.1084,-2.2339,-2.4129,-2.5454,-2.6521,-2.7422,0.0,0.0,-3.0177,-3.0852,-3.1469,-3.1777,-3.1721,-3.1813,-3.2654,-3.2819,-3.2905,-3.3047,-3.2952,-3.2857,-3.2444,-3.2507,-3.2569,-3.3166,-3.3975,-3.4942,-3.6125,-3.7276,-3.796,-3.8467,-3.8595,-3.8688,-3.8253,-3.8191,-3.8191,-3.8191,-3.8191,-3.8191,-3.8191,-3.815,0.0,-3.8109,-3.7301,-3.6804,-3.6804,-3.6039,-3.5728,-3.6101,-3.6163,-3.6183,-3.6183,-3.6583,-3.6326,-3.5316,-3.6101,-3.6524,-3.6435,-3.5114,-3.4999,0.0,0.0,0.0,0.0,0.0,0.0,0.0,0.0,0.0,0.0,0.0,0.0,0.0,0.0,0.0,-0.8765,-1.0334,-1.1552,-1.1613,-1.1932,-1.2169,-1.2196,-1.2352,-1.2522,-1.2514,-1.2668,-1.2802,-1.2916,-1.3739,-1.4339,-1.4504,-1.5661,-1.6544,-1.6584,-1.6893,-1.708,-1.7112,-1.7112,-1.7112,-1.7112,-1.7112,0.0,-1.7112,-1.7112,-1.7639,-1.8339,-1.8514,-1.9039,-1.9746,-1.9921,-2.0771,-2.2309,-2.2675,-2.3682,-2.5114,-2.6215,-2.7406,-2.847,-2.9005,-2.9713,-3.0177,-3.0467,-3.1189,-3.1762,-3.1661,-3.2039,0.0,-3.2819,-3.3148,-3.3233,-3.3047,-3.2952,-3.2954,-3.263,-3.2781,-3.3149,-3.3991,-3.5113,-3.6143,-3.7402,-3.8053,-3.8347,-3.8844,-3.887,-3.8688,-3.8253,-3.8191,-3.8191,-3.8191,-3.8191,-3.8191,-3.8191,-3.786,-3.7632,-3.7632,-3.7115,-3.6804,-3.6804,-3.6639,-3.6411,-3.6121,-3.6473,-3.666,-3.666,-3.7297,-3.7529,-3.7252,-3.7984,-3.8647,-3.9406,-3.7636,-3.7231,0.0,0.0,0.0,0.0,0.0,0.0,0.0,0.0,0.0,0.0,0.0,-0.526,-0.6142,0.0,-0.8502,-0.9486,-1.0722,-1.1755,-1.183,-1.2162,-1.2372,-1.2298,-1.2413,-1.2562,-1.2718,-1.2868,-1.3017,-1.3159,-1.4131,-1.4713,-1.4713,-1.5876,-1.6584,-1.6584,-1.6925,-1.7112,-1.7112,-1.7112,-1.7112,-1.7112,-1.7112,-1.7112,-1.7112,-1.7288,-1.7989,-1.8864,-1.9379,-2.0076,-2.0955,-2.1649,-2.2837,-2.4029,-2.5068,-2.5995,-2.7132,-2.801,-2.8955,-2.9929,-3.0113,-3.0453,-3.0594,-3.0942,-3.1401,-3.1873,-3.2039,-3.2489,-3.2819,-3.3148,-3.3328,-3.3365,-3.2825,-3.2682,-3.2666,-3.2585,-3.3006,-3.372,-3.5042,-3.6331,-3.7658,-3.87,-3.8868,-3.8963,-3.926,-3.8842,-3.844,-3.8212,-3.8191,-3.8191,-3.8191,-3.8191,-3.8191,-3.8191,-3.7984,-3.7839,-3.7839,-3.7405,-3.7053,-3.6825,-3.6804,-3.6804,-3.6804,-3.7032,-3.7156,-3.7156,-3.8013,-3.8401,-3.8146,-3.9282,-4.017,-4.0629,-3.9886,-3.9799,0.0,0.0,0.0,0.0,0.0,0.0,0.0,0.0,-0.7362,-0.7043,-0.6877,-0.7011,-0.7635,-0.8524,-0.9402,-1.0222,-1.1239,-1.1932,-1.2088,-1.2332,-1.2461,-1.2345,-1.2433,-1.2576,-1.2759,-1.2888,-1.303,-1.3207,-1.4145,-1.4713,-1.4713,-1.5845,-1.6544,-1.6576,-1.6893,-1.708,-1.7112,-1.7112,-1.7112,-1.7112,-1.7112,-1.7112,-1.7288,-1.7647,-1.8339,-1.9553,-2.0761,-2.1801,-2.2848,-2.4041,-2.5068,-2.6078,-2.7448,-2.8123,-2.8783,-2.9314,-3.015,-3.0817,-3.0817,-3.0817,-3.0984,-3.1316,-3.1647,-3.1813,-3.2654,-3.2819,-3.2983,-3.3328,-3.3492,-3.3317,-3.2762,-3.257,-3.271,-3.2923,-3.3634,-3.4672,-3.6201,-3.7658,-3.8951,-3.9714,-3.9596,-3.9537,-3.9537,-3.8792,-3.8191,-3.8191,-3.8191,-3.8191,-3.8191,-3.8191,-3.8191,-3.8191,-3.8191,-3.8191,-3.8191,-3.7839,-3.7467,-3.7094,-3.7074,-3.7281,-3.7736,-3.7757,-3.7798,-3.7902,-3.8898,-3.9295,-3.8912,-4.0363,-4.1197,-4.1284,-4.1655,-4.1786,-0.2251,-0.2412,-0.2618,-0.3418,-0.4654,-0.5793,0.0,0.0,-0.8491,-0.8512,-0.8402,-0.8394,-0.9024,-0.971,-1.037,-1.0934,-1.1524,-1.2088,-1.2244,-1.24,-1.2494,-1.2481,-1.2494,-1.2617,-1.2908,-1.2949,-1.3078,-1.3356,-1.421,-1.4713,-1.4713,-1.5727,-1.6414,-1.6576,-1.6779,-1.6958,-1.7112,-1.7112,-1.7112,-1.7112,-1.7112,-1.7288,-1.7647,-1.7822,-1.8689,-2.0588,-2.2654,-2.4189,-2.5044,-2.6078,-2.6927,-2.7928,-2.8964,-2.9816,-3.0484,-3.0165,-3.0332,-3.0817,-3.0817,-3.115,-3.1482,-3.1482,-3.1994,-3.2654,-3.2819,-3.3148,-3.3476,-3.3492,-3.3492,-3.3481,-3.3097,-3.322,-3.3669,-3.4126,-3.5157,-3.6201,-3.753,-3.87,-3.9714,-4.0166,-3.9877,-3.9537,-3.9537,-3.8792,-3.8191,-3.8191,-3.8191,-3.8191,-3.8191,-3.8191,-3.8191,-3.8191,-3.8191,-3.8191,-3.8191,-3.8129,-3.8088,-3.8026,-3.8026,-3.8233,-3.8667,-3.8688,-3.8895,-3.9309,-4.0035,-4.0444,-4.0401,-4.1164,-4.183,-4.2267,-4.2311,-4.2114,-0.4165,-0.4451,0.0,0.0,-0.6869,-0.7996,-0.7886,-0.8937,-0.9927,-1.0006,-1.0136,-1.0254,-1.0595,-1.0934,-1.1253,0.0,-1.2054,-1.2216,-1.2284,-1.2413,-1.2501,-1.2501,-1.2501,-1.2589,-1.2807,-1.2908,-1.3205,-1.3582,-1.4332,-1.4878,-1.5051,-1.587,-1.6389,-1.6576,-1.6755,-1.6933,-1.7112,-1.7112,-1.7288,-1.7463,-1.7814,-1.8339,-1.903,-1.9553,-2.1098,-2.3514,-2.5068,-2.6078,-2.7096,-2.7617,-2.8292,-2.8964,-2.9663,-3.0332,-3.0817,-3.0665,-3.0665,-3.0817,-3.115,-3.1316,-3.1647,-3.2159,-3.2489,-3.2819,-3.3148,-3.3312,-3.3492,-3.3492,-3.3492,-3.3481,-3.3416,-3.3835,-3.4416,-3.5184,-3.6479,-3.7805,-3.8846,-3.9714,-4.0433,-4.0596,-4.0018,-3.9537,-3.9537,-3.8792,-3.8191,-3.8191,-3.8191,-3.8191,-3.8191,-3.8191,-3.8191,-3.8191,-3.8191,-3.8191,-3.8191,-3.8191,-3.8191,-3.8191,-3.8419,-3.8647,-3.8833,-3.9102,-3.9351,-3.9537,-4.0087,-4.0362,-4.0614,-4.1438,-4.195,-4.242,-4.2726,-4.2748,-0.5111,0.0,0.0,-0.6739,-0.806,-0.9256,-0.894,-0.9899,-1.0887,-1.1036,-1.124,-1.1436,-1.1592,-1.1701,-1.1837,-1.2033,-1.2155,-1.2257,-1.2338,-1.2433,-1.2501,-1.2501,-1.2501,-1.2542,-1.2814,-1.2999,-1.3339,-1.3817,-1.446,-1.5051,-1.5381,-1.5996,-1.6316,-1.6495,-1.6682,-1.686,-1.7039,-1.7088,-1.7463,-1.7998,-1.8681,-1.9544,-2.0752,-2.2136,-2.4018,-2.6248,-2.7122,-2.7968,-2.881,-2.9146,-2.9481,-2.9816,-3.0165,-3.0499,-3.0817,-3.0817,-3.0817,-3.0817,-3.1316,-3.1647,-3.1828,-3.2489,-3.2819,-3.2983,-3.3312,-3.3492,-3.3476,-3.364,-3.374,-3.384,-3.4001,-3.4674,-3.5498,-3.6515,-3.7805,-3.8971,-3.9714,-4.0433,-4.0882,-4.0882,-4.0158,-3.9537,-3.9537,-3.8792,-3.8191,-3.8191,-3.8191,-3.8191,-3.8191,-3.8191,-3.8191,-3.8191,-3.8191,-3.8233,-3.8357,-3.8378,-3.8419,-3.8543,-3.8854,-3.9102,-3.9226,-3.9558,-3.9785,-3.9909,-4.0327,-4.0604,-4.0859,-4.1636,-4.2085,-4.234,-4.2709,-4.2883,0.0,0.0,-0.554,-0.6289,-0.7524,-0.8639,-0.9354,-1.0323,-1.1192,-1.1348,-1.1382,-1.1436,-1.1592,-1.1619,-1.1721,-1.2013,-1.2067,-1.2169,-1.2454,-1.2501,-1.2501,-1.2501,-1.2501,-1.2656,0.0,-1.3404,-1.3653,-1.381,-1.4788,-1.5381,-1.5381,-1.5719,-1.6137,-1.6308,-1.6487,-1.6674,-1.686,-1.7023,-1.7639,-1.8514,-1.9873,-2.1251,-2.2654,-2.5385,-2.7096,-2.8096,-2.8964,-2.9983,-3.0651,-3.0651,-3.0817,-3.0817,-3.0817,-3.0832,-3.0817,-3.0817,-3.0817,-3.0817,-3.1316,-3.1828,-3.2174,-3.267,-3.3148,-3.3492,-3.3492,-3.3492,-3.364,-3.3968,-3.4196,-3.4316,-3.5175,-3.6029,-3.6846,-3.7773,-3.8846,-3.9714,-4.0166,-4.0596,-4.0882,-4.0882,-4.0158,-3.9537,-3.9537,-3.8792,-3.8191,-3.8191,-3.8191,-3.8191,-3.8191,-3.8191,-3.8191,-3.8191,-3.8191,-3.8357,-3.8792,-3.8833,-3.9019,-3.9475,-3.9516,-3.9723,-4.0158,-4.0199,-4.0406,-4.082,-4.1289,-4.1431,-4.1431,-4.1855,-4.1997,-4.1997,-4.1997,-4.2018,0.0,0.0,-0.7245,-0.7,-0.8387,-0.9789,-1.0161,-1.0896,-1.1484,-1.1531,-1.1463,-1.1463,-1.1714,-1.1681,-1.1748,-1.2149,-1.221,-1.2284,-1.2474,-1.2501,-1.2501,-1.2501,-1.2727,0.0,0.0,0.0,0.0,-1.4464,-1.4954,-1.5428,-1.5711,-1.5883,-1.6121,-1.63,-1.6365,-1.6713,-1.719,-1.7594,-1.8721,-2.0414,-2.2987,-2.4702,-2.5896,-2.7448,-2.8473,-2.9132,-2.9663,-3.0332,-3.0817,-3.0817,-3.0817,-3.0817,-3.0817,-3.0817,-3.0817,-3.0817,-3.0984,-3.1316,-3.1828,-3.2009,-3.2339,-3.2999,-3.3328,-3.3492,-3.3492,-3.3492,-3.364,-3.4294,-3.4664,-3.5237,-3.6421,-3.7536,-3.8303,-3.8944,-3.9858,-4.0576,-4.074,-4.074,-4.0882,-4.0882,-4.0406,-3.9889,-3.9599,-3.904,-3.8523,-3.8233,-3.8191,-3.8191,-3.8191,-3.8191,-3.8191,-3.8191,-3.8191,-3.8357,-3.8812,-3.8854,-3.904,-3.9516,-3.9827,-4.0075,-4.022,-4.051,-4.0737,-4.0882,-4.1025,-4.1022,-4.1011,-4.1467,-4.1587,-4.155,-4.1869,-4.2018,0.0,-0.6164,-0.7722,-0.7571,-0.8813,-1.0209,-1.0437,-1.0894,-1.1462,-1.1545,-1.1416,-1.1369,-1.1558,-1.1518,-1.1586,-1.1986,-1.2142,-1.2257,-1.2406,-1.2467,-1.2501,-1.2656,-1.2881,-1.3173,0.0,0.0,0.0,-1.4766,-1.516,-1.5504,-1.5943,-1.6008,-1.6097,-1.6211,-1.6267,-1.675,-1.7503,-1.8408,-2.0236,-2.3358,-2.5761,-2.7512,-2.8628,-2.9314,-2.9649,-2.9983,-3.0332,-3.0499,-3.0817,-3.0817,-3.0817,-3.0817,-3.0817,-3.0817,-3.0817,-3.0984,-3.1316,-3.1647,-3.2009,-3.2339,-3.2505,-3.3328,-3.3492,-3.3492,-3.364,-3.3804,-3.4131,-3.5254,-3.5686,-3.6305,-3.762,-3.8648,-3.9307,-3.9775,-4.0453,-4.0882,-4.0882,-4.0882,-4.0924,-4.1089,-4.0758,-4.0365,-4.0075,-3.9371,-3.875,-3.846,-3.8295,-3.8191,-3.8191,-3.8191,-3.8191,-3.8191,-3.8336,-3.8605,-3.9061,-3.9247,-3.9537,-3.9992,-4.0303,-4.0468,-4.0468,-4.0737,-4.0882,-4.0882,-4.0717,-4.0651,-4.064,-4.0766,-4.0766,-4.0899,-4.1215,-4.1446,-0.4297,-0.5833,-0.7157,-0.787,-0.8939,-1.0029,-1.0449,-1.0737,-1.1129,-1.1248,-1.1226,-1.1118,0.0,0.0,-1.1233,-1.1558,-1.1864,-1.2115,-1.2271,-1.2413,-1.2656,0.0,0.0,0.0,0.0,0.0,0.0,-1.4735,0.0,-1.5926,-1.5934,-1.6106,-1.6205,-1.6205,-1.6369,-1.6793,-1.7802,-1.9313,-2.2343,-2.6952,-2.7987,-2.9159,-3.0803,-3.0817,-3.0817,-3.0817,-3.0817,-3.0817,-3.0817,-3.0817,-3.0817,-3.0817,-3.0817,-3.0817,-3.0817,-3.1316,-3.1482,-3.1647,-3.2174,-3.2505,-3.2819,-3.3328,-3.3492,-3.364,-3.3968,-3.4458,-3.5109,-3.6385,-3.7095,-3.7736,-3.8937,-3.9515,-3.9899,-4.031,-4.0596,-4.0882,-4.0882,-4.0882,-4.1007,-4.1483,-4.1214,-4.0903,-4.0882,-3.9785,-3.8916,-3.8895,-3.8523,-3.8233,-3.8191,-3.8191,-3.8191,-3.8191,-3.8585,-3.904,-3.9495,-3.9972,-4.0406,-4.0841,-4.0882,-4.0882,-4.0882,-4.0882,-4.0862,-4.0841,-4.0448,-4.0199,-4.0158,-3.9744,-3.9765,-4.0199,-4.022,-4.0468,-0.6291,-0.7675,-0.8928,-0.7952,-0.8977,-0.9977,-0.9929,-1.0457,-1.078,-1.0561,-1.0551,-1.0541,0.0,0.0,0.0,-1.1362,-1.1796,0.0,-1.2271,-1.272,0.0,0.0,0.0,-1.406,-1.4353,-1.4549,0.0,0.0,-1.6302,-1.6747,-1.7226,-1.7738,-1.8001,-1.8001,-1.8046,-1.8806,-2.0106,-2.2797,-2.5437,-2.7662,-2.8743,-2.9735,-3.0481,-3.0715,-3.0817,-3.0817,-3.0817,-3.0817,-3.0817,-3.0817,-3.0817,-3.0817,-3.0817,-3.0984,-3.1316,-3.1482,-3.1978,-3.2489,-3.2999,-3.2999,-3.2819,-3.3328,-3.3492,-3.364,-3.4458,-3.5075,-3.6011,-3.7631,-3.8844,-3.9758,-4.0373,-4.0767,-4.1008,-4.0822,-4.0882,-4.0882,-4.0882,-4.0882,-4.1007,-4.1483,-4.1462,-4.1276,-4.0924,-4.0323,-3.9765,-3.9413,-3.9268,-3.8957,-3.8274,-3.8191,-3.8191,-3.8191,-3.8585,-3.904,-3.9495,-3.9972,-4.0406,-4.0841,-4.0882,-4.0882,-4.0882,-4.0882,-4.0737,-4.0406,-4.0282,-3.9889,-3.9206,-3.9433,-3.9599,-3.9723,-4.0075,-4.061,-0.7065,-0.8145,-0.889,-0.8331,-0.9045,-0.986,-0.99,-1.0168,-1.0378,-1.0228,-1.0109,0.0,0.0,0.0,0.0,0.0,0.0,0.0,-1.2463,-1.2831,-1.3274,0.0,-1.442,0.0,-1.542,-1.5794,-1.6223,0.0,-1.7235,-1.7502,-1.835,-1.9193,-1.9674,-1.9775,-1.9775,-2.0811,-2.2727,-2.4976,-2.6907,-2.8508,-2.932,-3.0054,-3.0364,-3.0671,-3.0817,-3.0817,-3.0817,-3.0817,-3.0817,-3.0817,-3.0817,-3.0817,-3.0984,-3.1316,-3.1482,-3.1978,-3.2324,-3.2983,-3.3804,-3.4115,-3.4262,-3.4278,-3.4458,-3.4767,-3.5578,-3.6529,-3.7454,-3.9077,-4.0182,-4.098,-4.1143,-4.1457,-4.1441,-4.0986,-4.0882,-4.0882,-4.0882,-4.0882,-4.1069,-4.1752,-4.2021,-4.2021,-4.1565,-4.0944,-4.0365,-3.9909,-3.9661,-3.9351,-3.8833,-3.8771,-3.8771,-3.8771,-3.8999,-3.9247,-3.9516,-3.9785,-4.0116,-4.0551,-4.0572,-4.0675,-4.0862,-4.0696,-4.0468,-4.0241,-3.9827,-3.9371,-3.8854,-3.8916,-3.9144,-3.9537,-3.9945,-4.0703,-0.74,-0.7968,-0.8318,-0.8805,-0.935,-0.9703,-0.9971,-0.9954,-0.9757,-0.9949,0.0,-0.9435,-0.9456,0.0,-0.991,-1.0527,0.0,-1.1811,-1.2578,-1.3051,-1.3714,-1.496,-1.5582,-1.6195,-1.6959,-1.7407,-1.8006,-1.8926,-1.8478,-1.8697,-1.9573,-2.058,-2.1293,-2.1534,-2.1706,-2.298,-2.5225,-2.6188,-2.7602,-2.931,-2.969,-3.0012,-3.029,-3.0656,-3.0817,-3.0817,-3.0817,-3.0817,-3.0817,-3.0817,-3.0817,-3.0984,-3.1316,-3.1647,-3.1813,-3.2654,-3.2983,-3.3312,-3.4621,-3.5561,-3.6333,-3.5723,-3.6063,-3.6529,-3.733,-3.8322,-3.9291,-4.0353,-4.1361,-4.2049,-4.18,-4.1665,-4.1524,-4.1007,-4.0882,-4.0882,-4.0882,-4.0924,-4.1214,-4.2083,-4.2621,-4.2787,-4.2331,-4.1586,-4.0882,-4.0386,-3.9972,-3.9723,-3.9723,-3.962,-3.9537,-3.9537,-3.9599,-3.9599,-3.9537,-3.964,-3.9847,-4.0179,-4.0261,-4.0489,-4.0862,-4.0468,-4.0199,-4.0137,-3.9288,-3.8812,-3.875,-3.844,-3.8709,-3.9537,-3.9875,-4.0633,-0.9283,-0.9555,-0.9598,-0.9543,-0.9711,-0.978,-0.9354,-0.9335,0.0,0.0,0.0,-0.854,-0.8655,-0.8906,0.0,-1.0053,0.0,0.0,0.0,0.0,-1.4349,0.0,0.0,0.0,0.0,0.0,0.0,0.0,0.0,-2.144,-2.1301,-2.2333,-2.3064,-2.3324,-2.4295,-2.5251,-2.6188,-2.7319,-2.8304,-2.8988,-2.9573,-2.9895,-2.9968,-3.0554,-3.0817,-3.0817,-3.0817,-3.0817,-3.0817,-3.0817,-3.0984,-3.1316,-3.1482,-3.1978,-3.2654,-3.3148,-3.3804,-3.4621,-3.5901,-3.717,-3.795,-3.7312,-3.7454,-3.8231,-3.904,-4.023,-4.1386,-4.1832,-4.29,-4.3627,-4.2431,-4.2207,-4.1917,-4.1069,-4.0882,-4.0882,-4.0882,-4.1172,-4.1607,-4.2145,-4.2621,-4.2787,-4.2331,-4.2124,-4.1731,-4.0882,-4.0696,-4.0655,-4.0655,-3.9992,-3.9537,-3.9537,-3.9889,-3.9951,-3.9578,-4.022,-4.053,-4.0241,-4.0551,-4.08,-4.0882,-4.0468,-4.0054,-3.9661,-3.9123,-3.8667,-3.8295,-3.8585,-3.8999,-3.9537,-3.993,-4.0808,-0.99,-0.9976,-0.9965,-0.9731,-0.9871,-0.9908,-0.9408,0.0,0.0,0.0,0.0,-0.8079,-0.8221,0.0,0.0,0.0,0.0,0.0,0.0,0.0,0.0,0.0,0.0,0.0,0.0,0.0,0.0,0.0,0.0,-2.2928,-2.3162,-2.4202,-2.5123,-2.5422,-2.6056,-2.6689,-2.7319,-2.7961,-2.8431,-2.89,-2.9383,-2.969,-2.9881,-3.0364,-3.0671,-3.0817,-3.0817,-3.0817,-3.0817,-3.0984,-3.142,-3.1751,-3.2252,-3.2859,-3.35,-3.4141,-3.5048,-3.5815,-3.7241,-3.8603,-3.9845,-4.0002,-3.9983,-4.0021,-4.0897,-4.1739,-4.2544,-4.323,-4.3853,-4.4049,-4.2911,-4.2435,-4.2021,-4.1089,-4.0882,-4.0882,-4.0882,-4.1234,-4.171,-4.2166,-4.2621,-4.2787,-4.2331,-4.2249,-4.1938,-4.1007,-4.0882,-4.0882,-4.0882,-4.051,-4.0241,-4.0241,-4.022,-4.0116,-3.9909,-4.0075,-4.0199,-4.022,-4.0427,-4.0634,-4.0862,-4.0468,-4.0116,-3.9909,-3.9433,-3.9102,-3.8895,-3.9102,-3.9454,-3.9909,-4.0256,-4.0891,-0.9992,-1.0019,-0.9965,-0.9731,-0.9831,-0.997,-0.9588,-0.9255,0.0,0.0,0.0,-0.7712,-0.7868,0.0,0.0,0.0,0.0,0.0,0.0,0.0,0.0,0.0,0.0,0.0,0.0,0.0,0.0,0.0,0.0,0.0,-2.4559,-2.5753,-2.6702,-2.7032,-2.7189,-2.7661,-2.8289,-2.8446,-2.8588,-2.89,-2.9222,-2.9515,-2.9778,-3.0173,-3.0481,-3.0729,-3.0803,-3.0817,-3.0817,-3.1316,-3.1843,-3.2479,-3.3333,-3.4039,-3.4815,-3.5692,-3.6498,-3.734,-3.8664,-4.0078,-4.1598,-4.2336,-4.2202,-4.1931,-4.2621,-4.3175,-4.3711,-4.429,-4.4502,-4.4339,-4.3221,-4.2663,-4.2145,-4.111,-4.0882,-4.0882,-4.0882,-4.1172,-4.1545,-4.2021,-4.2476,-4.2642,-4.2186,-4.2186,-4.1938,-4.1007,-4.0882,-4.0882,-4.0882,-4.0882,-4.0882,-4.0882,-4.0551,-4.0303,-4.0241,-3.9972,-3.9951,-4.022,-4.0323,-4.053,-4.0862,-4.0448,-4.022,-4.022,-3.9785,-3.9537,-3.9537,-3.964,-3.9868,-4.0241,-4.0605,-4.1116,-1.0019,-1.0019,-0.9965,-0.9731,-0.9849,-0.998,-0.9311,0.0,0.0,0.0,-0.7624,-0.7251,-0.7407,-0.7556,0.0,0.0,0.0,0.0,0.0,0.0,0.0,0.0,0.0,0.0,0.0,0.0,0.0,0.0,0.0,0.0,-2.5338,-2.6378,-2.7032,-2.7032,-2.7819,-2.8289,-2.8289,-2.8588,-2.8886,-2.89,-2.9222,-2.9398,-2.9442,-3.0071,-3.0364,-3.0407,-3.07,-3.0817,-3.0817,-3.1316,-3.2508,-3.3985,-3.4317,-3.5526,-3.7009,-3.7953,-3.8526,-3.919,-4.0432,-4.1445,-4.243,-4.3339,-4.3771,-4.4081,-4.4122,-4.4721,-4.5319,-4.5105,-4.5271,-4.5147,-4.3387,-4.289,-4.2518,-4.1193,-4.0882,-4.0882,-4.0882,-4.0903,-4.1069,-4.1545,-4.2,-4.2166,-4.171,-4.1979,-4.1938,-4.1007,-4.0882,-4.0882,-4.0882,-4.0882,-4.0882,-4.0882,-4.0841,-4.0655,-4.0261,-4.0551,-4.0613,-4.0241,-4.0593,-4.0841,-4.0882,-4.0427,-4.0199,-4.022,-3.9785,-3.9537,-3.9537,-3.9951,-4.0179,-4.0241,-4.0634,-4.1268,-0.9894,-0.9965,-0.9965,-1.0028,-0.9977,-0.9944,-0.954,0.0,0.0,-0.8327,-0.7837,-0.7634,-0.7974,-0.8154,-0.8502,0.0,0.0,0.0,0.0,0.0,0.0,0.0,0.0,0.0,0.0,0.0,0.0,0.0,0.0,0.0,-2.5553,-2.6275,-2.6997,-2.7805,-2.8133,-2.8431,-2.8588,-2.8886,-2.8886,-2.8886,-2.9017,-2.9178,-2.9383,-2.9647,-2.9983,-3.0364,-3.0481,-3.0642,-3.0817,-3.1828,-3.3447,-3.5275,-3.6274,-3.7795,-3.9641,-4.0235,-4.0852,-4.1618,-4.2092,-4.2913,-4.3546,-4.3618,-4.3916,-4.436,-4.4629,-4.4774,-4.4877,-4.496,-4.4919,-4.4546,-4.3263,-4.2311,-4.1545,-4.1007,-4.0882,-4.0882,-4.0882,-4.0882,-4.1007,-4.1483,-4.1938,-4.2104,-4.1648,-4.1959,-4.1938,-4.1007,-4.0882,-4.0882,-4.0882,-4.0882,-4.0882,-4.0882,-4.0882,-4.08,-4.0634,-4.0779,-4.08,-4.0634,-4.0779,-4.0882,-4.0882,-4.0696,-4.0613,-4.0613,-4.0427,-4.0344,-4.0344,-4.053,-4.0613,-4.0634,-4.1084,-4.1473,-1.005,-1.0207,-1.0417,-1.0283,-1.0179,-1.0104,0.0,0.0,-0.857,-0.845,-0.8273,-0.8232,-0.8714,-0.9089,-0.9566,-1.0121,0.0,0.0,0.0,0.0,0.0,0.0,0.0,0.0,0.0,0.0,0.0,0.0,0.0,0.0,-2.5977,-2.6392,-2.7116,-2.8132,-2.8388,-2.8588,-2.8886,-2.8886,-2.8886,-2.8886,-2.8886,-2.9017,-2.9237,-2.9325,-2.9632,-3.0071,-3.0159,-3.0498,-3.0869,-3.2181,-3.4032,-3.6305,-3.7637,-3.9359,-4.1227,-4.1762,-4.2159,-4.2665,-4.2853,-4.3269,-4.3863,-4.3677,-4.3822,-4.4174,-4.465,-4.465,-4.4567,-4.4898,-4.4463,-4.3739,-4.3097,-4.1897,-4.0882,-4.0882,-4.0882,-4.0882,-4.0882,-4.0882,-4.0965,-4.1296,-4.1855,-4.2062,-4.1462,-4.1855,-4.1938,-4.1007,-4.0882,-4.0882,-4.0882,-4.0882,-4.0882,-4.0882,-4.0882,-4.0882,-4.0882,-4.0882,-4.0882,-4.0882,-4.0882,-4.0882,-4.0882,-4.0882,-4.1025,-4.1025,-4.1025,-4.1167,-4.1167,-4.1167,-4.1167,-4.1167,-4.1473,-4.1756,-1.0792,-1.106,-1.1164,-1.0761,-1.0401,-1.0085,0.0,-0.8798,-0.839,-0.8466,-0.8742,-0.9069,-0.9497,-1.0096,-1.0757,-1.1222,-1.1467,0.0,0.0,0.0,0.0,0.0,0.0,0.0,0.0,0.0,0.0,0.0,0.0,0.0,-2.6858,-2.6872,-2.7173,-2.7788,-2.8569,-2.8886,-2.8886,-2.8886,-2.8886,-2.8886,-2.8886,-2.8886,-2.89,-2.9237,-2.9383,-2.9398,-2.9734,-3.0203,-3.0525,-3.195,-3.409,-3.6832,-3.8127,-3.9813,-4.1797,-4.2112,-4.2047,-4.1746,-4.22,-4.2631,-4.3014,-4.347,-4.3615,-4.3698,-4.4174,-4.4629,-4.4981,-4.5002,-4.4008,-4.2932,-4.2911,-4.1897,-4.0882,-4.0882,-4.0882,-4.0882,-4.0882,-4.0882,-4.0882,-4.0882,-4.1628,-4.1959,-4.1048,-4.1648,-4.1938,-4.1007,-4.0882,-4.0882,-4.0882,-4.0882,-4.0882,-4.0882,-4.0882,-4.0882,-4.0882,-4.0882,-4.0882,-4.0882,-4.0882,-4.0882,-4.0882,-4.0882,-4.1025,-4.1473,-4.1473,-4.1615,-4.2018,-4.2018,-4.2018,-4.2018,-4.2018,-4.2159,-1.0242,-1.051,-1.0791,-1.0889,-1.0587,-1.033,-1.0186,-0.9493,-0.8888,-0.9227,-0.9457,-0.9749,-1.0453,-1.1058,-1.1739,-1.2235,-1.2483,0.0,0.0,0.0,0.0,0.0,0.0,0.0,0.0,0.0,0.0,0.0,0.0,0.0,-2.6543,-2.7054,-2.7623,-2.8264,-2.838,-2.8681,-2.8886,-2.8886,-2.8886,-2.8886,-2.8886,-2.8886,-2.89,-2.8988,-2.9164,-2.9383,-2.9804,-3.0156,-3.0686,-3.2396,-3.47,-3.7342,-3.8943,-4.0937,-4.3054,-4.3208,-4.3024,-4.2891,-4.2734,-4.2761,-4.289,-4.2725,-4.289,-4.3118,-4.2952,-4.3221,-4.3511,-4.3201,-4.258,-4.2,-4.2,-4.1441,-4.0882,-4.0882,-4.0882,-4.0882,-4.0882,-4.0882,-4.0882,-4.0882,-4.1358,-4.1586,-4.0986,-4.1379,-4.1586,-4.0965,-4.0882,-4.0882,-4.0882,-4.0882,-4.0882,-4.0882,-4.0882,-4.0882,-4.0882,-4.0882,-4.0882,-4.0882,-4.0882,-4.0882,-4.0882,-4.1167,-4.1331,-4.1473,-4.1756,-4.1877,-4.2018,-4.2018,-4.2159,-4.2441,-4.2441,-4.2581,0.0,-1.0365,-1.0512,-1.0766,-1.0739,-1.0623,-1.0638,-1.019,-0.9797,-1.0156,-1.049,-1.0885,-1.1499,-1.2272,-1.2966,-1.3513,-1.3732,0.0,0.0,0.0,0.0,0.0,0.0,0.0,0.0,0.0,0.0,0.0,0.0,0.0,-2.6692,-2.7027,-2.7539,-2.8052,-2.8315,-2.8534,-2.871,-2.8827,-2.8886,-2.8886,-2.8886,-2.8886,-2.8886,-2.8886,-2.9003,-2.9193,-2.968,-3.0257,0.0,-3.2937,-3.5312,-3.7792,-3.9223,-4.1063,-4.2849,-4.2849,-4.2725,-4.2538,-4.2249,-4.2269,-4.2373,-4.2083,-4.2311,-4.258,-4.2145,-4.2311,-4.2621,-4.2331,-4.1917,-4.1565,-4.1565,-4.1214,-4.0882,-4.0882,-4.0882,-4.0882,-4.0882,-4.0882,-4.0882,-4.0882,-4.1255,-4.1421,-4.0965,-4.1255,-4.14,-4.0944,-4.0882,-4.0882,-4.0882,-4.0882,-4.0882,-4.0882,-4.0882,-4.0882,-4.0882,-4.0882,-4.0882,-4.0882,-4.0882,-4.0882,-4.0882,-4.1331,-4.1615,-4.1756,-4.2018,-4.23,-4.2441,-4.2441,-4.2581,-4.2861,-4.2861,-4.3023,0.0,-1.052,-1.0699,-1.0792,-1.0982,-1.1189,-1.0982,-1.0884,0.0,-1.1261,-1.1749,-1.2186,-1.2613,-1.3502,-1.4309,-1.4897,-1.5017,0.0,0.0,0.0,0.0,0.0,0.0,0.0,0.0,0.0,0.0,0.0,0.0,0.0,-2.6998,-2.6983,-2.713,-2.7437,-2.8052,-2.8388,-2.8432,-2.871,-2.8871,-2.8886,-2.8886,-2.8886,-2.8886,-2.8886,-2.8886,-2.8886,-2.9368,-3.0284,-3.1654,-3.318,-3.5503,-3.8082,-3.9308,-4.0484,-4.1524,-4.1524,-4.1255,-4.0882,-4.0882,-4.1151,-4.1524,-4.1545,-4.1835,-4.2083,-4.169,-4.1876,-4.2207,-4.2166,-4.1855,-4.1524,-4.1524,-4.1193,-4.0882,-4.0882,-4.0882,-4.0882,-4.0882,-4.0882,-4.0882,-4.0882,-4.1214,-4.1379,-4.0944,-4.1234,-4.1379,-4.0944,-4.0882,-4.0882,-4.0882,-4.0882,-4.0882,-4.0882,-4.0882,-4.0882,-4.0882,-4.0882,-4.0882,-4.0882,-4.0882,-4.0882,-4.0882,-4.1331,-4.1756,-4.2018,-4.2441,-4.2861,-4.3184,-4.3184,-4.3184,-4.3184,-4.3184,-4.3184,-1.1138,0.0,-1.0664,-1.1169,-1.1388,-1.1612,0.0,-1.1586,-1.1566,0.0,0.0,-1.254,-1.3137,-1.3913,-1.4603,-1.5204,0.0,0.0,0.0,0.0,0.0,0.0,0.0,0.0,0.0,0.0,0.0,0.0,0.0,-2.6838,-2.6983,-2.6983,-2.7027,-2.71,-2.7495,-2.7934,-2.8432,-2.8505,-2.8666,-2.8886,-2.8886,-2.8886,-2.8886,-2.8886,-2.8886,-2.8886,-2.9974,-3.1194,-3.2402,-3.4389,-3.6367,-3.8526,-3.942,-4.0309,-4.1027,-4.1027,-4.0965,-4.0882,-4.0882,-4.0944,-4.1089,-4.1462,-4.14,-4.1255,-4.1483,-4.1648,-4.1648,-4.1296,-4.1131,-4.1027,-4.1027,-4.0965,-4.0882,-4.0882,-4.0882,-4.0882,-4.0882,-4.0882,-4.0882,-4.0882,-4.0965,-4.1007,-4.0903,-4.0965,-4.1007,-4.0903,-4.0882,-4.0882,-4.0882,-4.0882,-4.0882,-4.0882,-4.0882,-4.0882,-4.0882,-4.0882,-4.0882,-4.0882,-4.0882,-4.0882,-4.0882,-4.1594,-4.1877,-4.2018,-4.2743,-4.3163,-4.3184,-4.3184,-4.3184,-4.3184,-4.3184,-4.3184,-1.174,-1.1389,-1.1065,-1.1625,-1.2107,-1.247,-1.2638,0.0,0.0,0.0,0.0,0.0,-1.3655,0.0,0.0,0.0,0.0,0.0,0.0,0.0,0.0,0.0,0.0,0.0,0.0,0.0,0.0,0.0,0.0,-2.6983,-2.6983,-2.6983,-2.6983,-2.6983,-2.7159,-2.7495,-2.7993,-2.8286,-2.852,-2.8681,-2.8983,-2.9212,-2.9508,-2.9664,-2.9819,-3.0144,-3.1363,-3.2571,-3.3751,-3.5718,-3.7511,-3.9116,-3.9714,-4.0289,-4.0882,-4.0882,-4.0882,-4.0882,-4.0882,-4.0882,-4.0924,-4.1172,-4.1089,-4.0924,-4.1172,-4.1255,-4.1193,-4.0944,-4.0882,-4.0882,-4.0882,-4.0882,-4.0882,-4.0882,-4.0882,-4.0882,-4.0882,-4.0882,-4.0882,-4.0882,-4.0882,-4.0882,-4.0882,-4.0882,-4.0882,-4.0882,-4.0882,-4.0882,-4.0882,-4.0882,-4.0882,-4.0882,-4.0882,-4.0882,-4.0882,-4.0882,-4.0882,-4.0882,-4.0882,-4.1025,-4.1188,-4.1735,-4.2159,-4.2581,-4.3023,-4.3184,-4.3184,-4.3184,-4.3324,-4.3441,-4.358,-4.3719,-1.2506,-1.2415,-1.2309,-1.2358,-1.2944,-1.3524,-1.355,0.0,0.0,0.0,0.0,0.0,0.0,0.0,0.0,0.0,0.0,0.0,0.0,0.0,0.0,0.0,0.0,0.0,0.0,0.0,0.0,0.0,0.0,-2.6983,-2.6983,-2.6983,-2.6983,-2.6983,-2.6983,-2.713,-2.7393,-2.7993,-2.8315,-2.8359,-2.91,-2.9713,-3.0207,-3.0823,-3.1315,-3.1977,-3.3044,-3.4221,-3.5551,-3.7051,-3.8535,-3.9858,-4.031,-4.0596,-4.0882,-4.0882,-4.0882,-4.0882,-4.0882,-4.0882,-4.0882,-4.0882,-4.0882,-4.0882,-4.0882,-4.0882,-4.0882,-4.0882,-4.0882,-4.0882,-4.0882,-4.0882,-4.0882,-4.0882,-4.0882,-4.0882,-4.0882,-4.0882,-4.0882,-4.0882,-4.0882,-4.0882,-4.0882,-4.0882,-4.0882,-4.0882,-4.0882,-4.0882,-4.1025,-4.1025,-4.1025,-4.1025,-4.1025,-4.1025,-4.1025,-4.1025,-4.1025,-4.1025,-4.1025,-4.1167,-4.1615,-4.1877,-4.2441,-4.3184,-4.3184,-4.3184,-4.3184,-4.3184,-4.3441,-4.3836,-4.4318,-4.4754,-1.4444,-1.5011,-1.5137,-1.4112,-1.4134,-1.4504,-1.4739,0.0,0.0,0.0,0.0,0.0,0.0,0.0,0.0,0.0,0.0,0.0,0.0,0.0,0.0,0.0,0.0,0.0,0.0,0.0,0.0,0.0,0.0,-2.6983,-2.6983,-2.6983,-2.6983,-2.6983,-2.6983,-2.7013,-2.7071,-2.7437,-2.7759,-2.8022,-2.8822,-2.9729,-3.0751,-3.1507,-3.2559,-3.3868,-3.4804,-3.6146,-3.7473,-3.8516,-3.955,-4.0719,-4.074,-4.0882,-4.0882,-4.0882,-4.0882,-4.0882,-4.0882,-4.0882,-4.0882,-4.0882,-4.0882,-4.0882,-4.0882,-4.0882,-4.0882,-4.0882,-4.0882,-4.0882,-4.0882,-4.0882,-4.0882,-4.0882,-4.0882,-4.0882,-4.0882,-4.0882,-4.0882,-4.0882,-4.0882,-4.0882,-4.0882,-4.0882,-4.0882,-4.0882,-4.0882,-4.1025,-4.1331,-4.1473,-4.1473,-4.1735,-4.1877,-4.1877,-4.1877,-4.1877,-4.1877,-4.1877,-4.1594,-4.1756,-4.2441,-4.2441,-4.2721,-4.3184,-4.3184,-4.3184,-4.3184,-4.3184,-4.358,-4.4112,-4.5324,-4.6196,-1.4892,-1.5375,-1.5682,-1.5585,-1.5805,-1.5977,-1.5746,0.0,0.0,0.0,0.0,0.0,0.0,0.0,0.0,0.0,0.0,0.0,0.0,0.0,0.0,0.0,0.0,0.0,0.0,0.0,0.0,0.0,-2.6983,-2.6983,-2.6983,-2.6983,-2.6983,-2.6983,-2.6983,-2.6983,-2.6983,-2.7144,-2.7378,-2.77,-2.8911,-2.9947,-3.1118,-3.2392,-3.3752,-3.5374,-3.6368,-3.7492,-3.8661,-3.9405,-4.0146,-4.0882,-4.0882,-4.0882,-4.0882,-4.0882,-4.0882,-4.0882,-4.0882,-4.0882,-4.0882,-4.0882,-4.0882,-4.0882,-4.0882,-4.0882,-4.0882,-4.0882,-4.0882,-4.0882,-4.0882,-4.0882,-4.0882,-4.0882,-4.0882,-4.0882,-4.0882,-4.0882,-4.0882,-4.0882,-4.0882,-4.0882,-4.0882,-4.0882,-4.0882,-4.0882,-4.1025,-4.1331,-4.1473,-4.1615,-4.1877,-4.2018,-4.2018,-4.2018,-4.2018,-4.2018,-4.2018,-4.2018,-4.2018,-4.23,-4.2581,-4.2861,-4.3163,-4.3441,-4.3719,-4.3858,-4.4112,-4.425,-4.4663,-4.5483,-4.6627,-4.7678,-1.5016,-1.5428,-1.5815,-1.6521,0.0,-1.7055,-1.6714,-1.6368,0.0,0.0,0.0,0.0,0.0,0.0,0.0,0.0,0.0,0.0,0.0,0.0,0.0,0.0,0.0,0.0,0.0,0.0,0.0,-2.6983,-2.6983,-2.6983,-2.6983,-2.6983,-2.6983,-2.6983,-2.7129,-2.7129,-2.7274,-2.742,-2.7408,-2.7364,-2.8934,-3.0255,-3.1626,-3.3266,-3.4975,-3.6903,-3.7827,-3.8747,-3.955,-4.0146,-4.0596,-4.0882,-4.0882,-4.0882,-4.0882,-4.0882,-4.0882,-4.0882,-4.0882,-4.0882,-4.0882,-4.0882,-4.0882,-4.0882,-4.0882,-4.0882,-4.0882,-4.0882,-4.0882,-4.0882,-4.0882,-4.0882,-4.0882,-4.0882,-4.0882,-4.0882,-4.0882,-4.0882,-4.0882,-4.0882,-4.0882,-4.0882,-4.0882,-4.0882,-4.0882,-4.1025,-4.1414,-4.1783,-4.1925,-4.2273,-4.2479,-4.2621,-4.2621,-4.2578,-4.2471,-4.2364,-4.23,-4.23,-4.2441,-4.2581,-4.2721,-4.3023,-4.3441,-4.3836,-4.4228,-4.464,-4.5187,-4.5572,-4.6113,-4.6965,-4.8391,-4.9376,-1.5179,-1.5845,-1.6353,-1.666,-1.6962,0.0,-1.7423,-1.7488,0.0,-1.7448,0.0,0.0,0.0,0.0,0.0,0.0,0.0,0.0,0.0,0.0,0.0,0.0,0.0,0.0,0.0,0.0,-2.6983,-2.6983,-2.6983,-2.6983,-2.6983,-2.6983,-2.6983,-2.6983,-2.742,-2.7695,-2.8,-2.8418,-2.8,-2.7027,-2.864,-3.0225,-3.209,-3.3607,-3.602,-3.8928,-3.8948,-3.9637,-4.0719,-4.0882,-4.0882,-4.0882,-4.0882,-4.0882,-4.0882,-4.0882,-4.0882,-4.0882,-4.0882,-4.0882,-4.0882,-4.0882,-4.0882,-4.0882,-4.0882,-4.0882,-4.0882,-4.0882,-4.0882,-4.0882,-4.0882,-4.0882,-4.0882,-4.0882,-4.0882,-4.0882,-4.0882,-4.0882,-4.0882,-4.0882,-4.0882,-4.0882,-4.0882,-4.0882,-4.1025,-4.1331,-4.183,-4.2369,-4.3085,-4.3637,-4.4062,-4.4351,-4.4329,-4.4298,-4.384,-4.3425,-4.3163,-4.3163,-4.2721,-4.2721,-4.3163,-4.3184,-4.3441,-4.409,-4.4892,-4.5549,-4.6224,-4.6894,-4.7689,-4.8396,-5.0199,-5.1362,-1.5551,-1.5832,-1.6072,-1.6366,-1.6919,0.0,0.0,-1.8143,-1.8464,-1.8651,-1.8931,0.0,0.0,0.0,0.0,0.0,0.0,0.0,0.0,0.0,0.0,0.0,0.0,0.0,0.0,-2.6983,-2.6983,-2.6983,-2.6983,-2.6983,-2.6983,-2.6983,-2.6983,-2.6983,-2.7565,-2.813,-2.8835,-2.9409,-2.9822,-2.9822,-3.014,-3.1061,-3.2438,-3.3993,-3.6119,-3.8286,-3.8829,-3.9597,-4.0489,-4.0758,-4.0882,-4.0882,-4.0882,-4.0882,-4.0882,-4.0882,-4.0882,-4.0882,-4.0882,-4.0882,-4.0882,-4.0882,-4.0882,-4.0882,-4.0882,-4.0882,-4.0882,-4.0882,-4.0882,-4.0882,-4.0882,-4.0882,-4.0944,-4.1234,-4.1089,-4.0965,-4.1255,-4.1069,-4.0882,-4.0882,-4.0882,-4.0965,-4.1255,-4.1584,-4.1833,-4.227,-4.2894,-4.3435,-4.3745,-4.4041,-4.4438,-4.4582,-4.4582,-4.4517,-4.432,-4.4146,-4.3927,-4.3621,-4.3175,-4.3163,-4.3441,-4.3697,-4.425,-4.521,-4.6248,-4.7027,-4.7689,-4.8371,-4.9047,-4.9461,-5.1064,-5.2123,-1.5631,-1.5631,-1.5645,-1.6032,0.0,0.0,-1.8036,-1.8771,-1.9426,-1.972,-1.9933,0.0,0.0,0.0,0.0,0.0,0.0,0.0,0.0,0.0,0.0,0.0,0.0,0.0,-2.6983,-2.6983,-2.6983,-2.6983,-2.7129,-2.7274,-2.7274,-2.742,-2.7565,-2.771,-2.8418,-2.9122,-2.9965,-3.0676,-3.1525,-3.2228,-3.2123,-3.2386,-3.3085,-3.4353,-3.5951,-3.7646,-3.8247,-3.909,-4.0121,-4.0409,-4.0616,-4.0882,-4.0882,-4.0882,-4.0882,-4.0882,-4.0882,-4.0882,-4.0882,-4.0882,-4.0882,-4.0882,-4.0882,-4.0882,-4.0882,-4.0882,-4.0882,-4.0882,-4.0882,-4.0882,-4.0882,-4.0882,-4.0965,-4.1276,-4.111,-4.0965,-4.1276,-4.111,-4.0882,-4.0882,-4.0986,-4.1193,-4.1648,-4.2104,-4.2604,-4.3234,-4.3842,-4.422,-4.4387,-4.4808,-4.5041,-4.5041,-4.491,-4.4823,-4.4968,-4.4958,-4.4816,-4.445,-4.4258,-4.4013,-4.3836,-4.4366,-4.5187,-4.6405,-4.7581,-4.8502,-4.9152,-4.9822,-5.0359,-5.0639,-5.2026,-5.2828,-1.5404,-1.519,0.0,0.0,0.0,0.0,-1.8223,-1.9399,-2.0321,-2.0628,0.0,-2.0775,-2.1056,0.0,0.0,0.0,0.0,0.0,0.0,0.0,0.0,0.0,0.0,-2.6983,-2.6983,-2.6983,-2.6983,-2.6983,-2.742,-2.7695,-2.813,-2.8563,-2.8851,-2.9298,-2.9981,-3.0835,-3.1542,-3.2386,-3.3103,-3.3817,-3.4232,-3.4214,-3.378,-3.4627,-3.5681,-3.7173,-3.7173,-3.8107,-3.9657,-3.9657,-4.0206,-4.0882,-4.0882,-4.0882,-4.0882,-4.0882,-4.0882,-4.0882,-4.0882,-4.0882,-4.0882,-4.0882,-4.0882,-4.0882,-4.0882,-4.0882,-4.0882,-4.0882,-4.0882,-4.0882,-4.0882,-4.0882,-4.0882,-4.0882,-4.0882,-4.0882,-4.0882,-4.0882,-4.0882,-4.0882,-4.1255,-4.171,-4.2144,-4.2522,-4.313,-4.388,-4.4392,-4.4841,-4.5325,-4.5718,-4.6002,-4.6002,-4.5587,-4.5472,-4.591,-4.5899,-4.5669,-4.5549,-4.5943,-4.5576,-4.425,-4.4892,-4.5955,-4.7449,-4.8868,-4.99,-5.0588,-5.122,-5.1596,-5.1622,-5.2825,-5.34,-1.5645,-1.5792,0.0,0.0,0.0,0.0,0.0,-1.9853,0.0,0.0,0.0,-2.2326,-2.2112,0.0,0.0,0.0,0.0,0.0,0.0,0.0,0.0,0.0,0.0,-2.6735,-2.6969,-2.6983,-2.6983,-2.6983,-2.7565,-2.8274,-2.8835,-2.9552,-3.025,-3.0818,-3.1525,-3.2368,-3.3067,-3.3918,-3.4765,-3.5704,-3.584,-3.5431,-3.4627,-3.5059,-3.5801,-3.6737,-3.7034,-3.7746,-3.8759,-3.9672,-4.0348,-4.0882,-4.0882,-4.0882,-4.0882,-4.0882,-4.0882,-4.0882,-4.0882,-4.0882,-4.0882,-4.0882,-4.0882,-4.0882,-4.0882,-4.0882,-4.0882,-4.0882,-4.0882,-4.0882,-4.0882,-4.0882,-4.0965,-4.1276,-4.111,-4.0965,-4.1296,-4.111,-4.0882,-4.0882,-4.1543,-4.2104,-4.2564,-4.3446,-4.4292,-4.4931,-4.54,-4.5636,-4.5806,-4.5915,-4.6002,-4.6002,-4.5871,-4.6102,-4.6691,-4.7264,-4.7505,-4.7191,-4.7813,-4.7436,-4.5777,-4.6516,-4.7449,-4.8502,-4.9668,-5.0461,-5.0994,-5.1346,-5.1596,-5.1622,-5.2634,-5.3128,-1.5712,0.0,0.0,0.0,0.0,0.0,0.0,0.0,0.0,0.0,0.0,0.0,0.0,0.0,0.0,0.0,0.0,0.0,0.0,0.0,0.0,0.0,0.0,-2.7094,-2.7417,-2.7568,-2.7659,-2.7659,-2.8485,-2.9409,-3.0107,-3.0818,-3.1666,-3.2368,-3.2945,-3.3641,-3.4195,-3.4765,-3.5587,-3.6519,-3.6519,-3.6248,-3.5724,-3.6016,-3.6268,-3.6539,-3.7132,-3.7743,-3.8234,-3.9569,-4.0386,-4.0634,-4.082,-4.0882,-4.0882,-4.0882,-4.0882,-4.0882,-4.0882,-4.0882,-4.0882,-4.0882,-4.0882,-4.0882,-4.0882,-4.0882,-4.0882,-4.0882,-4.0882,-4.0882,-4.0882,-4.0882,-4.0944,-4.1234,-4.1069,-4.0944,-4.1378,-4.1376,-4.1167,-4.131,-4.1973,-4.2581,-4.3191,-4.4099,-4.4866,-4.549,-4.5853,-4.6002,-4.6151,-4.6448,-4.6596,-4.6743,-4.6891,-4.7332,-4.8064,-4.8766,-4.9251,-4.9121,-4.9543,-4.9438,-4.8209,-4.8206,-4.8763,-4.9694,-5.0588,-5.1094,-5.1372,-5.1471,-5.1721,-5.1872,-5.2576,-5.3118,0.0,0.0,0.0,0.0,0.0,0.0,0.0,0.0,0.0,0.0,0.0,0.0,0.0,0.0,0.0,0.0,0.0,-2.5154,-2.5447,0.0,0.0,0.0,-2.7493,-2.7909,-2.8201,-2.8643,-2.885,-2.8882,-2.9878,-3.0943,-3.1683,-3.2526,-3.3242,-3.3955,-3.437,-3.4646,-3.5059,-3.5333,-3.5879,-3.6519,-3.6519,-3.6789,-3.7079,-3.7079,-3.6944,-3.6539,-3.7365,-3.7722,-3.796,-3.9487,-4.0158,-4.0261,-4.0655,-4.0841,-4.0882,-4.0882,-4.0882,-4.0882,-4.0882,-4.0882,-4.0882,-4.0882,-4.0882,-4.0882,-4.0882,-4.0882,-4.0882,-4.0882,-4.0882,-4.0882,-4.0882,-4.1025,-4.1025,-4.1025,-4.1025,-4.1025,-4.1473,-4.1473,-4.1615,-4.1877,-4.2401,-4.3013,-4.3875,-4.4349,-4.4949,-4.5806,-4.5915,-4.6085,-4.6529,-4.7016,-4.7479,-4.7941,-4.8377,-4.8957,-4.9652,-5.034,-5.0944,-5.1122,-5.1414,-5.1418,-5.1096,-5.01,-4.9925,-5.0588,-5.122,-5.1596,-5.1596,-5.1596,-5.1846,-5.2121,-5.28,-5.3164,0.0,0.0,0.0,0.0,0.0,0.0,0.0,0.0,0.0,0.0,0.0,0.0,0.0,0.0,0.0,0.0,0.0,0.0,-2.5154,-2.5682,-2.6479,-2.7348,-2.8076,-2.8853,-2.9646,-2.9883,-3.0068,-3.0388,-3.1184,-3.2191,-3.3206,-3.4075,-3.4765,-3.547,-3.5606,-3.5743,-3.5743,-3.5879,-3.6152,-3.6519,-3.6519,-3.6789,-3.7482,-3.7213,-3.7079,-3.6944,-3.7179,-3.7556,-3.8173,-3.8788,-3.9578,-4.0241,-4.0323,-4.0572,-4.0882,-4.0882,-4.0882,-4.0882,-4.0882,-4.0882,-4.0882,-4.0882,-4.0882,-4.0882,-4.0882,-4.0882,-4.0882,-4.0882,-4.0882,-4.1025,-4.1331,-4.1331,-4.1473,-4.1735,-4.1594,-4.1331,-4.1473,-4.1756,-4.1877,-4.2018,-4.2685,-4.3193,-4.3422,-4.4142,-4.4634,-4.4888,-4.5216,-4.575,-4.6458,-4.7354,-4.8308,-4.9031,-4.9747,-5.0458,-5.1163,-5.1837,-5.2441,-5.259,-5.3263,-5.3166,-5.2282,-5.1023,-5.0588,-5.0994,-5.1346,-5.1596,-5.1596,-5.1846,-5.1996,-5.2121,-5.2748,-5.3075,0.0,0.0,0.0,0.0,0.0,0.0,0.0,0.0,0.0,0.0,0.0,0.0,0.0,0.0,0.0,0.0,0.0,0.0,-2.613,-2.6651,-2.7366,-2.8344,-2.9026,-2.9774,-3.076,-3.0937,-3.1149,-3.1361,-3.2097,-3.2838,-3.3601,-3.4315,-3.4854,-3.5391,-3.5391,-3.5391,-3.5391,-3.5605,-3.5838,-3.6222,-3.642,-3.6924,-3.7616,-3.7482,-3.7348,-3.7348,-3.7348,-3.7624,-3.8004,-3.8615,-3.9123,-3.962,-4.0054,-4.0365,-4.0593,-4.08,-4.0882,-4.0882,-4.0882,-4.0882,-4.0882,-4.0882,-4.0882,-4.0882,-4.0882,-4.0882,-4.0882,-4.0882,-4.1025,-4.1188,-4.1473,-4.1615,-4.1735,-4.2018,-4.1877,-4.1735,-4.2018,-4.2159,-4.23,-4.2581,-4.2938,-4.3317,-4.3534,-4.4112,-4.467,-4.52,-4.5587,-4.6245,-4.7485,-4.8724,-4.9747,-5.0458,-5.1303,-5.1861,-5.2441,-5.2991,-5.3547,-5.3804,-5.4077,-5.3922,-5.3347,-5.2102,-5.1531,-5.1372,-5.1471,-5.1721,-5.1872,-5.1996,-5.2245,-5.2615,-5.301,-5.3254,0.0,0.0,0.0,0.0,0.0,0.0,0.0,0.0,0.0,0.0,0.0,0.0,0.0,0.0,0.0,0.0,0.0,0.0,0.0,-2.8114,-2.8888,-2.9526,-3.0307,-3.0972,-3.1635,-3.1931,-3.2171,-3.2245,-3.2955,-3.3445,-3.3766,-3.4068,-3.4464,-3.4707,-3.4707,-3.4707,-3.4707,-3.5078,-3.5387,-3.5633,-3.6122,-3.6743,-3.736,-3.7493,-3.7688,-3.775,-3.7616,-3.7616,-3.7791,-3.845,-3.8792,-3.8916,-3.9682,-4.0096,-4.0282,-4.0634,-4.082,-4.0882,-4.0882,-4.0882,-4.0882,-4.0882,-4.0882,-4.0882,-4.0882,-4.0882,-4.0882,-4.1025,-4.1188,-4.1473,-4.1615,-4.1877,-4.2159,-4.2159,-4.2159,-4.23,-4.2581,-4.2721,-4.2861,-4.3163,-4.3184,-4.3294,-4.3687,-4.408,-4.4661,-4.5578,-4.6267,-4.7212,-4.8844,-5.0127,-5.1327,-5.205,-5.2879,-5.3427,-5.3725,-5.3997,-5.4267,-5.4645,-5.447,-5.4314,-5.421,-5.3295,-5.2459,-5.1878,-5.1773,-5.1846,-5.2121,-5.2245,-5.2492,-5.3132,-5.3132,-5.3349,0.0,0.0,0.0,0.0,0.0,0.0,0.0,0.0,0.0,0.0,0.0,0.0,0.0,0.0,0.0,0.0,0.0,0.0,0.0,-2.9526,-3.0307,-3.0936,-3.1744,-3.2403,-3.3038,-3.3223,-3.3398,-3.3785,-3.3863,-3.4187,-3.4556,-3.4576,-3.4707,-3.4707,-3.4707,-3.4707,-3.4707,-3.4766,-3.4785,-3.4916,-3.55,-3.6133,-3.6628,-3.7176,-3.7798,-3.8037,-3.775,-3.777,-3.8191,-3.8253,-3.8502,-3.8854,-3.8978,-3.9516,-4.0241,-4.0303,-4.0551,-4.0882,-4.0882,-4.0882,-4.0882,-4.0882,-4.0882,-4.0882,-4.0882,-4.0882,-4.1025,-4.1331,-4.1473,-4.1615,-4.23,-4.2441,-4.2581,-4.3023,-4.3023,-4.3023,-4.2721,-4.2861,-4.3163,-4.3184,-4.3184,-4.3206,-4.325,-4.3337,-4.3793,-4.4961,-4.6071,-4.7492,-4.9575,-5.1403,-5.2804,-5.3563,-5.4402,-5.4831,-5.4831,-5.4965,-5.4965,-5.4965,-5.502,-5.4759,-5.421,-5.4053,-5.3608,-5.2886,-5.226,-5.1996,-5.2121,-5.2615,-5.301,-5.3132,-5.3349,-5.3592,-1.8972,0.0,0.0,0.0,0.0,0.0,0.0,0.0,0.0,0.0,0.0,0.0,0.0,0.0,0.0,0.0,0.0,0.0,0.0,0.0,-3.1359,-3.1873,-3.2403,-3.2931,-3.3292,-3.3418,-3.3496,-3.3691,-3.3711,-3.3789,-3.3965,-3.3984,-3.3984,-3.3984,-3.3984,-3.3984,-3.3984,-3.4219,-3.4603,-3.4969,-3.5491,-3.6002,-3.6314,-3.7102,-3.7757,-3.8191,-3.8037,-3.8037,-3.8191,-3.8191,-3.8295,-3.8502,-3.875,-3.9102,-3.9516,-4.0034,-4.0344,-4.0551,-4.08,-4.0882,-4.0882,-4.0882,-4.0882,-4.0882,-4.0882,-4.1025,-4.1331,-4.1473,-4.1756,-4.2159,-4.2581,-4.2721,-4.3023,-4.3184,-4.3184,-4.3163,-4.3023,-4.3023,-4.3184,-4.3184,-4.3184,-4.3184,-4.3184,-4.3184,-4.3845,-4.5422,-4.6795,-4.8332,-5.0725,-5.2429,-5.3674,-5.4241,-5.4805,-5.5099,-5.5099,-5.5099,-5.5099,-5.5099,-5.5232,-5.5234,-5.4707,-5.4498,-5.434,-5.3968,-5.3071,-5.2562,-5.2615,-5.301,-5.3254,-5.3376,-5.3822,-5.408,-2.0536,-2.2928,-2.5227,0.0,0.0,0.0,0.0,0.0,0.0,0.0,0.0,0.0,0.0,0.0,0.0,0.0,0.0,0.0,0.0,0.0,-3.2403,-3.2676,-3.2931,-3.3165,-3.3418,-3.3418,-3.3418,-3.3418,-3.3418,-3.3418,-3.3418,-3.3418,-3.3418,-3.3418,-3.3418,-3.3418,-3.3418,-3.3877,-3.432,-3.4893,-3.53,-3.5747,-3.6126,-3.6862,-3.7467,-3.8026,-3.8129,-3.8191,-3.8191,-3.8191,-3.8191,-3.8212,-3.8543,-3.875,-3.8937,-3.962,-4.0034,-4.0261,-4.0593,-4.0779,-4.0882,-4.1025,-4.1025,-4.1025,-4.1167,-4.1452,-4.1615,-4.1756,-4.2159,-4.2581,-4.2721,-4.3023,-4.3184,-4.3184,-4.3184,-4.3184,-4.3184,-4.3184,-4.3184,-4.3184,-4.3184,-4.3184,-4.3184,-4.3272,-4.4044,-4.6161,-4.7609,-4.9403,-5.1787,-5.3427,-5.4402,-5.4645,-5.4939,-5.5099,-5.5099,-5.5099,-5.5099,-5.5232,-5.5498,-5.5472,-5.5365,-5.505,-5.4996,-5.4993,-5.399,-5.3528,-5.3562,-5.3551,-5.3673,-5.408,-5.4514,-5.4704,-2.0762,-2.3065,0.0,0.0,0.0,0.0,0.0,0.0,0.0,0.0,0.0,0.0,0.0,0.0,0.0,0.0,0.0,0.0,0.0,0.0,-3.3292,-3.3292,-3.3418,-3.3418,-3.3418,-3.3418,-3.3418,-3.3418,-3.3418,-3.3418,-3.3418,-3.3418,-3.3418,-3.3418,-3.3418,-3.3418,-3.3418,-3.369,-3.3961,-3.3981,-3.4608,-3.5228,-3.5636,-3.6036,-3.668,-3.755,-3.8005,-3.8191,-3.8191,-3.8191,-3.8191,-3.8191,-3.8212,-3.8481,-3.8854,-3.8895,-3.9454,-4.0199,-4.0241,-4.053,-4.1025,-4.1331,-4.1473,-4.1473,-4.1877,-4.2018,-4.2018,-4.2441,-4.2581,-4.2721,-4.3023,-4.3184,-4.3184,-4.3184,-4.3184,-4.3184,-4.3184,-4.3184,-4.3184,-4.3184,-4.3184,-4.3184,-4.3184,-4.3534,-4.456,-4.6607,-4.8449,-5.0482,-5.2504,-5.4132,-5.5099,-5.5099,-5.5099,-5.5099,-5.5099,-5.5099,-5.5232,-5.5604,-5.5604,-5.5736,-5.6,-5.571,-5.5577,-5.5666,-5.5328,-5.4981,-5.4772,-5.4581,-5.4731,-5.5328,-5.5355,-5.5355,-2.0908,0.0,0.0,0.0,0.0,0.0,0.0,0.0,0.0,0.0,0.0,0.0,0.0,0.0,0.0,0.0,0.0,0.0,0.0,0.0,0.0,-3.3418,-3.3418,-3.3418,-3.3418,-3.3418,-3.3418,-3.3418,-3.3418,-3.3418,-3.3418,-3.3418,-3.3418,-3.3418,-3.3418,-3.3544,-3.367,-3.3796,-3.4173,-3.4548,-3.4797,-3.5128,-3.5437,-3.5851,-3.6287,-3.666,-3.7405,-3.7902,-3.8191,-3.8191,-3.8191,-3.8191,-3.8191,-3.8274,-3.846,-3.875,-3.9247,-3.9806,-4.0116,-4.0672,-4.1331,-4.1473,-4.1615,-4.1877,-4.2018,-4.2159,-4.2441,-4.2581,-4.2721,-4.3023,-4.3184,-4.3184,-4.3184,-4.3184,-4.3184,-4.3184,-4.3184,-4.3184,-4.3324,-4.3441,-4.3697,-4.3974,-4.4112,-4.4793,-4.5964,-4.7748,-4.9469,-5.122,-5.2941,-5.4267,-5.5099,-5.5099,-5.5099,-5.5099,-5.5099,-5.5099,-5.5232,-5.5604,-5.5736,-5.6,-5.6132,-5.6263,-5.6313,-5.6359,-5.5854,-5.5498,-5.5284,-5.5068,-5.5193,-5.5437,-5.5817,-5.598,-2.055,0.0,0.0,0.0,0.0,0.0,0.0,0.0,0.0,0.0,0.0,0.0,0.0,0.0,0.0,0.0,0.0,0.0,0.0,0.0,0.0,-3.3418,-3.3418,-3.3418,-3.3418,-3.3418,-3.3418,-3.3418,-3.3418,-3.3418,-3.3418,-3.3418,-3.3418,-3.3544,-3.367,-3.3796,-3.4047,-3.4173,-3.4423,-3.4922,-3.5046,-3.517,-3.5438,-3.5749,-3.5976,-3.6142,-3.6763,-3.7384,-3.7964,-3.8129,-3.8191,-3.8191,-3.8191,-3.8191,-3.8212,-3.8636,-3.9135,-3.9716,-4.0167,-4.0948,-4.1756,-4.1898,-4.2018,-4.23,-4.23,-4.2581,-4.2861,-4.2861,-4.3023,-4.3184,-4.3184,-4.3184,-4.3184,-4.3302,-4.3441,-4.358,-4.3719,-4.3441,-4.3302,-4.3836,-4.4228,-4.4823,-4.553,-4.638,-4.7581,-4.9091,-5.07,-5.2154,-5.3376,-5.4537,-5.5099,-5.5099,-5.5099,-5.5099,-5.5099,-5.5099,-5.5232,-5.5736,-5.6,-5.6263,-5.6524,-5.6655,-5.6812,-5.6942,-5.6407,-5.603,-5.6007,-5.5817,-5.5817,-5.6007,-5.6414,-5.6604,0.0,0.0,0.0,0.0,0.0,0.0,0.0,0.0,0.0,0.0,0.0,0.0,0.0,0.0,0.0,0.0,0.0,0.0,0.0,0.0,0.0,-3.3418,-3.3418,-3.3418,-3.3418,-3.3418,-3.3418,-3.3418,-3.3418,-3.3418,-3.3418,-3.3418,-3.3544,-3.3922,-3.4173,-3.4423,-3.4423,-3.4797,-3.4922,-3.4922,-3.5294,-3.5418,-3.5418,-3.5418,-3.5666,-3.6101,-3.6101,-3.6618,-3.7508,-3.7964,-3.8171,-3.8191,-3.8191,-3.8191,-3.8325,-3.8549,-3.9269,-4.0204,-4.0498,-4.1231,-4.1997,-4.2419,-4.2581,-4.2721,-4.3023,-4.3184,-4.3184,-4.3184,-4.3184,-4.3184,-4.3184,-4.3184,-4.3324,-4.358,-4.3974,-4.4366,-4.48,-4.3974,-4.358,-4.4112,-4.4892,-4.5711,-4.704,-4.8243,-4.9455,-5.0837,-5.2042,-5.3078,-5.3971,-5.4697,-5.5099,-5.5099,-5.5099,-5.5099,-5.5099,-5.5099,-5.5365,-5.6132,-5.6132,-5.6394,-5.7174,-5.6942,-5.6942,-5.7174,-5.6942,-5.6942,-5.7174,-5.6604,-5.6631,-5.7174,-5.7174,-5.7174,-1.9461,0.0,0.0,0.0,0.0,0.0,0.0,0.0,0.0,0.0,0.0,0.0,0.0,0.0,0.0,0.0,0.0,0.0,0.0,0.0,0.0,-3.3418,-3.3418,-3.3418,-3.3418,-3.3418,-3.3418,0.0,-3.3418,-3.3418,-3.3418,-3.367,-3.3922,-3.4298,-3.4298,-3.4548,-3.4797,-3.4797,-3.5046,-3.5294,-3.5294,-3.5418,-3.5418,-3.5418,-3.55,-3.5625,-3.5976,-3.6453,-3.7032,-3.7488,-3.7881,-3.8191,-3.8191,-3.8304,-3.8549,-3.8681,-3.9193,-4.0032,-4.0507,-4.1156,-4.2011,-4.2473,-4.2861,-4.3023,-4.3184,-4.3184,-4.3184,-4.3184,-4.3184,-4.3184,-4.3184,-4.3184,-4.3302,-4.3974,-4.4481,-4.5142,-4.5843,-4.609,-4.609,-4.5866,-4.6382,-4.7351,-4.8573,-4.9756,-5.0971,-5.206,-5.3047,-5.3835,-5.4241,-5.4805,-5.5099,-5.5099,-5.5099,-5.5099,-5.5099,-5.5365,-5.5604,-5.6132,-5.6394,-5.6785,-5.7174,-5.7044,-5.7044,-5.7174,-5.7044,-5.7044,-5.7174,-5.7011,-5.7038,-5.7174,-5.7174,-5.7174,-1.9824,-2.0644,-2.1562,0.0,0.0,0.0,0.0,0.0,0.0,0.0,0.0,0.0,0.0,0.0,0.0,0.0,0.0,0.0,0.0,0.0,0.0,0.0,-3.3418,-3.3418,-3.3418,-3.3418,-3.3418,-3.3418,-3.3418,-3.3418,-3.3544,-3.4047,-3.4423,-3.4548,-3.4797,-3.4922,-3.5046,-3.517,-3.517,-3.5418,-3.5418,-3.5418,-3.5418,-3.5418,-3.5418,-3.5438,-3.5707,-3.6204,-3.6825,-3.7094,-3.7591,-3.8191,-3.8304,-3.857,-3.8681,-3.8946,-3.9508,-4.0222,-4.0657,-4.133,-4.221,-4.2471,-4.2849,-4.3184,-4.3184,-4.3184,-4.3184,-4.3184,-4.3184,-4.3184,-4.3302,-4.358,-4.3836,-4.464,-4.5572,-4.6358,-4.716,-4.7821,-4.8109,-4.7449,-4.7846,-4.8805,-5.0056,-5.1266,-5.2327,-5.3156,-5.3881,-5.4537,-5.4671,-5.4939,-5.5099,-5.5099,-5.5099,-5.5099,-5.5365,-5.5472,-5.5868,-5.6263,-5.6551,-5.6812,-5.7174,-5.7174,-5.7174,-5.7174,-5.7174,-5.7174,-5.7174,-5.7174,-5.7174,-5.7174,-5.7174,-5.7174,-2.0703,-2.1289,-2.1894,-2.1894,-2.2129,0.0,-2.334,-2.4512,0.0,0.0,0.0,0.0,0.0,0.0,0.0,0.0,0.0,0.0,0.0,0.0,0.0,0.0,-3.3359,-3.3359,-3.3359,-3.3398,-3.3418,-3.3418,-3.3418,-3.367,-3.4047,-3.4548,-3.4922,-3.4922,-3.5294,-3.5418,-3.5418,-3.5418,-3.5418,-3.5418,-3.5418,-3.5418,-3.5418,-3.5418,-3.5418,-3.5418,-3.5418,-3.5914,-3.6722,-3.6912,-3.7473,-3.8304,-3.8549,-3.8814,-3.8946,-3.9494,-4.0015,-4.0515,-4.0846,-4.1568,-4.2267,-4.2376,-4.2726,-4.3097,-4.3163,-4.3184,-4.3184,-4.3184,-4.3184,-4.3324,-4.3719,-4.4112,-4.464,-4.5731,-4.6917,-4.7977,-4.8632,-4.9307,-4.9565,-4.9023,-4.9257,-5.0102,-5.1357,-5.2569,-5.3504,-5.4105,-5.4654,-5.502,-5.5099,-5.5099,-5.5099,-5.5099,-5.5046,-5.5153,-5.5604,-5.5551,-5.5947,-5.6655,-5.6682,-5.6942,-5.7174,-5.7174,-5.7174,-5.7174,-5.7174,-5.7174,-5.7174,-5.7174,-5.7174,-5.7174,-5.7174,-5.7174,-2.1523,-2.1758,-2.1894,-2.1894,-2.168,0.0,-2.1699,-2.2715,0.0,0.0,0.0,0.0,0.0,0.0,0.0,0.0,0.0,0.0,0.0,0.0,0.0,0.0,-3.291,-3.291,-3.291,-3.3223,-3.3418,-3.3418,-3.367,-3.4047,-3.4673,-3.4797,-3.5046,-3.5294,-3.5418,-3.5418,-3.5418,-3.5418,-3.5418,-3.5418,-3.5418,-3.5418,-3.5418,-3.5418,-3.5418,-3.5418,-3.5665,-3.6122,-3.6666,-3.7403,-3.7971,-3.8549,-3.8681,-3.9078,-3.9494,-3.9625,-3.9952,-4.0345,-4.0869,-4.1131,-4.1415,-4.2158,-4.2485,-4.2638,-4.3053,-4.3184,-4.3184,-4.3184,-4.3184,-4.3302,-4.3974,-4.4618,-4.5414,-4.676,-4.8084,-4.9257,-5.0053,-5.0715,-5.122,-5.1068,-5.0715,-5.0768,-5.1743,-5.2334,-5.3008,-5.4053,-5.4314,-5.455,-5.5046,-5.5099,-5.5099,-5.5099,-5.4945,-5.4971,-5.5578,-5.5705,-5.6041,-5.6655,-5.6942,-5.7174,-5.7174,-5.7174,-5.7174,-5.7174,-5.7174,-5.7174,-5.7174,-5.7174,-5.7174,-5.7174,-5.7174,-5.7174,-2.3027,-2.2988,-2.2832,-2.2832,-2.2187,0.0,0.0,-2.2207,-2.3125,0.0,0.0,0.0,0.0,0.0,0.0,0.0,0.0,0.0,0.0,0.0,0.0,0.0,-3.248,-3.2559,-3.2773,-3.2988,-3.3203,-3.365,-3.4173,-3.4548,-3.4922,-3.4841,-3.5067,-3.5418,-3.5211,-3.519,-3.5418,-3.5418,-3.5418,-3.5418,-3.5418,-3.5418,-3.5418,-3.5418,-3.5541,-3.5665,-3.5788,-3.6308,-3.6896,-3.7233,-3.8018,-3.8891,-3.9125,-3.9363,-3.9757,-3.9888,-4.0149,-4.0301,-4.0563,-4.0804,-4.1087,-4.1568,-4.2027,-4.2464,-4.2726,-4.3244,-4.3697,-4.3997,-4.4112,-4.4388,-4.5051,-4.5843,-4.676,-4.7953,-4.9127,-5.0181,-5.0715,-5.122,-5.1596,-5.1596,-5.1346,-5.1324,-5.1736,-5.2175,-5.2694,-5.3269,-5.3844,-5.4314,-5.4602,-5.4916,-5.4994,-5.4971,-5.4787,-5.4863,-5.5252,-5.5537,-5.6057,-5.6482,-5.6882,-5.7174,-5.7174,-5.7174,-5.7174,-5.7174,-5.7174,-5.7174,-5.7174,-5.7174,-5.7174,-5.7174,-5.7174,-5.7038,-2.4687,-2.4434,-2.4023,-2.3926,-2.3008,-2.209,0.0,0.0,0.0,-2.3398,0.0,0.0,0.0,0.0,0.0,0.0,0.0,0.0,0.0,0.0,0.0,0.0,-3.1797,-3.1953,-3.2383,-3.25,-3.2962,-3.3644,-3.4285,-3.4697,-3.4902,-3.4902,-3.5045,-3.5418,-3.5066,-3.5066,-3.5418,-3.5418,-3.5418,-3.5418,-3.5418,-3.5418,-3.5418,-3.5418,-3.5665,-3.5932,-3.6055,-3.6512,-3.7121,-3.7228,-3.7992,-3.8937,-3.9433,-3.967,-3.9888,-4.0149,-4.0279,-4.0279,-4.0279,-4.0541,-4.0891,-4.0978,-4.1655,-4.242,-4.2557,-4.3436,-4.4503,-4.4914,-4.546,-4.5843,-4.6674,-4.7316,-4.8109,-4.9023,-5.0078,-5.0842,-5.112,-5.1346,-5.1596,-5.1596,-5.1596,-5.1596,-5.1596,-5.1988,-5.2354,-5.2485,-5.3269,-5.4053,-5.4027,-5.4471,-5.4708,-5.4497,-5.4469,-5.4645,-5.4907,-5.5464,-5.5915,-5.6305,-5.6848,-5.7174,-5.7174,-5.7174,-5.7174,-5.7174,-5.7174,-5.7174,-5.7174,-5.7174,-5.7174,-5.7174,-5.7065,-5.6766,-2.6055,-2.5547,-2.4824,-2.4453,-2.3672,-2.2812,-2.207,0.0,-2.2539,-2.2637,0.0,0.0,0.0,0.0,0.0,0.0,0.0,0.0,0.0,0.0,0.0,0.0,-3.043,-3.0605,-3.1055,-3.1663,-3.2296,-3.3095,-3.3497,-3.4042,-3.4817,-3.5169,-3.5376,-3.5418,-3.5376,-3.5376,-3.5418,-3.5418,-3.5418,-3.5418,-3.5418,-3.5418,-3.5418,-3.5685,-3.5911,-3.5932,-3.6545,-3.6832,-3.704,-3.7696,-3.8298,-3.8843,-3.9066,-3.9498,-4.0279,-4.0279,-4.0279,-4.0279,-4.0279,-4.0301,-4.0432,-4.0869,-4.1655,-4.2557,-4.3217,-4.4233,-4.5278,-4.5955,-4.6626,-4.7293,-4.8109,-4.8738,-4.9515,-5.0206,-5.0968,-5.1471,-5.1471,-5.1596,-5.1596,-5.1596,-5.1596,-5.1596,-5.1596,-5.1648,-5.1884,-5.2406,-5.2844,-5.326,-5.3426,-5.3763,-5.3892,-5.3942,-5.3747,-5.402,-5.4826,-5.5213,-5.5735,-5.6278,-5.6848,-5.7174,-5.7174,-5.7174,-5.7174,-5.7174,-5.7174,-5.7174,-5.7174,-5.7174,-5.7174,-5.7174,-5.6631,-5.6359,-2.7441,-2.668,-2.5723,-2.5293,-2.416,-2.2988,-2.2383,-2.2383,-2.2578,-2.2832,0.0,0.0,0.0,0.0,0.0,0.0,-2.3945,0.0,0.0,0.0,0.0,0.0,0.0,0.0,-2.9687,-3.0581,-3.1401,-3.1696,-3.218,-3.2854,-3.369,-3.4283,-3.4755,-3.5024,-3.5045,-3.5169,-3.5418,-3.5418,-3.5418,-3.5418,-3.5418,-3.5541,-3.5665,-3.5809,-3.6178,-3.6545,-3.6789,-3.7032,-3.7154,-3.7593,-3.8139,-3.8859,-3.8803,-3.9474,-4.0279,-4.0279,-4.0279,-4.0279,-4.0279,-4.0279,-4.041,-4.1441,-4.2215,-4.2906,-4.4414,-4.5657,-4.6626,-4.7425,-4.8109,-4.8763,-4.9307,-4.9822,-5.0308,-5.0715,-5.122,-5.1596,-5.1596,-5.1596,-5.1596,-5.1596,-5.1596,-5.1596,-5.1596,-5.1596,-5.18,-5.2213,-5.2655,-5.3071,-5.3488,-5.3651,-5.3858,-5.3894,-5.3654,-5.3717,-5.4105,-5.4878,-5.5518,-5.5762,-5.6658,-5.7174,-5.7174,-5.7174,-5.7174,-5.7174,-5.7174,-5.7174,-5.7174,-5.6848,-5.6685,-5.6658,-5.6414,-5.5925,-2.8496,-2.7617,-2.6582,-2.5898,-2.4609,-2.3359,-2.2812,-2.2773,-2.2988,-2.3398,-2.3828,0.0,0.0,0.0,-2.3926,-2.3809,0.0,-2.3711,0.0,0.0,0.0,0.0,0.0,0.0,0.0,-2.9569,-3.0286,-3.0406,-3.1106,-3.1912,-3.2813,-3.3767,-3.4403,-3.4755,-3.4879,-3.5086,-3.5418,-3.5418,-3.5418,-3.5418,-3.5541,-3.5665,-3.5932,-3.6055,-3.6423,-3.6932,-3.7032,-3.7154,-3.7374,-3.7374,-3.7964,-3.8838,-3.8838,-3.9427,-4.0279,-4.0279,-4.0279,-4.0279,-4.0279,-4.0367,-4.0716,-4.1839,-4.2749,-4.3621,-4.5559,-4.6931,-4.8084,-4.8893,-4.9565,-5.0232,-5.0487,-5.0741,-5.0968,-5.1246,-5.1471,-5.1596,-5.1596,-5.1596,-5.1596,-5.1596,-5.1596,-5.1596,-5.1721,-5.1721,-5.1846,-5.2121,-5.2615,-5.313,-5.3254,-5.3502,-5.3608,-5.3804,-5.353,-5.3466,-5.3646,-5.4569,-5.5301,-5.5627,-5.6604,-5.7174,-5.7174,-5.7174,-5.7174,-5.7174,-5.7174,-5.7174,-5.7174,-5.6577,-5.6224,-5.6061,-5.5871,-5.5328,-2.9004,-2.8281,-2.7324,-2.6055,-2.5059,-2.416,-2.332,-2.3437,-2.3867,-2.4297,-2.4727,-2.5156,-2.5605,-2.498,-2.4258,-2.3848,-2.3437,0.0,0.0,0.0,0.0,0.0,0.0,0.0,0.0,-2.8318,-2.9073,0.0,-3.0587,-3.1552,-3.2706,-3.401,-3.4734,-3.4755,-3.5169,-3.5418,-3.5418,-3.5418,-3.5418,-3.5418,-3.5665,-3.5932,-3.5932,-3.6545,-3.6932,-3.6932,-3.7275,-3.7374,-3.7374,-3.7374,-3.7964,-3.8838,-3.8838,-3.9427,-4.0279,-4.0279,-4.0279,-4.0279,-4.0279,-4.0585,-4.1111,-4.1924,-4.3235,-4.481,-4.6287,-4.793,-4.9643,-5.0334,-5.0968,-5.1596,-5.1596,-5.1596,-5.1596,-5.1596,-5.1596,-5.1596,-5.1596,-5.1596,-5.1596,-5.1596,-5.1596,-5.1721,-5.1996,-5.2121,-5.2121,-5.2121,-5.2642,-5.301,-5.2642,-5.2914,-5.3159,-5.3159,-5.3159,-5.3254,-5.3592,-5.4162,-5.503,-5.6197,-5.6848,-5.7174,-5.7174,-5.7174,-5.7174,-5.7174,-5.7174,-5.7174,-5.7174,-5.6577,-5.6007,-5.5437,-5.4813,-5.4514,-2.9883,-2.9355,-2.8613,-2.7344,-2.6562,-2.584,-2.4668,-2.4766,-2.5195,-2.5625,-2.6055,-2.6582,-2.7305,-2.6484,-2.5586,-2.5156,-2.4238,-2.3379,0.0,0.0,0.0,0.0,0.0,0.0,0.0,0.0,0.0,-2.868,-2.9282,-3.0212,-3.14,-3.2715,-3.3555,-3.3844,-3.4279,-3.4527,-3.4527,-3.4527,-3.4793,-3.5206,-3.5328,-3.5861,-3.6545,-3.6789,-3.7032,-3.7275,-3.7374,-3.7374,-3.7374,-3.7374,-3.7964,-3.8838,-3.8838,-3.9427,-4.0279,-4.0279,-4.0409,-4.0647,-4.1164,-4.1534,-4.2146,-4.3479,-4.4701,-4.5752,-4.7621,-4.9132,-5.0334,-5.0867,-5.122,-5.1596,-5.1596,-5.1596,-5.1596,-5.1596,-5.1721,-5.1996,-5.1996,-5.2094,-5.2218,-5.2218,-5.2218,-5.2342,-5.2342,-5.2615,-5.2738,-5.2738,-5.2983,-5.3105,-5.3227,-5.3105,-5.3132,-5.3349,-5.3227,-5.3227,-5.3592,-5.4134,-5.5003,-5.6224,-5.6495,-5.6766,-5.7174,-5.7174,-5.7174,-5.7174,-5.7174,-5.7174,-5.7174,-5.6197,-5.56,-5.5383,-5.4379,-5.389,-3.0781,-3.0351,-2.9766,-2.8633,-2.791,-2.7168,-2.6016,-2.6113,-2.6543,-2.6973,-2.7519,-2.8184,-2.9062,-2.8047,-2.6816,-2.6192,-2.4957,-2.385,0.0,-2.2636,0.0,0.0,0.0,0.0,0.0,0.0,-2.7381,-2.7883,-2.8615,0.0,0.0,-3.1787,-3.2685,-3.3141,-3.4025,-3.4539,-3.4539,-3.4658,-3.5008,-3.5591,-3.5544,-3.6097,-3.6932,-3.7032,-3.7154,-3.7374,-3.7374,-3.7374,-3.7396,-3.7571,-3.824,-3.911,-3.9264,-3.9941,-4.0777,-4.0409,-4.0777,-4.1399,-4.2166,-4.2789,-4.3529,-4.4848,-4.5966,-4.717,-4.8782,-5.0054,-5.0968,-5.1246,-5.1471,-5.1596,-5.1596,-5.1596,-5.1596,-5.1721,-5.1996,-5.2121,-5.2245,-5.2492,-5.2588,-5.2588,-5.2588,-5.2588,-5.2738,-5.2983,-5.3132,-5.3132,-5.3254,-5.3349,-5.3592,-5.3349,-5.3349,-5.3592,-5.3349,-5.3349,-5.3592,-5.4351,-5.5138,-5.5925,-5.6387,-5.6794,-5.7174,-5.7174,-5.7174,-5.7174,-5.7174,-5.7174,-5.7174,-5.6197,-5.5627,-5.5383,-5.4379,-5.3809]},{"header":{"parameterUnit":"m.s-1","parameterCategory":1,"la1":30.6,"la2":29.2853,"lo1":-89.7004,"lo2":-87.6739,"dy":0.0162,"dx":0.0183,"nx":112,"ny":82,"refTime":"2026-05-02T12:00:00:Z","depth":0,"parameterNumber":3,"parameterNumberName":"V-component_of_WINDS"},"data":[0.0,0.0,0.0,0.0,0.0,0.0,0.0,0.0,0.0,0.0,0.0,0.0,0.0,0.0,0.0,0.0,0.0,0.0,0.0,0.0,0.0,0.0,0.0,0.0,0.0,0.0,0.0,0.0,0.0,0.0,0.0,0.0,0.0,0.0,0.0,0.0,0.0,0.0,0.0,0.0,0.0,0.0,0.0,0.0,0.0,0.0,0.0,0.0,0.0,0.0,0.0,0.0,0.0,0.0,0.0,0.0,0.0,0.0,0.0,0.0,0.0,0.0,0.0,0.0,0.0,0.0,0.0,0.0,0.0,0.0,0.0,0.0,0.0,0.0,0.0,0.0,0.0,0.0,0.0,0.0,0.0,0.0,0.0,0.0,0.0,0.0,0.0,0.0,0.0,0.0,-6.7193,-7.3225,-7.9251,-8.186,-7.941,-7.7647,-7.4393,-6.9247,0.0,0.0,0.0,0.0,0.0,0.0,0.0,0.0,0.0,0.0,0.0,0.0,0.0,0.0,0.0,0.0,0.0,0.0,0.0,0.0,0.0,0.0,0.0,0.0,0.0,0.0,0.0,0.0,0.0,0.0,0.0,0.0,0.0,0.0,0.0,0.0,0.0,0.0,0.0,0.0,0.0,0.0,0.0,0.0,0.0,0.0,0.0,0.0,0.0,0.0,0.0,0.0,0.0,0.0,0.0,0.0,0.0,0.0,0.0,0.0,0.0,0.0,0.0,0.0,0.0,0.0,0.0,0.0,0.0,0.0,0.0,0.0,0.0,0.0,0.0,0.0,0.0,0.0,0.0,0.0,0.0,0.0,0.0,0.0,0.0,0.0,0.0,0.0,0.0,0.0,0.0,0.0,0.0,0.0,0.0,0.0,0.0,0.0,0.0,0.0,0.0,0.0,0.0,0.0,-6.9488,-7.7379,-8.1174,-8.2317,-8.0278,-7.8846,-7.5625,-6.998,0.0,0.0,0.0,0.0,0.0,0.0,0.0,0.0,0.0,0.0,0.0,0.0,0.0,0.0,0.0,0.0,0.0,0.0,0.0,0.0,0.0,0.0,0.0,0.0,0.0,0.0,0.0,0.0,0.0,0.0,0.0,0.0,0.0,0.0,0.0,0.0,0.0,0.0,0.0,0.0,0.0,0.0,0.0,0.0,0.0,0.0,0.0,0.0,0.0,0.0,0.0,0.0,0.0,0.0,0.0,0.0,0.0,0.0,0.0,0.0,0.0,0.0,0.0,0.0,0.0,0.0,0.0,0.0,0.0,0.0,0.0,0.0,0.0,0.0,0.0,0.0,0.0,0.0,0.0,0.0,0.0,0.0,0.0,0.0,0.0,0.0,0.0,0.0,0.0,0.0,0.0,0.0,0.0,0.0,0.0,0.0,0.0,0.0,0.0,0.0,0.0,0.0,0.0,-6.9792,-7.5128,-7.9969,-8.2092,-8.2241,-8.0223,-7.76,-7.3913,-6.8887,-6.3712,0.0,0.0,0.0,0.0,0.0,0.0,0.0,0.0,0.0,0.0,0.0,0.0,0.0,0.0,0.0,0.0,0.0,0.0,0.0,0.0,0.0,0.0,0.0,0.0,0.0,0.0,0.0,0.0,0.0,0.0,0.0,0.0,0.0,0.0,0.0,0.0,0.0,0.0,0.0,0.0,0.0,0.0,0.0,0.0,0.0,0.0,0.0,0.0,0.0,0.0,0.0,0.0,0.0,0.0,0.0,0.0,0.0,0.0,0.0,0.0,0.0,0.0,0.0,0.0,0.0,0.0,0.0,0.0,0.0,0.0,0.0,0.0,0.0,0.0,0.0,0.0,0.0,0.0,0.0,0.0,0.0,0.0,0.0,0.0,0.0,0.0,0.0,0.0,0.0,0.0,0.0,0.0,0.0,0.0,0.0,0.0,0.0,0.0,0.0,0.0,0.0,0.0,-7.5659,-7.9755,-8.1583,-8.2504,-8.1969,-7.9311,-7.5805,-7.1621,-6.6895,-6.1647,0.0,0.0,0.0,0.0,0.0,0.0,0.0,0.0,0.0,0.0,0.0,0.0,0.0,0.0,0.0,0.0,0.0,0.0,0.0,0.0,0.0,0.0,0.0,0.0,0.0,0.0,0.0,0.0,0.0,0.0,0.0,0.0,0.0,0.0,0.0,0.0,0.0,0.0,0.0,0.0,0.0,0.0,0.0,0.0,0.0,0.0,0.0,0.0,0.0,0.0,0.0,0.0,0.0,0.0,0.0,0.0,0.0,0.0,0.0,0.0,0.0,0.0,0.0,0.0,0.0,0.0,0.0,0.0,0.0,0.0,0.0,0.0,0.0,0.0,0.0,0.0,0.0,0.0,0.0,0.0,0.0,0.0,0.0,0.0,0.0,0.0,0.0,0.0,0.0,0.0,0.0,0.0,0.0,0.0,0.0,0.0,0.0,0.0,0.0,0.0,0.0,0.0,-7.6818,-8.0515,-8.2255,-8.2745,-8.1343,-7.7383,-7.3981,-6.9764,-6.4119,-5.906,0.0,0.0,0.0,0.0,0.0,0.0,0.0,0.0,0.0,0.0,0.0,0.0,0.0,0.0,0.0,0.0,0.0,0.0,0.0,0.0,0.0,0.0,0.0,0.0,0.0,0.0,0.0,0.0,0.0,0.0,0.0,0.0,0.0,0.0,0.0,0.0,0.0,0.0,0.0,0.0,0.0,0.0,0.0,0.0,0.0,0.0,0.0,0.0,0.0,0.0,0.0,0.0,0.0,0.0,0.0,0.0,0.0,0.0,0.0,0.0,0.0,0.0,0.0,0.0,0.0,0.0,0.0,0.0,0.0,0.0,0.0,0.0,0.0,0.0,0.0,0.0,0.0,0.0,0.0,0.0,0.0,0.0,0.0,0.0,0.0,0.0,0.0,0.0,0.0,0.0,0.0,0.0,0.0,0.0,0.0,0.0,0.0,0.0,0.0,0.0,0.0,0.0,-7.6697,-8.0166,-8.1088,-8.1497,-8.0098,-7.6002,-7.2434,-6.837,-6.3444,0.0,0.0,0.0,0.0,0.0,0.0,0.0,0.0,0.0,0.0,0.0,0.0,0.0,0.0,0.0,0.0,0.0,0.0,0.0,0.0,0.0,0.0,0.0,0.0,0.0,0.0,0.0,0.0,0.0,0.0,0.0,0.0,0.0,0.0,0.0,0.0,0.0,0.0,0.0,0.0,0.0,0.0,0.0,0.0,0.0,0.0,0.0,0.0,0.0,0.0,0.0,0.0,0.0,0.0,0.0,0.0,0.0,0.0,0.0,0.0,0.0,0.0,0.0,0.0,0.0,0.0,0.0,0.0,0.0,0.0,0.0,0.0,0.0,0.0,0.0,0.0,0.0,0.0,0.0,0.0,0.0,0.0,0.0,0.0,0.0,0.0,0.0,0.0,0.0,0.0,0.0,0.0,0.0,0.0,0.0,0.0,0.0,0.0,0.0,0.0,0.0,0.0,-7.0552,-7.5743,-7.9044,-7.969,-7.9998,-7.8537,-7.4653,-7.1063,-6.7066,-6.246,0.0,0.0,0.0,0.0,0.0,0.0,0.0,0.0,0.0,0.0,0.0,0.0,0.0,0.0,0.0,0.0,0.0,0.0,0.0,0.0,0.0,0.0,0.0,0.0,0.0,0.0,0.0,0.0,0.0,0.0,0.0,0.0,0.0,0.0,0.0,0.0,0.0,0.0,0.0,0.0,0.0,0.0,0.0,0.0,0.0,0.0,0.0,0.0,0.0,0.0,0.0,0.0,0.0,0.0,0.0,0.0,0.0,0.0,0.0,0.0,0.0,0.0,0.0,0.0,0.0,0.0,0.0,0.0,0.0,0.0,0.0,0.0,0.0,0.0,0.0,0.0,0.0,0.0,0.0,0.0,0.0,0.0,0.0,0.0,0.0,0.0,0.0,0.0,0.0,0.0,0.0,0.0,0.0,0.0,0.0,0.0,0.0,0.0,0.0,0.0,0.0,0.0,-6.949,-7.3972,-7.6972,-7.8272,-7.8445,-7.6933,-7.3303,-6.99,-6.5883,0.0,0.0,0.0,0.0,0.0,0.0,0.0,0.0,0.0,0.0,0.0,0.0,0.0,0.0,0.0,0.0,0.0,0.0,0.0,0.0,0.0,0.0,0.0,0.0,0.0,0.0,0.0,0.0,0.0,0.0,0.0,0.0,0.0,0.0,0.0,0.0,0.0,0.0,0.0,0.0,0.0,0.0,0.0,0.0,0.0,0.0,0.0,0.0,0.0,0.0,0.0,0.0,0.0,0.0,0.0,0.0,0.0,0.0,0.0,0.0,0.0,0.0,0.0,0.0,0.0,0.0,0.0,0.0,0.0,0.0,0.0,0.0,0.0,0.0,0.0,0.0,0.0,0.0,0.0,0.0,0.0,0.0,0.0,0.0,0.0,0.0,0.0,0.0,0.0,0.0,0.0,0.0,0.0,0.0,0.0,0.0,0.0,0.0,0.0,0.0,0.0,0.0,0.0,-6.7501,-7.2596,-7.5729,-7.5903,-7.645,-7.5583,-7.2529,-6.9827,-6.6268,-6.1513,0.0,0.0,0.0,0.0,0.0,0.0,0.0,0.0,0.0,0.0,0.0,0.0,0.0,0.0,0.0,0.0,0.0,0.0,0.0,0.0,0.0,0.0,0.0,0.0,0.0,0.0,0.0,0.0,0.0,0.0,0.0,0.0,0.0,0.0,0.0,0.0,0.0,0.0,0.0,0.0,0.0,0.0,0.0,0.0,0.0,0.0,0.0,0.0,0.0,0.0,0.0,0.0,0.0,0.0,0.0,0.0,0.0,0.0,0.0,0.0,0.0,0.0,0.0,0.0,0.0,0.0,0.0,0.0,0.0,0.0,0.0,0.0,0.0,0.0,0.0,0.0,0.0,0.0,0.0,0.0,0.0,0.0,0.0,0.0,0.0,0.0,0.0,0.0,0.0,0.0,0.0,0.0,0.0,0.0,0.0,0.0,0.0,0.0,0.0,0.0,0.0,0.0,-6.56,-7.0565,-7.3595,-7.3676,-7.4416,-7.3884,-7.1386,-6.9495,-6.6468,-6.1634,0.0,0.0,0.0,0.0,0.0,0.0,0.0,0.0,0.0,0.0,0.0,0.0,0.0,0.0,0.0,0.0,0.0,0.0,0.0,0.0,0.0,0.0,0.0,0.0,0.0,0.0,0.0,0.0,0.0,0.0,0.0,0.0,0.0,0.0,0.0,0.0,0.0,0.0,0.0,0.0,0.0,0.0,0.0,0.0,0.0,0.0,0.0,0.0,0.0,0.0,0.0,0.0,0.0,0.0,0.0,0.0,0.0,0.0,0.0,0.0,0.0,0.0,0.0,0.0,0.0,0.0,0.0,0.0,0.0,0.0,0.0,0.0,0.0,0.0,0.0,0.0,0.0,0.0,0.0,0.0,0.0,0.0,0.0,0.0,0.0,0.0,0.0,0.0,0.0,0.0,0.0,0.0,0.0,0.0,0.0,0.0,0.0,0.0,0.0,0.0,0.0,0.0,-6.3961,-6.8305,-7.109,-7.1819,-7.2515,-7.2051,-6.9964,-6.9069,-6.6452,-6.1417,0.0,0.0,0.0,0.0,0.0,0.0,0.0,0.0,0.0,0.0,0.0,0.0,0.0,0.0,0.0,0.0,0.0,0.0,0.0,0.0,0.0,0.0,0.0,0.0,0.0,0.0,0.0,0.0,0.0,0.0,0.0,0.0,0.0,0.0,0.0,0.0,0.0,0.0,0.0,0.0,0.0,0.0,0.0,0.0,0.0,0.0,0.0,0.0,0.0,0.0,0.0,0.0,0.0,0.0,0.0,0.0,0.0,0.0,0.0,0.0,-5.9917,-6.0098,0.0,0.0,0.0,0.0,0.0,0.0,0.0,0.0,0.0,0.0,0.0,0.0,0.0,0.0,0.0,0.0,0.0,0.0,0.0,0.0,0.0,0.0,0.0,0.0,0.0,0.0,0.0,0.0,0.0,0.0,0.0,0.0,0.0,0.0,0.0,0.0,0.0,0.0,0.0,0.0,-6.3124,-6.748,-7.0328,-7.1057,-7.1289,-7.0924,-6.9898,-6.8606,-6.5922,-6.1384,-5.7342,0.0,0.0,0.0,0.0,0.0,0.0,0.0,0.0,0.0,0.0,0.0,0.0,0.0,0.0,0.0,0.0,0.0,0.0,0.0,0.0,0.0,0.0,0.0,0.0,0.0,0.0,0.0,0.0,0.0,0.0,0.0,0.0,0.0,0.0,0.0,0.0,0.0,0.0,0.0,0.0,0.0,0.0,0.0,0.0,0.0,0.0,0.0,0.0,0.0,0.0,0.0,0.0,0.0,0.0,0.0,0.0,0.0,0.0,0.0,-6.3115,-6.2437,0.0,0.0,0.0,0.0,0.0,0.0,0.0,0.0,0.0,0.0,0.0,0.0,0.0,0.0,0.0,0.0,0.0,0.0,0.0,0.0,0.0,0.0,0.0,0.0,0.0,0.0,0.0,0.0,0.0,0.0,0.0,0.0,0.0,0.0,0.0,0.0,0.0,0.0,0.0,0.0,-6.2266,-6.6711,-6.9533,-7.0295,-7.0693,-7.0328,-6.8871,-6.8076,-6.5757,-6.1384,-5.7972,0.0,0.0,0.0,0.0,0.0,0.0,0.0,0.0,0.0,0.0,0.0,0.0,0.0,0.0,0.0,0.0,0.0,0.0,0.0,0.0,0.0,0.0,0.0,0.0,0.0,0.0,0.0,0.0,0.0,0.0,0.0,0.0,0.0,0.0,0.0,0.0,0.0,0.0,0.0,0.0,0.0,0.0,0.0,0.0,0.0,0.0,0.0,0.0,0.0,0.0,0.0,0.0,0.0,-6.4401,-6.5936,-6.6611,-6.8254,-6.9459,-7.0111,-6.7467,-6.5982,-6.5427,-6.6017,0.0,0.0,0.0,0.0,0.0,0.0,0.0,0.0,0.0,0.0,0.0,0.0,0.0,0.0,0.0,0.0,0.0,0.0,0.0,0.0,0.0,0.0,-6.646,-6.6546,-6.5294,-6.2939,-5.8862,0.0,0.0,0.0,0.0,0.0,0.0,0.0,0.0,0.0,0.0,0.0,-6.1646,-6.5922,-6.8771,-6.9533,-7.0129,-6.9732,-6.7777,-6.7512,-6.569,-6.155,-5.8634,-5.5819,0.0,0.0,0.0,0.0,0.0,0.0,0.0,0.0,0.0,0.0,0.0,0.0,0.0,0.0,0.0,0.0,0.0,0.0,0.0,0.0,0.0,0.0,0.0,0.0,0.0,0.0,0.0,0.0,0.0,0.0,0.0,0.0,-4.8191,-4.8447,0.0,0.0,0.0,0.0,0.0,0.0,0.0,0.0,0.0,0.0,0.0,0.0,0.0,-6.1136,-6.1591,-6.3961,-6.5164,-6.5128,-6.841,-6.998,-7.0094,-7.1751,-7.2946,-7.3686,-7.3992,0.0,-6.9781,-6.9763,0.0,0.0,0.0,0.0,0.0,0.0,0.0,0.0,0.0,0.0,0.0,0.0,0.0,0.0,0.0,0.0,0.0,0.0,0.0,0.0,0.0,0.0,-6.9937,-7.0437,-6.9327,-6.7832,-6.6971,-6.343,-5.9773,-5.7459,-5.499,-5.2529,0.0,0.0,0.0,0.0,0.0,0.0,-6.1391,-6.5313,-6.8042,-6.8771,-6.8904,-6.8606,-6.7711,-6.7049,-6.5326,-6.2212,-5.9893,-5.7574,-5.5289,-5.1711,0.0,0.0,0.0,0.0,0.0,0.0,0.0,0.0,0.0,0.0,0.0,0.0,0.0,0.0,0.0,0.0,0.0,0.0,0.0,0.0,0.0,0.0,0.0,0.0,0.0,0.0,0.0,0.0,0.0,-4.8063,-5.0332,-5.0858,-5.0906,-5.0693,0.0,0.0,0.0,0.0,0.0,0.0,0.0,0.0,0.0,-6.0456,-6.3326,-6.517,-6.5856,-6.8629,-7.0182,-7.0593,-7.3444,-7.5097,-7.5566,-7.6752,-7.7482,-7.7826,-7.8173,-7.7291,-7.534,-7.3323,-7.1336,-6.9311,0.0,0.0,0.0,0.0,-6.6768,-6.7911,-6.8334,-6.8677,-6.9095,-7.0043,0.0,0.0,0.0,0.0,0.0,0.0,0.0,-6.4758,-6.7836,-7.0129,-7.1802,-7.2467,-7.1615,-7.0446,-6.9854,-6.7318,-6.4179,-6.0961,-5.8065,-5.5384,-5.314,-5.0576,0.0,0.0,0.0,-5.8133,-6.1857,-6.506,-6.7281,-6.8009,-6.8076,-6.7777,-6.7049,-6.6717,-6.5624,-6.3537,-6.1715,-5.9926,-5.8171,-5.4593,-5.2108,0.0,0.0,0.0,0.0,0.0,0.0,0.0,0.0,0.0,0.0,0.0,0.0,0.0,0.0,0.0,0.0,0.0,0.0,0.0,0.0,0.0,0.0,0.0,0.0,0.0,0.0,0.0,0.0,-5.0078,-5.2511,-5.3417,-5.3464,-5.3312,0.0,0.0,0.0,0.0,0.0,0.0,-5.7936,-6.0417,-6.2457,-6.3895,-6.6894,-6.8916,-6.9832,-7.2417,-7.4112,-7.4954,-7.7256,-7.8672,-7.9321,-8.0124,-8.0506,-8.0506,-8.0506,-8.0162,-7.936,-7.6418,-7.4163,-7.241,-7.0281,-6.9756,-7.0144,-6.9393,-7.0308,-7.1978,-7.2546,-7.3113,-7.3833,-7.4857,-7.3027,-7.0252,-6.9256,0.0,0.0,0.0,0.0,-6.7076,-6.9405,-7.144,-7.3008,-7.3668,-7.3177,-7.2254,-7.1255,-6.9685,-6.7439,-6.3779,-6.0772,-5.8196,-5.6352,-5.3707,0.0,-5.4826,-5.6803,-5.9108,-6.2215,-6.4872,-6.6717,-6.7281,-6.7181,-6.685,-6.6287,-6.5889,-6.516,-6.3902,-6.261,-6.1318,-6.0059,-5.7011,-5.4692,-5.3235,0.0,0.0,0.0,0.0,0.0,0.0,0.0,0.0,0.0,0.0,0.0,0.0,0.0,0.0,0.0,0.0,0.0,0.0,0.0,0.0,0.0,0.0,0.0,0.0,0.0,0.0,0.0,0.0,0.0,-5.5928,-5.6006,0.0,0.0,0.0,0.0,-5.9542,-5.9833,-6.0592,-6.2277,-6.4736,-6.65,-6.7327,-6.975,-7.1703,-7.3129,-7.4696,-7.5872,-7.6609,-7.8366,-7.9245,-7.9321,-8.0124,-8.0506,-8.0506,-8.0506,-8.0468,-8.0315,-7.8557,-7.6728,-7.5014,-7.4137,-7.3687,-7.3573,-7.3497,-7.4975,-7.7017,-7.7055,-7.8609,-8.0504,-7.9784,-7.6413,-7.2295,-7.107,-6.8476,0.0,0.0,-6.9091,-6.9539,-7.1773,-7.2972,-7.3771,-7.4185,-7.4189,-7.3689,-7.2011,-7.0472,-6.8612,-6.586,-6.3286,-6.1058,-5.9739,0.0,-5.5884,-5.7627,-5.8698,-6.0044,-6.2216,-6.4906,-6.6519,-6.6585,-6.5955,-6.5525,-6.5492,-6.4233,-6.3107,-6.2345,-6.1583,-6.0821,-6.0026,-5.8469,-5.6945,-5.5487,-5.3202,0.0,0.0,0.0,0.0,0.0,0.0,0.0,0.0,0.0,0.0,0.0,0.0,0.0,0.0,0.0,0.0,0.0,0.0,0.0,0.0,0.0,0.0,0.0,0.0,0.0,0.0,0.0,0.0,-5.911,-5.9326,0.0,-5.9918,-5.9737,-6.0195,-6.174,-6.4273,-6.6027,-6.6661,-6.8917,-7.0617,-7.1501,-7.3278,-7.4703,-7.5772,-7.7241,-7.8097,-7.8366,-7.9513,-8.0047,-8.0086,-8.0353,-8.0506,-8.0506,-8.0506,-8.0468,-8.0392,-7.9782,-7.8523,-7.6808,-7.5894,-7.5436,-7.5471,-7.5962,-7.7362,-7.9064,-7.9594,-8.0687,-8.1536,-7.9811,-7.7167,-7.4383,-7.3165,-7.1451,-7.0077,-7.0811,-7.1122,-7.1629,-7.29,-7.3704,-7.4221,-7.494,-7.4977,-7.4404,-7.2762,-7.1654,-7.0196,-6.7867,-6.5432,-6.3228,-6.171,-6.0107,-5.9214,-5.9641,-6.0545,-6.1617,-6.2879,-6.4685,-6.5624,-6.516,-6.4895,-6.4564,-6.4067,-6.357,-6.3173,-6.2908,-6.2212,-6.1682,-6.1417,-5.9993,-5.8535,-5.7044,-5.4891,-5.234,0.0,0.0,0.0,0.0,0.0,0.0,0.0,0.0,0.0,0.0,0.0,0.0,0.0,0.0,0.0,0.0,0.0,0.0,0.0,0.0,0.0,0.0,0.0,0.0,0.0,0.0,-5.9331,-6.166,-6.2104,-6.253,-6.333,-6.3456,-6.3896,-6.4765,-6.7603,-6.9419,-6.9652,-7.1858,-7.3536,-7.4372,-7.561,-7.6801,-7.7873,-7.8818,-7.9436,-7.9704,-8.0238,-8.0506,-8.0506,-8.0506,-8.0506,-8.0506,-8.0468,-8.0431,-8.0392,-8.0275,-7.9588,-7.8484,-7.7792,-7.7673,-7.7973,-7.85,-7.9708,-8.1262,-8.1968,-8.2284,-8.2082,-8.0436,-7.8424,-7.6437,-7.5551,-7.4434,-7.3379,-7.3289,-7.3392,-7.3771,-7.4208,-7.4542,-7.4833,-7.5299,-7.5262,-7.4761,-7.3155,-7.2405,-7.1445,-6.9211,-6.6883,-6.4777,-6.3181,-6.2013,-6.1177,-6.0926,-6.1434,-6.208,-6.2808,-6.3968,-6.4498,-6.4001,-6.3769,-6.3438,-6.2941,-6.2444,-6.2179,-6.2179,-6.1483,-6.1086,-6.1086,-6.0158,-5.9065,-5.7806,-5.5156,-5.2302,-4.9391,0.0,0.0,0.0,0.0,0.0,0.0,0.0,0.0,0.0,0.0,0.0,0.0,0.0,0.0,0.0,0.0,0.0,0.0,0.0,0.0,0.0,0.0,0.0,-5.604,-5.9031,-6.1713,-6.3389,-6.4293,-6.5517,-6.7368,-6.6179,-6.6361,-6.8873,-6.9788,-7.056,-7.1255,-7.3562,-7.5159,-7.5818,-7.6701,-7.7873,-7.9389,-7.9358,-7.9704,-8.0506,-8.0506,-8.0506,-8.0506,-8.0506,-8.0506,-8.0506,-8.043,-8.0392,-8.0353,-8.0113,-7.9992,-7.9992,-7.9992,-8.0401,-8.1073,-8.111,-8.2172,-8.368,-8.419,-8.364,-8.2579,-8.2015,-8.0258,-7.8317,-7.8033,-7.7159,-7.6208,-7.6072,-7.6003,-7.5865,-7.555,-7.5478,-7.5406,-7.5226,-7.5153,-7.4725,-7.3119,-7.2762,-7.2086,-6.9734,-6.764,-6.5833,-6.4384,-6.2809,-6.1695,-6.1383,-6.1252,0.0,-6.208,-6.2808,-6.3272,-6.3239,-6.2577,-6.2146,-6.2113,-6.0788,-5.996,-5.996,-5.9264,-5.8866,-5.8899,-5.8866,-5.8535,-5.7806,-5.4262,-5.0946,-4.7803,0.0,0.0,0.0,0.0,0.0,0.0,0.0,0.0,0.0,0.0,0.0,0.0,0.0,0.0,0.0,0.0,0.0,0.0,0.0,0.0,0.0,0.0,-5.7448,-5.7719,-6.1147,-6.4022,-6.51,-6.6525,-6.7614,-6.822,-6.9048,-6.9866,-7.062,-7.2491,-7.3674,-7.3793,-7.5426,-7.6388,-7.6585,-7.7934,-7.8894,-7.932,-7.9893,-8.0277,-8.0506,-8.0506,-8.0506,-8.0506,-8.0506,-8.0468,-8.043,-8.0392,-8.0313,-8.0113,-8.0034,-7.9988,-7.9941,-7.9941,-8.0011,-8.022,-8.1301,-8.2632,-8.3903,-8.3817,-8.3097,-8.1941,-8.0859,-7.9423,-7.796,-7.7218,-7.656,-7.6072,-7.6003,-7.5796,-7.5621,-7.5478,-7.5406,-7.5119,-7.4475,-7.4332,-7.3832,-7.2193,-7.1695,-7.1016,-6.9182,-6.7488,-6.5891,-6.4699,-6.3616,-6.2481,-6.1335,-6.1633,-6.1947,-6.2146,-6.2808,-6.3073,-6.2543,-6.1815,-6.1185,-6.0655,-5.9728,-5.9198,-5.9198,-5.8502,-5.8336,-5.8866,-5.8369,-5.8005,-5.7806,-5.5104,-5.2448,0.0,0.0,0.0,0.0,0.0,0.0,0.0,0.0,0.0,0.0,0.0,0.0,0.0,0.0,0.0,0.0,0.0,0.0,0.0,0.0,0.0,0.0,-5.7545,-6.0696,-6.1427,-6.3614,-6.5474,-6.6282,-6.7898,-6.9117,-6.9552,-7.0884,-7.1703,-7.1742,-7.3702,-7.4834,-7.4707,-7.6114,-7.702,-7.7329,-7.8632,-7.9436,-7.978,-8.0277,-8.0506,-8.0506,-8.0506,-8.0506,-8.0506,-8.0506,-8.0468,-8.0392,-8.0353,-8.0195,-7.9992,-7.9988,-7.9903,-7.9854,0.0,0.0,0.0,0.0,-8.1979,-8.2536,-8.2238,-8.1615,-8.0775,-7.99,-7.8792,-7.7668,-7.7031,-7.6429,-7.5934,-7.5796,-7.5621,-7.5407,-7.5013,-7.4762,-7.4511,-7.369,-7.3512,-7.3084,-7.1588,-7.1053,-7.0367,-6.8767,-6.7113,0.0,-6.4518,-6.3484,-6.2411,-6.1285,-6.145,-6.1715,-6.1715,-6.2113,-6.2212,-6.1781,-6.1351,-6.0953,-6.0523,-5.9496,0.0,0.0,0.0,-5.7674,-5.8403,-5.8005,0.0,0.0,0.0,0.0,0.0,0.0,0.0,0.0,-4.8115,-4.9349,0.0,0.0,0.0,0.0,0.0,0.0,0.0,0.0,0.0,0.0,0.0,0.0,0.0,0.0,0.0,0.0,-6.0432,-6.4128,-6.5667,-6.6167,-6.659,-6.7321,-6.8821,-7.0194,-7.1056,-7.1981,-7.2547,-7.2662,-7.4048,-7.4861,-7.4712,0.0,0.0,0.0,0.0,-7.978,-8.0506,-8.0506,-8.0506,-8.0506,-8.0506,-8.0506,-8.0506,-8.0506,-8.0431,-8.0392,-8.0235,-8.0113,-7.995,-7.9903,-7.981,-7.9638,-7.9728,-8.0083,-8.0553,-8.081,-8.073,-8.0427,-8.0207,0.0,0.0,-7.9128,-7.8322,-7.7402,-7.7192,-7.6581,-7.5865,-7.555,-7.5478,-7.5227,-7.4225,-7.4011,-7.3797,-7.2869,-7.2584,-7.23,-7.1124,-7.0437,-6.9701,-6.83,-6.6562,-6.5091,-6.402,-6.2982,-6.1914,-6.1218,-6.1119,-6.1119,-6.1119,-6.1119,-6.1119,-6.1119,-6.1053,0.0,-6.0986,-5.9694,-5.8899,-5.8899,-5.7674,-5.7177,-5.7773,-5.7873,-5.7906,-5.7906,-5.7701,-5.6474,-5.4382,-5.4803,-5.4663,-5.4017,-5.2551,-5.2628,0.0,0.0,0.0,0.0,0.0,0.0,0.0,0.0,0.0,0.0,0.0,0.0,0.0,0.0,0.0,-5.8645,-6.259,-6.5513,-6.5859,-6.7667,-6.9013,-6.9167,-7.0052,-7.1014,-7.1887,-7.2773,-7.3542,-7.4197,-7.5042,-7.5526,-7.5494,-7.6978,-7.7831,-7.8022,-7.9474,-8.0353,-8.0506,-8.0506,-8.0506,-8.0506,-8.0506,0.0,-8.0506,-8.0506,-8.0392,-8.0235,-8.0195,-8.0072,-7.9941,-7.9898,-7.96,-7.9102,-7.9079,-7.9313,-7.965,-7.95,-7.9593,-7.9841,-7.969,-7.9471,-7.9128,-7.8347,-7.7683,-7.7156,-7.6436,-7.594,0.0,-7.5478,-7.5334,-7.5083,-7.4225,-7.4011,-7.3583,-7.2015,-7.1517,-7.1088,-6.9691,-6.8914,-6.8335,-6.7475,-6.5579,-6.4137,-6.37,-6.2813,-6.1914,-6.1218,-6.1119,-6.1119,-6.1119,-6.1119,-6.1119,-6.1119,-6.0589,-6.0225,-6.0225,-5.9396,-5.8899,-5.8899,-5.8634,-5.827,-5.7806,-5.8369,-5.8668,-5.8668,-5.8264,-5.779,-5.7364,-5.7116,-5.7566,-5.8421,-5.5798,-5.5458,0.0,0.0,0.0,0.0,0.0,0.0,0.0,0.0,0.0,0.0,0.0,-5.2236,-5.3909,0.0,-5.9552,-6.0748,-6.407,-6.6667,-6.709,-6.8975,-7.0167,-6.9744,-7.0398,-7.1245,-7.2129,-7.2976,-7.3822,-7.463,-7.5326,-7.5692,-7.5692,-7.7173,-7.8022,-7.8022,-7.9627,-8.0506,-8.0506,-8.0506,-8.0506,-8.0506,-8.0506,-8.0506,-8.0506,-8.0468,-8.0314,-8.0113,-7.995,-7.9778,-7.9592,-7.9406,-7.8991,-7.8596,-7.8312,-7.8256,-7.8242,-7.8014,-7.7961,-7.7968,-7.7939,-7.7807,-7.7668,-7.7067,-7.6755,-7.6475,-7.594,-7.5621,-7.5478,-7.5334,-7.5297,-7.4939,-7.3726,-7.3405,-7.2941,-7.1091,-7.0379,-6.991,-6.8774,-6.797,-6.7243,-6.6694,-6.5009,-6.3581,-6.3444,-6.2463,-6.1516,-6.1152,-6.1119,-6.1119,-6.1119,-6.1119,-6.1119,-6.1119,-6.0788,-6.0556,-6.0556,-5.986,-5.9297,-5.8933,-5.8899,-5.8899,-5.8899,-5.9264,-5.9463,-5.9463,-5.9383,-5.9133,-5.874,-5.9068,-5.9555,-6.0235,-5.9134,-5.9004,0.0,0.0,0.0,0.0,0.0,0.0,0.0,0.0,-5.0008,-5.1749,-5.4056,-5.6087,-5.703,-5.9707,-6.1986,-6.2767,-6.5408,-6.7667,-6.8552,-6.9937,-7.0667,-7.0014,-7.0514,-7.1321,-7.236,-7.3091,-7.3899,-7.4899,-7.5403,-7.5692,-7.5692,-7.702,-7.7831,-7.7984,-7.9474,-8.0353,-8.0506,-8.0506,-8.0506,-8.0506,-8.0506,-8.0506,-8.0468,-8.043,-8.0235,-7.9908,-7.9562,-7.9284,-7.9029,-7.8633,-7.8312,-7.794,-7.751,-7.7268,-7.6983,-7.6866,-7.6541,-7.6275,-7.6275,-7.6275,-7.6208,-7.6072,-7.5934,-7.5865,-7.555,-7.5478,-7.5406,-7.5297,-7.5225,-7.4832,-7.3155,-7.2727,-7.2193,-7.0202,-6.9344,-6.8787,-6.8083,-6.7243,-6.6457,-6.6095,-6.4614,-6.3272,-6.3272,-6.208,-6.1119,-6.1119,-6.1119,-6.1119,-6.1119,-6.1119,-6.1119,-6.1119,-6.1119,-6.1119,-6.1119,-6.0556,-5.996,-5.9363,-5.933,-5.9661,-6.039,-6.0423,-6.049,-6.0655,-6.0765,-6.0509,-5.9919,-6.0694,-6.1077,-6.1206,-6.1757,-6.1951,-4.9089,-5.0215,-5.2122,-5.2154,-5.3195,-5.3987,0.0,0.0,-5.438,-5.6116,-5.7949,-5.9725,-6.1292,-6.3085,-6.4563,-6.5341,-6.7064,-6.8552,-6.9436,-7.0321,-7.086,-7.0783,-7.086,-7.1552,-7.3206,-7.3437,-7.4168,-7.5745,-7.5749,-7.5692,-7.5692,-7.6446,-7.722,-7.7984,-7.8939,-7.978,-8.0506,-8.0506,-8.0506,-8.0506,-8.0506,-8.0468,-8.043,-8.0392,-8.0154,-7.9607,-7.9004,-7.8506,-7.8238,-7.794,-7.7651,-7.7255,-7.6956,-7.6672,-7.6409,-7.6578,-7.6512,-7.6275,-7.6275,-7.614,-7.6003,-7.6003,-7.5832,-7.555,-7.5478,-7.5334,-7.5189,-7.5225,-7.5225,-7.4759,-7.3047,-7.2476,-7.1794,-6.9582,-6.8628,-6.8083,-6.736,-6.6694,-6.6095,-6.5867,-6.4441,-6.3272,-6.3272,-6.208,-6.1119,-6.1119,-6.1119,-6.1119,-6.1119,-6.1119,-6.1119,-6.1119,-6.1119,-6.1119,-6.1119,-6.102,-6.0953,-6.0854,-6.0854,-6.1185,-6.1881,-6.1914,-6.2245,-6.2908,-6.2541,-6.2278,-6.2212,-6.1898,-6.2016,-6.2663,-6.2728,-6.2437,-5.2922,-5.3565,0.0,0.0,-5.697,-5.7809,-5.7942,-5.8066,-5.8539,-5.9793,-6.1395,-6.2959,-6.417,-6.5341,-6.6357,0.0,-6.8359,-6.9283,-6.9667,-7.0398,-7.0898,-7.0898,-7.0898,-7.1398,-7.2629,-7.3206,-7.3947,-7.511,-7.5487,-7.566,-7.5666,-7.6297,-7.7105,-7.7984,-7.8825,-7.9665,-8.0506,-8.0506,-8.0468,-8.0431,-8.0354,-8.0235,-8.0034,-7.9908,-7.9433,-7.8752,-7.8312,-7.794,-7.7592,-7.745,-7.7206,-7.6956,-7.6773,-7.6512,-7.6275,-7.6378,-7.6378,-7.6275,-7.614,-7.6072,-7.5934,-7.5762,-7.5621,-7.5478,-7.5334,-7.5262,-7.5225,-7.5225,-7.5225,-7.4759,-7.2902,-7.2148,-7.1352,-6.9053,-6.789,-6.7161,-6.661,-6.6095,-6.5658,-6.5603,-6.4353,-6.3272,-6.3272,-6.208,-6.1119,-6.1119,-6.1119,-6.1119,-6.1119,-6.1119,-6.1119,-6.1119,-6.1119,-6.1119,-6.1119,-6.1119,-6.1119,-6.1119,-6.1483,-6.1848,-6.2146,-6.2577,-6.2974,-6.3272,-6.2925,-6.2749,-6.254,-6.2606,-6.2782,-6.289,-6.3344,-6.3376,-5.5625,0.0,0.0,-5.9148,-6.0205,-6.1021,-6.166,-6.1632,-6.1743,-6.2589,-6.3743,-6.4859,-6.5743,-6.6359,-6.7128,-6.8244,-6.8936,-6.9513,-6.9975,-7.0514,-7.0898,-7.0898,-7.0898,-7.1129,-7.1755,-7.2794,-7.3764,-7.4551,-7.5264,-7.5666,-7.5599,-7.6071,-7.6761,-7.7602,-7.8481,-7.9321,-8.0162,-8.0391,-8.0431,-8.0353,-8.0116,-7.987,-7.9524,-7.915,-7.8559,-7.7883,-7.7666,-7.7365,-7.7056,-7.6929,-7.6801,-7.6672,-7.6578,-7.6445,-7.6275,-7.6275,-7.6275,-7.6275,-7.6072,-7.5934,-7.5901,-7.5621,-7.5478,-7.5406,-7.5262,-7.5225,-7.5189,-7.5116,-7.49,-7.4254,-7.2501,-7.1488,-7.0427,-6.8314,-6.7161,-6.6491,-6.6095,-6.5658,-6.5425,-6.5425,-6.4266,-6.3272,-6.3272,-6.208,-6.1119,-6.1119,-6.1119,-6.1119,-6.1119,-6.1119,-6.1119,-6.1119,-6.1119,-6.1185,-6.1384,-6.1417,-6.1483,-6.1682,-6.2179,-6.2577,-6.2775,-6.3305,-6.367,-6.3868,-6.3606,-6.3429,-6.3219,-6.3505,-6.3584,-6.3367,-6.3919,-6.4179,0.0,0.0,-6.0293,-6.1122,-6.2399,-6.3477,-6.3534,-6.3384,-6.3474,-6.4359,-6.4551,-6.4859,-6.5743,-6.5897,-6.6474,-6.8129,-6.8436,-6.9013,-7.0629,-7.0898,-7.0898,-7.0898,-7.0898,-7.0871,0.0,-7.2323,-7.3667,-7.4512,-7.52,-7.5599,-7.5599,-7.557,-7.5921,-7.6723,-7.7564,-7.8443,-7.9321,-8.0086,-8.0392,-8.0195,-7.9708,-7.9311,-7.9004,-7.8128,-7.7592,-7.7194,-7.6956,-7.6607,-7.6342,-7.6342,-7.6275,-7.6275,-7.6275,-7.6311,-7.6275,-7.6275,-7.6275,-7.6275,-7.6072,-7.5901,-7.5798,-7.5585,-7.5334,-7.5225,-7.5225,-7.5225,-7.5116,-7.4968,-7.4177,-7.3173,-7.1721,-7.0332,-6.8934,-6.7448,-6.661,-6.6095,-6.5867,-6.5603,-6.5425,-6.5425,-6.4266,-6.3272,-6.3272,-6.208,-6.1119,-6.1119,-6.1119,-6.1119,-6.1119,-6.1119,-6.1119,-6.1119,-6.1119,-6.1384,-6.208,-6.2146,-6.2444,-6.3173,-6.3239,-6.357,-6.4266,-6.4332,-6.4664,-6.5326,-6.5123,-6.5033,-6.5033,-6.4761,-6.4669,-6.4669,-6.4669,-6.4702,0.0,0.0,-6.1213,-6.2657,-6.3708,-6.4535,-6.5071,-6.511,-6.5128,-6.5397,-6.5013,-6.5013,-6.6436,-6.6244,-6.6628,-6.8898,-6.9244,-6.9667,-7.0744,-7.0898,-7.0898,-7.0898,-7.0382,0.0,0.0,0.0,0.0,-7.3552,-7.4331,-7.4992,-7.5532,-7.5535,-7.5844,-7.6685,-7.6991,-7.7795,-7.9171,-7.9362,-7.9505,-7.9652,-7.8866,-7.8346,-7.796,-7.751,-7.7181,-7.6893,-7.6773,-7.6512,-7.6275,-7.6275,-7.6275,-7.6275,-7.6275,-7.6275,-7.6275,-7.6275,-7.6208,-7.6072,-7.5901,-7.5868,-7.5727,-7.5442,-7.5297,-7.5225,-7.5225,-7.5225,-7.5116,-7.4819,-7.3916,-7.2647,-7.1097,-6.9495,-6.8046,-6.6778,-6.6009,-6.557,-6.5514,-6.5514,-6.5425,-6.5425,-6.4664,-6.3835,-6.3372,-6.2477,-6.1649,-6.1185,-6.1119,-6.1119,-6.1119,-6.1119,-6.1119,-6.1119,-6.1119,-6.1384,-6.2113,-6.2179,-6.2477,-6.3239,-6.3736,-6.4133,-6.4365,-6.4829,-6.5194,-6.5425,-6.5336,-6.5015,-6.4374,-6.4778,-6.4655,-6.3981,-6.4473,-6.4702,0.0,-6.1214,-6.2887,-6.3967,-6.4754,-6.5379,-6.5897,-6.5982,-6.5846,-6.5474,-6.4743,-6.4474,-6.5551,-6.532,-6.5705,-6.7975,-6.8859,-6.9513,-7.036,-7.0706,-7.0898,-7.0871,-7.0354,-7.022,0.0,0.0,0.0,-7.2576,-7.3691,-7.4537,-7.5004,-7.531,-7.573,-7.6265,-7.6532,-7.7148,-7.8142,-7.8174,-7.8246,-7.8228,-7.7552,-7.7156,-7.7082,-7.6866,-7.6737,-7.6607,-7.6512,-7.6445,-7.6275,-7.6275,-7.6275,-7.6275,-7.6275,-7.6275,-7.6275,-7.6208,-7.6072,-7.5934,-7.5868,-7.5727,-7.5657,-7.5297,-7.5225,-7.5225,-7.5116,-7.5042,-7.4894,-7.4329,-7.3167,-7.1638,-7.0381,-6.8659,-6.7064,-6.6196,-6.5692,-6.5425,-6.5425,-6.5425,-6.5492,-6.5757,-6.5227,-6.4597,-6.4133,-6.3007,-6.2013,-6.155,-6.1285,-6.1119,-6.1119,-6.1119,-6.1119,-6.1119,-6.1351,-6.1781,-6.251,-6.2808,-6.3272,-6.4001,-6.4498,-6.4763,-6.4763,-6.5194,-6.5425,-6.5425,-6.516,-6.4741,-6.4101,-6.4299,-6.4299,-6.389,-6.4383,-6.4745,-6.1451,-6.3482,-6.5351,-6.5269,-6.5683,-6.6119,-6.5974,-6.5928,-6.5625,-6.4614,-6.3666,-6.3051,0.0,0.0,-6.3705,-6.5551,-6.7282,-6.8706,-6.959,-7.0398,-7.0871,0.0,0.0,0.0,0.0,0.0,0.0,-7.1625,0.0,-7.4129,-7.4167,-7.4969,-7.5427,-7.5427,-7.6191,-7.6539,-7.635,-7.6748,-7.6654,-7.6111,-7.5861,-7.5963,-7.6239,-7.6275,-7.6275,-7.6275,-7.6275,-7.6275,-7.6275,-7.6275,-7.6275,-7.6275,-7.6275,-7.6275,-7.6275,-7.6072,-7.6003,-7.5934,-7.5798,-7.5657,-7.5478,-7.5297,-7.5225,-7.5116,-7.4968,-7.4744,-7.4441,-7.3782,-7.2024,-7.023,-6.9527,-6.7757,-6.6076,-6.578,-6.5603,-6.5425,-6.5425,-6.5425,-6.5624,-6.6386,-6.5955,-6.5459,-6.5425,-6.367,-6.2278,-6.2245,-6.1649,-6.1185,-6.1119,-6.1119,-6.1119,-6.1119,-6.1748,-6.2477,-6.3206,-6.3968,-6.4664,-6.5359,-6.5425,-6.5425,-6.5425,-6.5425,-6.5392,-6.5359,-6.473,-6.4332,-6.4266,-6.3603,-6.3637,-6.4332,-6.4365,-6.4763,-6.387,-6.6079,-6.7813,-6.7187,-6.7058,-6.6758,-6.5462,-6.5103,-6.4417,-6.2275,-6.0612,-5.9781,0.0,0.0,0.0,-6.4436,-6.6898,0.0,-6.959,-7.0343,0.0,0.0,0.0,-6.9889,-7.0547,-6.9948,0.0,0.0,-7.2046,-7.3267,-7.3878,-7.46,-7.4979,-7.4979,-7.5169,-7.5425,-7.5695,-7.5745,-7.5477,-7.4982,-7.5369,-7.5487,-7.5442,-7.6022,-7.6275,-7.6275,-7.6275,-7.6275,-7.6275,-7.6275,-7.6275,-7.6275,-7.6275,-7.6208,-7.6072,-7.6003,-7.5796,-7.5621,-7.5442,-7.5442,-7.5478,-7.5297,-7.5225,-7.5116,-7.4744,-7.437,-7.3834,-7.3066,-7.1541,-6.9916,-6.8884,-6.7513,-6.6268,-6.5647,-6.5425,-6.5425,-6.5425,-6.5425,-6.5624,-6.6386,-6.6353,-6.6055,-6.5492,-6.4531,-6.3637,-6.3073,-6.2842,-6.2345,-6.1251,-6.1119,-6.1119,-6.1119,-6.1748,-6.2477,-6.3206,-6.3968,-6.4664,-6.5359,-6.5425,-6.5425,-6.5425,-6.5425,-6.5194,-6.4664,-6.4465,-6.3835,-6.2742,-6.3107,-6.3372,-6.357,-6.4133,-6.4674,-6.5833,-6.7557,-6.8685,-6.785,-6.7561,-6.6973,-6.5269,-6.42,-6.286,-6.0311,-5.8072,0.0,0.0,0.0,0.0,0.0,0.0,0.0,-6.8921,-7.0085,-7.0758,0.0,-7.0094,0.0,-7.0281,-6.9798,-6.9579,0.0,-7.1105,-7.2206,-7.2922,-7.3552,-7.4072,-7.445,-7.445,-7.441,-7.4338,-7.4107,-7.3927,-7.3785,-7.4433,-7.4856,-7.5152,-7.5913,-7.6275,-7.6275,-7.6275,-7.6275,-7.6275,-7.6275,-7.6275,-7.6275,-7.6208,-7.6072,-7.6003,-7.5796,-7.5691,-7.5406,-7.5042,-7.4858,-7.4748,-7.4784,-7.4744,-7.4558,-7.4174,-7.3667,-7.3113,-7.2347,-7.1022,-6.957,-6.8473,-6.7321,-6.632,-6.5591,-6.5425,-6.5425,-6.5425,-6.5425,-6.5724,-6.6817,-6.7247,-6.7247,-6.6519,-6.5525,-6.4597,-6.3868,-6.3471,-6.2974,-6.2146,-6.2047,-6.2047,-6.2047,-6.2411,-6.2808,-6.3239,-6.367,-6.42,-6.4895,-6.4929,-6.5094,-6.5392,-6.5127,-6.4763,-6.4399,-6.3736,-6.3007,-6.2179,-6.2278,-6.2643,-6.3272,-6.3616,-6.42,-6.7565,-6.8601,-6.8992,-6.8026,-6.7598,-6.6917,-6.4784,-6.2849,-6.0745,-5.7901,0.0,-5.351,-5.3626,0.0,-5.6203,-5.9704,0.0,-6.6141,-6.7867,-6.9568,-7.0554,-7.0381,-7.0286,-7.0147,-6.9966,-6.9816,-6.9623,-6.9419,-7.0186,-7.1017,-7.1794,-7.2365,-7.3054,-7.3879,-7.3869,-7.3442,-7.2743,-7.2443,-7.2376,-7.2545,-7.3486,-7.4283,-7.4971,-7.5877,-7.6275,-7.6275,-7.6275,-7.6275,-7.6275,-7.6275,-7.6275,-7.6208,-7.6072,-7.5934,-7.5865,-7.555,-7.5406,-7.5262,-7.4669,-7.4139,-7.3677,-7.4061,-7.394,-7.3667,-7.3264,-7.2838,-7.2365,-7.1688,-7.0569,-6.9294,-6.8211,-6.733,-6.6452,-6.5624,-6.5425,-6.5425,-6.5425,-6.5492,-6.5955,-6.7347,-6.8208,-6.8473,-6.7744,-6.6552,-6.5425,-6.463,-6.3968,-6.357,-6.357,-6.3405,-6.3272,-6.3272,-6.3372,-6.3372,-6.3272,-6.3438,-6.3769,-6.4299,-6.4432,-6.4796,-6.5392,-6.4763,-6.4332,-6.4233,-6.2875,-6.2113,-6.2013,-6.1516,-6.1947,-6.3272,-6.3198,-6.3781,-6.9342,-7.0212,-7.0522,-6.8991,-6.8021,-6.6432,-6.2586,-5.9783,0.0,0.0,0.0,-4.8432,-4.9086,-5.051,0.0,-5.7011,0.0,0.0,0.0,0.0,-6.975,0.0,0.0,0.0,0.0,0.0,0.0,0.0,0.0,-6.9584,-7.1341,-7.1925,-7.2596,-7.3415,-7.3141,-7.2816,-7.2443,-7.2108,-7.1853,-7.1748,-7.3197,-7.3993,-7.4175,-7.5623,-7.6275,-7.6275,-7.6275,-7.6275,-7.6275,-7.6275,-7.6208,-7.6072,-7.6003,-7.5796,-7.555,-7.5334,-7.5042,-7.4669,-7.4018,-7.3345,-7.2901,-7.3229,-7.3113,-7.2666,-7.2279,-7.2205,-7.2045,-7.1017,-7.0697,-7.0159,-6.8235,-6.7546,-6.7082,-6.5724,-6.5425,-6.5425,-6.5425,-6.5889,-6.6585,-6.7446,-6.8208,-6.8473,-6.7744,-6.7413,-6.6784,-6.5425,-6.5127,-6.5061,-6.5061,-6.4001,-6.3272,-6.3272,-6.3835,-6.3935,-6.3338,-6.4365,-6.4862,-6.4399,-6.4895,-6.5293,-6.5425,-6.4763,-6.41,-6.3471,-6.261,-6.1881,-6.1285,-6.1748,-6.2411,-6.3272,-6.3902,-6.4365,-7.044,-7.0982,-7.0905,-6.9241,-6.8077,-6.6295,-6.2025,0.0,0.0,0.0,0.0,-4.5817,-4.6624,0.0,0.0,0.0,0.0,0.0,0.0,0.0,0.0,0.0,0.0,0.0,0.0,0.0,0.0,0.0,0.0,-6.9026,-7.0759,-7.1812,-7.2447,-7.2798,-7.2573,-7.2343,-7.2108,-7.1903,-7.1718,-7.1531,-7.2726,-7.3486,-7.3957,-7.5152,-7.5913,-7.6275,-7.6275,-7.6275,-7.6275,-7.6208,-7.6325,-7.6653,-7.6444,-7.6482,-7.6587,-7.579,-7.516,-7.4667,-7.3485,-7.2602,-7.1883,-7.1796,-7.1761,-7.183,-7.1919,-7.1931,-7.1867,-7.1593,-7.1213,-7.0494,-6.8672,-6.791,-6.7247,-6.5757,-6.5425,-6.5425,-6.5425,-6.5989,-6.6751,-6.7479,-6.8208,-6.8473,-6.7744,-6.7612,-6.7115,-6.5624,-6.5425,-6.5425,-6.5425,-6.4829,-6.4399,-6.4399,-6.4365,-6.42,-6.3868,-6.4133,-6.4332,-6.4365,-6.4697,-6.5028,-6.5392,-6.4763,-6.42,-6.3868,-6.3107,-6.2577,-6.2245,-6.2577,-6.314,-6.3868,-6.4112,-6.4497,-7.1098,-7.1291,-7.0905,-6.9241,-6.7806,-6.5732,-6.1404,-5.6829,0.0,0.0,0.0,-4.3739,-4.4624,0.0,0.0,0.0,0.0,0.0,0.0,0.0,0.0,0.0,0.0,0.0,0.0,0.0,0.0,0.0,0.0,0.0,-7.0327,-7.1728,-7.238,-7.2299,-7.224,-7.2061,-7.1816,-7.1755,-7.1656,-7.1531,-7.2327,-7.3052,-7.3704,-7.4682,-7.5442,-7.6058,-7.6239,-7.6275,-7.6275,-7.6072,-7.6403,-7.6983,-7.666,-7.6905,-7.7286,-7.6109,-7.5248,-7.4485,-7.31,-7.1932,-7.0973,-7.0809,-7.0934,-7.1185,-7.1639,-7.1855,-7.2033,-7.2274,-7.1914,-7.0958,-6.9169,-6.8274,-6.7446,-6.579,-6.5425,-6.5425,-6.5425,-6.5889,-6.6485,-6.7247,-6.7976,-6.8241,-6.7512,-6.7512,-6.7115,-6.5624,-6.5425,-6.5425,-6.5425,-6.5425,-6.5425,-6.5425,-6.4895,-6.4498,-6.4399,-6.3968,-6.3935,-6.4365,-6.4531,-6.4862,-6.5392,-6.473,-6.4365,-6.4365,-6.367,-6.3272,-6.3272,-6.3438,-6.3802,-6.4399,-6.4354,-6.4539,-7.1291,-7.1291,-7.0905,-6.9241,-6.6896,-6.3913,-5.9629,0.0,0.0,0.0,-4.3239,-4.1123,-4.2008,-4.2854,0.0,0.0,0.0,0.0,0.0,0.0,0.0,0.0,0.0,0.0,0.0,0.0,0.0,0.0,0.0,0.0,-7.0092,-7.15,-7.2299,-7.2299,-7.2,-7.1816,-7.1816,-7.1656,-7.1494,-7.1531,-7.2327,-7.2762,-7.2871,-7.4428,-7.5152,-7.5261,-7.5985,-7.6275,-7.6275,-7.6072,-7.6122,-7.6331,-7.6182,-7.6186,-7.6303,-7.5707,-7.4802,-7.3705,-7.2942,-7.1785,-7.0616,-7.107,-7.108,-7.0888,-7.0955,-7.1917,-7.2879,-7.2183,-7.2448,-7.225,-6.9434,-6.8639,-6.8042,-6.5922,-6.5425,-6.5425,-6.5425,-6.5459,-6.5724,-6.6485,-6.7214,-6.7479,-6.6751,-6.7181,-6.7115,-6.5624,-6.5425,-6.5425,-6.5425,-6.5425,-6.5425,-6.5425,-6.5359,-6.5061,-6.4432,-6.4895,-6.4995,-6.4399,-6.4962,-6.5359,-6.5425,-6.4697,-6.4332,-6.4365,-6.367,-6.3272,-6.3272,-6.3935,-6.4299,-6.4399,-6.5028,-6.509,-7.0402,-7.0905,-7.0905,-6.9159,-6.6758,-6.3681,-5.9395,0.0,0.0,-4.605,-4.2804,-4.0696,-4.1506,-4.1949,-4.3234,0.0,0.0,0.0,0.0,0.0,0.0,0.0,0.0,0.0,0.0,0.0,0.0,0.0,0.0,0.0,-6.9265,-7.0747,-7.1728,-7.1964,-7.1878,-7.1718,-7.1656,-7.1494,-7.1494,-7.1494,-7.182,-7.2219,-7.2726,-7.3378,-7.4211,-7.5152,-7.5442,-7.5841,-7.6275,-7.5901,-7.6014,-7.6518,-7.605,-7.6222,-7.6557,-7.5671,-7.4851,-7.3935,-7.2539,-7.1419,-7.0714,-7.0486,-7.0623,-7.0991,-7.1421,-7.1653,-7.1819,-7.1951,-7.1885,-7.1289,-6.9235,-6.7711,-6.6485,-6.5624,-6.5425,-6.5425,-6.5425,-6.5425,-6.5624,-6.6386,-6.7115,-6.738,-6.6651,-6.7148,-6.7115,-6.5624,-6.5425,-6.5425,-6.5425,-6.5425,-6.5425,-6.5425,-6.5425,-6.5293,-6.5028,-6.526,-6.5293,-6.5028,-6.526,-6.5425,-6.5425,-6.5127,-6.4995,-6.4995,-6.4697,-6.4564,-6.4564,-6.4862,-6.4995,-6.5028,-6.5114,-6.5099,-6.9314,-7.0397,-7.0761,-6.8806,-6.6135,-6.2905,0.0,0.0,-4.7991,-4.5591,-4.2563,-4.046,-4.0998,-4.0997,-4.185,-4.4728,0.0,0.0,0.0,0.0,0.0,0.0,0.0,0.0,0.0,0.0,0.0,0.0,0.0,0.0,-6.8564,-6.966,-7.0638,-7.1417,-7.1609,-7.1656,-7.1494,-7.1494,-7.1494,-7.1494,-7.1494,-7.182,-7.2364,-7.2581,-7.3342,-7.4428,-7.4645,-7.5014,-7.5453,-7.4903,-7.5111,-7.5689,-7.5078,-7.5206,-7.5536,-7.4571,-7.3763,-7.2793,-7.1319,-7.0609,-7.0196,-6.9898,-7.0129,-7.0693,-7.1455,-7.1455,-7.1322,-7.1852,-7.1156,-6.9997,-6.897,-6.7049,-6.5425,-6.5425,-6.5425,-6.5425,-6.5425,-6.5425,-6.5558,-6.6088,-6.6982,-6.7314,-6.6353,-6.6982,-6.7115,-6.5624,-6.5425,-6.5425,-6.5425,-6.5425,-6.5425,-6.5425,-6.5425,-6.5425,-6.5425,-6.5425,-6.5425,-6.5425,-6.5425,-6.5425,-6.5425,-6.5425,-6.5336,-6.5336,-6.5336,-6.5246,-6.5246,-6.5246,-6.5246,-6.5246,-6.5099,-6.4918,-6.8135,-6.9832,-7.0488,-6.7942,-6.4756,-6.1087,0.0,-5.1203,-4.6396,-4.4594,-4.203,-4.008,-3.9941,-3.9754,-4.0146,-4.1882,-4.3555,0.0,0.0,0.0,0.0,0.0,0.0,0.0,0.0,0.0,0.0,0.0,0.0,0.0,-6.8182,-6.8218,-6.8982,-7.0544,-7.1158,-7.1494,-7.1494,-7.1494,-7.1494,-7.1494,-7.1494,-7.1494,-7.1531,-7.2364,-7.2726,-7.2762,-7.3595,-7.3826,-7.3694,-7.3044,-7.3106,-7.3472,-7.2853,-7.257,-7.2394,-7.2211,-7.1026,-6.9477,-6.9203,-6.8892,-6.8837,-6.9566,-6.9798,-6.9931,-7.0693,-7.1421,-7.1985,-7.2018,-7.0428,-6.8705,-6.8672,-6.7049,-6.5425,-6.5425,-6.5425,-6.5425,-6.5425,-6.5425,-6.5425,-6.5425,-6.6618,-6.7148,-6.569,-6.6651,-6.7115,-6.5624,-6.5425,-6.5425,-6.5425,-6.5425,-6.5425,-6.5425,-6.5425,-6.5425,-6.5425,-6.5425,-6.5425,-6.5425,-6.5425,-6.5425,-6.5425,-6.5425,-6.5336,-6.5099,-6.5099,-6.5008,-6.4702,-6.4702,-6.4702,-6.4702,-6.4702,-6.461,-6.4663,-6.636,-6.7186,-6.5072,-6.2429,-5.9342,-5.5638,-5.0602,-4.6263,-4.4363,-4.1795,-3.984,-3.9702,-3.9537,-3.9951,-4.1638,-4.2827,0.0,0.0,0.0,0.0,0.0,0.0,0.0,0.0,0.0,0.0,0.0,0.0,0.0,-6.7382,-6.781,-6.8802,-7.0397,-7.0687,-7.0987,-7.1494,-7.1494,-7.1494,-7.1494,-7.1494,-7.1494,-7.1531,-7.1748,-7.2183,-7.2726,-7.285,-7.3254,-7.3627,-7.2762,-7.2343,-7.2116,-7.1353,-7.0906,-7.0603,-7.0509,-7.0209,-6.965,-6.9058,-6.8765,-6.8639,-6.8374,-6.8639,-6.9003,-6.8738,-6.9169,-6.9633,-6.9136,-6.8142,-6.7214,-6.7214,-6.632,-6.5425,-6.5425,-6.5425,-6.5425,-6.5425,-6.5425,-6.5425,-6.5425,-6.6187,-6.6552,-6.5591,-6.622,-6.6552,-6.5558,-6.5425,-6.5425,-6.5425,-6.5425,-6.5425,-6.5425,-6.5425,-6.5425,-6.5425,-6.5425,-6.5425,-6.5425,-6.5425,-6.5425,-6.5425,-6.5246,-6.5189,-6.5099,-6.4918,-6.4793,-6.4702,-6.4702,-6.461,-6.4426,-6.4426,-6.4333,0.0,-6.2783,-6.3669,-6.1843,-5.9388,-5.6629,-5.3483,-4.899,-4.512,-4.3558,-4.1306,-3.9585,-3.9452,-3.9219,-3.9611,-4.1282,-4.195,0.0,0.0,0.0,0.0,0.0,0.0,0.0,0.0,0.0,0.0,0.0,0.0,0.0,-6.6903,-6.7316,-6.8162,-6.943,-7.0082,-7.0625,-7.106,-7.135,-7.1494,-7.1494,-7.1494,-7.1494,-7.1494,-7.1494,-7.1784,-7.2255,-7.2098,-7.2155,0.0,-7.1445,-7.0826,-7.0333,-6.968,-6.9021,-6.8572,-6.8572,-6.8374,-6.8076,-6.7612,-6.7645,-6.7811,-6.7347,-6.7711,-6.8142,-6.7446,-6.7711,-6.8208,-6.7744,-6.7082,-6.6519,-6.6519,-6.5955,-6.5425,-6.5425,-6.5425,-6.5425,-6.5425,-6.5425,-6.5425,-6.5425,-6.6022,-6.6287,-6.5558,-6.6022,-6.6254,-6.5525,-6.5425,-6.5425,-6.5425,-6.5425,-6.5425,-6.5425,-6.5425,-6.5425,-6.5425,-6.5425,-6.5425,-6.5425,-6.5425,-6.5425,-6.5425,-6.5189,-6.5008,-6.4918,-6.4702,-6.4518,-6.4426,-6.4426,-6.4333,-6.4146,-6.4146,-6.4085,0.0,-5.8912,-5.9911,-5.8227,-5.5844,-5.3211,-5.0579,-4.6678,0.0,-4.2397,-4.064,-3.9245,-3.911,-3.8936,-3.9313,-4.0928,-4.1258,0.0,0.0,0.0,0.0,0.0,0.0,0.0,0.0,0.0,0.0,0.0,0.0,0.0,-6.6822,-6.6786,-6.7148,-6.7909,-6.943,-7.0263,-7.0372,-7.106,-7.1458,-7.1494,-7.1494,-7.1494,-7.1494,-7.1494,-7.1494,-7.1494,-7.134,-7.0913,-7.027,-6.9562,-6.8933,-6.8349,-6.7742,-6.7045,-6.6452,-6.6452,-6.6022,-6.5425,-6.5425,-6.5856,-6.6452,-6.6485,-6.6949,-6.7347,-6.6717,-6.7016,-6.7546,-6.7479,-6.6982,-6.6452,-6.6452,-6.5922,-6.5425,-6.5425,-6.5425,-6.5425,-6.5425,-6.5425,-6.5425,-6.5425,-6.5955,-6.622,-6.5525,-6.5989,-6.622,-6.5525,-6.5425,-6.5425,-6.5425,-6.5425,-6.5425,-6.5425,-6.5425,-6.5425,-6.5425,-6.5425,-6.5425,-6.5425,-6.5425,-6.5425,-6.5425,-6.5189,-6.4918,-6.4702,-6.4426,-6.4146,-6.4024,-6.4024,-6.4024,-6.4024,-6.4024,-6.4024,-4.9224,0.0,-5.5508,-5.4293,-5.3009,-5.132,0.0,-4.5622,-4.3165,0.0,0.0,-3.9175,-3.8979,-3.9289,-4.012,-4.1772,0.0,0.0,0.0,0.0,0.0,0.0,0.0,0.0,0.0,0.0,0.0,0.0,0.0,-6.6845,-6.6786,-6.6786,-6.6895,-6.7076,-6.8054,-6.914,-7.0372,-7.0553,-7.0951,-7.1494,-7.1494,-7.1494,-7.1494,-7.1494,-7.1494,-7.1494,-7.1045,-7.0475,-6.9885,-6.8973,-6.8039,-6.7066,-6.6589,-6.6101,-6.5657,-6.5657,-6.5558,-6.5425,-6.5425,-6.5525,-6.5757,-6.6353,-6.6254,-6.6022,-6.6386,-6.6651,-6.6651,-6.6088,-6.5823,-6.5657,-6.5657,-6.5558,-6.5425,-6.5425,-6.5425,-6.5425,-6.5425,-6.5425,-6.5425,-6.5425,-6.5558,-6.5624,-6.5459,-6.5558,-6.5624,-6.5459,-6.5425,-6.5425,-6.5425,-6.5425,-6.5425,-6.5425,-6.5425,-6.5425,-6.5425,-6.5425,-6.5425,-6.5425,-6.5425,-6.5425,-6.5425,-6.4976,-6.4793,-6.4702,-6.4272,-6.3991,-6.4024,-6.4024,-6.4024,-6.4024,-6.4024,-6.4024,-4.6228,-4.8846,-5.0961,-5.0355,-4.9478,-4.8218,-4.6355,0.0,0.0,0.0,0.0,0.0,-3.9379,0.0,0.0,0.0,0.0,0.0,0.0,0.0,0.0,0.0,0.0,0.0,0.0,0.0,0.0,0.0,0.0,-6.6786,-6.6786,-6.6786,-6.6786,-6.6786,-6.7221,-6.8054,-6.9285,-7.0009,-7.0589,-7.0987,-7.1286,-7.1404,-7.124,-7.1175,-7.111,-7.1015,-7.0443,-6.9849,-6.92,-6.825,-6.7325,-6.6406,-6.6095,-6.5746,-6.5425,-6.5425,-6.5425,-6.5425,-6.5425,-6.5425,-6.5492,-6.5889,-6.5757,-6.5492,-6.5889,-6.6022,-6.5922,-6.5525,-6.5425,-6.5425,-6.5425,-6.5425,-6.5425,-6.5425,-6.5425,-6.5425,-6.5425,-6.5425,-6.5425,-6.5425,-6.5425,-6.5425,-6.5425,-6.5425,-6.5425,-6.5425,-6.5425,-6.5425,-6.5425,-6.5425,-6.5425,-6.5425,-6.5425,-6.5425,-6.5425,-6.5425,-6.5425,-6.5425,-6.5425,-6.5336,-6.5279,-6.4885,-6.461,-6.4333,-6.4085,-6.4024,-6.4024,-6.4024,-6.3929,-6.3802,-6.3707,-6.3612,-4.5095,-4.6334,-4.717,-4.7359,-4.6676,-4.5656,-4.467,0.0,0.0,0.0,0.0,0.0,0.0,0.0,0.0,0.0,0.0,0.0,0.0,0.0,0.0,0.0,0.0,0.0,0.0,0.0,0.0,0.0,0.0,-6.6786,-6.6786,-6.6786,-6.6786,-6.6786,-6.6786,-6.7148,-6.78,-6.9285,-7.0082,-7.0191,-7.069,-7.0858,-7.0734,-7.0468,-7.0336,-7.0166,-6.967,-6.9013,-6.8293,-6.7535,-6.6745,-6.6009,-6.578,-6.5603,-6.5425,-6.5425,-6.5425,-6.5425,-6.5425,-6.5425,-6.5425,-6.5425,-6.5425,-6.5425,-6.5425,-6.5425,-6.5425,-6.5425,-6.5425,-6.5425,-6.5425,-6.5425,-6.5425,-6.5425,-6.5425,-6.5425,-6.5425,-6.5425,-6.5425,-6.5425,-6.5425,-6.5425,-6.5425,-6.5425,-6.5425,-6.5425,-6.5425,-6.5425,-6.5336,-6.5336,-6.5336,-6.5336,-6.5336,-6.5336,-6.5336,-6.5336,-6.5336,-6.5336,-6.5336,-6.5246,-6.5008,-6.4793,-6.4426,-6.4024,-6.4024,-6.4024,-6.4024,-6.4024,-6.3802,-6.3484,-6.3292,-6.3033,-4.3484,-4.5189,-4.6587,-4.7641,-4.7716,-4.7074,-4.5361,0.0,0.0,0.0,0.0,0.0,0.0,0.0,0.0,0.0,0.0,0.0,0.0,0.0,0.0,0.0,0.0,0.0,0.0,0.0,0.0,0.0,0.0,-6.6786,-6.6786,-6.6786,-6.6786,-6.6786,-6.6786,-6.6858,-6.7003,-6.7909,-6.8706,-6.9358,-6.9156,-6.9196,-6.9475,-6.9136,-6.9035,-6.9056,-6.8676,-6.798,-6.7257,-6.6711,-6.6148,-6.5481,-6.5514,-6.5425,-6.5425,-6.5425,-6.5425,-6.5425,-6.5425,-6.5425,-6.5425,-6.5425,-6.5425,-6.5425,-6.5425,-6.5425,-6.5425,-6.5425,-6.5425,-6.5425,-6.5425,-6.5425,-6.5425,-6.5425,-6.5425,-6.5425,-6.5425,-6.5425,-6.5425,-6.5425,-6.5425,-6.5425,-6.5425,-6.5425,-6.5425,-6.5425,-6.5425,-6.5336,-6.5189,-6.5099,-6.5099,-6.4885,-6.4793,-6.4793,-6.4793,-6.4793,-6.4793,-6.4793,-6.4976,-6.4918,-6.4426,-6.4426,-6.424,-6.4024,-6.4024,-6.4024,-6.4024,-6.4024,-6.3707,-6.3293,-6.3249,-6.3003,-4.325,-4.4653,-4.587,-4.7262,-4.793,-4.7749,-4.6055,0.0,0.0,0.0,0.0,0.0,0.0,0.0,0.0,0.0,0.0,0.0,0.0,0.0,0.0,0.0,0.0,0.0,0.0,0.0,0.0,0.0,-6.6786,-6.6786,-6.6786,-6.6786,-6.6786,-6.6786,-6.6786,-6.6786,-6.6786,-6.7184,-6.7764,-6.8561,-6.8526,-6.8463,-6.8282,-6.8293,-6.8068,-6.7592,-6.7684,-6.7291,-6.6627,-6.6235,-6.5834,-6.5425,-6.5425,-6.5425,-6.5425,-6.5425,-6.5425,-6.5425,-6.5425,-6.5425,-6.5425,-6.5425,-6.5425,-6.5425,-6.5425,-6.5425,-6.5425,-6.5425,-6.5425,-6.5425,-6.5425,-6.5425,-6.5425,-6.5425,-6.5425,-6.5425,-6.5425,-6.5425,-6.5425,-6.5425,-6.5425,-6.5425,-6.5425,-6.5425,-6.5425,-6.5425,-6.5336,-6.5189,-6.5099,-6.5008,-6.4793,-6.4702,-6.4702,-6.4702,-6.4702,-6.4702,-6.4702,-6.4702,-6.4702,-6.4518,-6.4333,-6.4146,-6.3991,-6.3802,-6.3612,-6.3517,-6.3293,-6.3196,-6.2905,-6.2315,-6.2441,-6.2136,-4.3,-4.418,-4.5287,-4.6653,0.0,-4.8163,-4.6875,-4.5588,0.0,0.0,0.0,0.0,0.0,0.0,0.0,0.0,0.0,0.0,0.0,0.0,0.0,0.0,0.0,0.0,0.0,0.0,0.0,-6.6786,-6.6786,-6.6786,-6.6786,-6.6786,-6.6786,-6.6786,-6.6727,-6.6727,-6.6668,-6.6608,-6.6993,-6.7728,-6.7752,-6.7558,-6.7057,-6.7088,-6.6831,-6.6233,-6.652,-6.6441,-6.6148,-6.5834,-6.5603,-6.5425,-6.5425,-6.5425,-6.5425,-6.5425,-6.5425,-6.5425,-6.5425,-6.5425,-6.5425,-6.5425,-6.5425,-6.5425,-6.5425,-6.5425,-6.5425,-6.5425,-6.5425,-6.5425,-6.5425,-6.5425,-6.5425,-6.5425,-6.5425,-6.5425,-6.5425,-6.5425,-6.5425,-6.5425,-6.5425,-6.5425,-6.5425,-6.5425,-6.5425,-6.5336,-6.5321,-6.5272,-6.518,-6.5095,-6.5101,-6.5008,-6.5008,-6.4943,-6.4779,-6.4616,-6.4518,-6.4518,-6.4426,-6.4333,-6.424,-6.4085,-6.3802,-6.3484,-6.3164,-6.2873,-6.2481,-6.2153,-6.1753,-6.1206,-6.1383,-6.1247,-4.1989,-4.3534,-4.4929,-4.5773,-4.7243,0.0,-4.8197,-4.8049,0.0,-4.7939,0.0,0.0,0.0,0.0,0.0,0.0,0.0,0.0,0.0,0.0,0.0,0.0,0.0,0.0,0.0,0.0,-6.6786,-6.6786,-6.6786,-6.6786,-6.6786,-6.6786,-6.6786,-6.6786,-6.6608,-6.6452,-6.6366,-6.6146,-6.6366,-6.6895,-6.6263,-6.5942,-6.5794,-6.5252,-6.4981,-6.5109,-6.5143,-6.532,-6.5481,-6.5425,-6.5425,-6.5425,-6.5425,-6.5425,-6.5425,-6.5425,-6.5425,-6.5425,-6.5425,-6.5425,-6.5425,-6.5425,-6.5425,-6.5425,-6.5425,-6.5425,-6.5425,-6.5425,-6.5425,-6.5425,-6.5425,-6.5425,-6.5425,-6.5425,-6.5425,-6.5425,-6.5425,-6.5425,-6.5425,-6.5425,-6.5425,-6.5425,-6.5425,-6.5425,-6.5336,-6.5189,-6.5659,-6.587,-6.5404,-6.5929,-6.6256,-6.6064,-6.6031,-6.5675,-6.4995,-6.438,-6.3991,-6.3991,-6.424,-6.424,-6.3991,-6.4024,-6.3802,-6.326,-6.2646,-6.2121,-6.1621,-6.1113,-6.0494,-6.0031,-6.0626,-6.0671,-4.2727,-4.3497,-4.4158,-4.4966,-4.6801,0.0,0.0,-4.9848,-5.0729,-5.1242,-5.2013,0.0,0.0,0.0,0.0,0.0,0.0,0.0,0.0,0.0,0.0,0.0,0.0,0.0,0.0,-6.6786,-6.6786,-6.6786,-6.6786,-6.6786,-6.6786,-6.6786,-6.6786,-6.6786,-6.6548,-6.6269,-6.5922,-6.5668,-6.5439,-6.5439,-6.5379,-6.512,-6.4707,-6.4611,-6.4166,-6.3718,-6.4622,-6.4934,-6.4796,-6.5227,-6.5425,-6.5425,-6.5425,-6.5425,-6.5425,-6.5425,-6.5425,-6.5425,-6.5425,-6.5425,-6.5425,-6.5425,-6.5425,-6.5425,-6.5425,-6.5425,-6.5425,-6.5425,-6.5425,-6.5425,-6.5425,-6.5425,-6.5525,-6.5989,-6.5757,-6.5558,-6.6022,-6.5724,-6.5425,-6.5425,-6.5425,-6.5558,-6.6022,-6.5907,-6.5981,-6.6351,-6.6368,-6.6249,-6.6092,-6.6224,-6.6193,-6.6096,-6.6096,-6.5999,-6.5708,-6.5448,-6.5125,-6.4671,-6.4312,-6.3991,-6.3802,-6.358,-6.3196,-6.2513,-6.1652,-6.101,-6.0494,-6.0,-5.9499,-5.9207,-6.0053,-6.0225,-4.2947,-4.2947,-4.2983,-4.4048,0.0,0.0,-4.9554,-5.1573,-5.3371,-5.4179,-5.4766,0.0,0.0,0.0,0.0,0.0,0.0,0.0,0.0,0.0,0.0,0.0,0.0,0.0,-6.6786,-6.6786,-6.6786,-6.6786,-6.6727,-6.6668,-6.6668,-6.6608,-6.6548,-6.6488,-6.6146,-6.5796,-6.5374,-6.5043,-6.4636,-6.4288,-6.4428,-6.4252,-6.3895,-6.3933,-6.3543,-6.2963,-6.3969,-6.4419,-6.4519,-6.4984,-6.5315,-6.5425,-6.5425,-6.5425,-6.5425,-6.5425,-6.5425,-6.5425,-6.5425,-6.5425,-6.5425,-6.5425,-6.5425,-6.5425,-6.5425,-6.5425,-6.5425,-6.5425,-6.5425,-6.5425,-6.5425,-6.5425,-6.5558,-6.6055,-6.579,-6.5558,-6.6055,-6.579,-6.5425,-6.5425,-6.5591,-6.5922,-6.6329,-6.641,-6.6555,-6.6893,-6.687,-6.6808,-6.6744,-6.6745,-6.6776,-6.6776,-6.6582,-6.6452,-6.6354,-6.603,-6.5513,-6.4674,-6.4095,-6.3742,-6.3484,-6.3068,-6.2481,-6.1582,-6.0628,-5.9895,-5.9362,-5.8852,-5.8445,-5.8254,-5.9325,-5.9712,-4.2323,-4.1735,0.0,0.0,0.0,0.0,-5.0068,-5.3298,-5.5831,-5.6675,0.0,-5.7079,-5.785,0.0,0.0,0.0,0.0,0.0,0.0,0.0,0.0,0.0,0.0,-6.6786,-6.6786,-6.6786,-6.6786,-6.6786,-6.6608,-6.6452,-6.6269,-6.6083,-6.5958,-6.5804,-6.5409,-6.5011,-6.4671,-6.4252,-6.393,-6.36,-6.3377,-6.3343,-6.3531,-6.3117,-6.3067,-6.3107,-6.3107,-6.3735,-6.4714,-6.4714,-6.4972,-6.5425,-6.5425,-6.5425,-6.5425,-6.5425,-6.5425,-6.5425,-6.5425,-6.5425,-6.5425,-6.5425,-6.5425,-6.5425,-6.5425,-6.5425,-6.5425,-6.5425,-6.5425,-6.5425,-6.5425,-6.5425,-6.5425,-6.5425,-6.5425,-6.5425,-6.5425,-6.5425,-6.5425,-6.5425,-6.6022,-6.6428,-6.6153,-6.6746,-6.7053,-6.6611,-6.7069,-6.7427,-6.7197,-6.778,-6.8201,-6.8201,-6.7586,-6.7098,-6.6799,-6.5856,-6.4921,-6.3857,-6.3526,-6.3309,-6.3196,-6.2646,-6.1822,-6.0732,-5.9546,-5.8684,-5.8195,-5.764,-5.7303,-5.7332,-5.8668,-5.9306,-4.2983,-4.3387,0.0,0.0,0.0,0.0,0.0,-5.4546,0.0,0.0,0.0,-5.9713,-5.875,0.0,0.0,0.0,0.0,0.0,0.0,0.0,0.0,0.0,0.0,-6.617,-6.675,-6.6786,-6.6786,-6.6786,-6.6548,-6.6207,-6.5922,-6.5604,-6.5242,-6.4976,-6.4636,-6.4218,-6.3861,-6.3457,-6.3042,-6.2469,-6.2391,-6.2625,-6.3117,-6.2923,-6.2639,-6.2367,-6.2872,-6.3131,-6.3248,-6.4108,-6.4884,-6.5425,-6.5425,-6.5425,-6.5425,-6.5425,-6.5425,-6.5425,-6.5425,-6.5425,-6.5425,-6.5425,-6.5425,-6.5425,-6.5425,-6.5425,-6.5425,-6.5425,-6.5425,-6.5425,-6.5425,-6.5425,-6.5558,-6.6055,-6.579,-6.5558,-6.6088,-6.579,-6.5425,-6.5425,-6.5841,-6.641,-6.6812,-6.7221,-6.7556,-6.7883,-6.7946,-6.7977,-6.791,-6.8072,-6.8201,-6.8201,-6.8007,-6.7709,-6.7304,-6.6568,-6.5385,-6.3775,-6.3163,-6.2664,-6.2148,-6.145,-6.0732,-5.9895,-5.8931,-5.8305,-5.7892,-5.7528,-5.7303,-5.7332,-5.7945,-5.8234,-4.3167,0.0,0.0,0.0,0.0,0.0,0.0,0.0,0.0,0.0,0.0,0.0,0.0,0.0,0.0,0.0,0.0,0.0,0.0,0.0,0.0,0.0,0.0,-6.5009,-6.5382,-6.5743,-6.5959,-6.5959,-6.5904,-6.5668,-6.5308,-6.4976,-6.4567,-6.4218,-6.3967,-6.3604,-6.3308,-6.3042,-6.2581,-6.1997,-6.1997,-6.2156,-6.2503,-6.2381,-6.2189,-6.203,-6.2724,-6.2814,-6.2699,-6.3942,-6.463,-6.5028,-6.5326,-6.5425,-6.5425,-6.5425,-6.5425,-6.5425,-6.5425,-6.5425,-6.5425,-6.5425,-6.5425,-6.5425,-6.5425,-6.5425,-6.5425,-6.5425,-6.5425,-6.5425,-6.5425,-6.5425,-6.5525,-6.5989,-6.5724,-6.5525,-6.5898,-6.5577,-6.5246,-6.5156,-6.5568,-6.6199,-6.6828,-6.7262,-6.7786,-6.8403,-6.8301,-6.8201,-6.8101,-6.7899,-6.7797,-6.7695,-6.7593,-6.7285,-6.6764,-6.6205,-6.5062,-6.344,-6.2564,-6.1599,-6.088,-6.0333,-5.9683,-5.8961,-5.8195,-5.7751,-5.7557,-5.7416,-5.7191,-5.7107,-5.7628,-5.7714,0.0,0.0,0.0,0.0,0.0,0.0,0.0,0.0,0.0,0.0,0.0,0.0,0.0,0.0,0.0,0.0,0.0,-6.2259,-6.2983,0.0,0.0,0.0,-6.3609,-6.3428,-6.3341,-6.3957,-6.4421,-6.4492,-6.4811,-6.4873,-6.4602,-6.4182,-6.3858,-6.3526,-6.3302,-6.3152,-6.2923,-6.277,-6.2459,-6.1997,-6.1997,-6.1837,-6.1709,-6.1709,-6.179,-6.203,-6.2494,-6.2781,-6.2865,-6.3809,-6.4266,-6.4432,-6.5061,-6.5359,-6.5425,-6.5425,-6.5425,-6.5425,-6.5425,-6.5425,-6.5425,-6.5425,-6.5425,-6.5425,-6.5425,-6.5425,-6.5425,-6.5425,-6.5425,-6.5425,-6.5425,-6.5336,-6.5336,-6.5336,-6.5336,-6.5336,-6.5099,-6.5099,-6.5008,-6.4793,-6.5292,-6.5919,-6.6287,-6.7004,-6.759,-6.791,-6.8072,-6.8004,-6.7701,-6.7459,-6.7181,-6.6901,-6.6586,-6.6161,-6.5592,-6.5016,-6.4045,-6.2849,-6.1545,-6.0469,-5.9563,-5.918,-5.8714,-5.8195,-5.764,-5.7303,-5.7303,-5.7303,-5.7078,-5.688,-5.7369,-5.7512,0.0,0.0,0.0,0.0,0.0,0.0,0.0,0.0,0.0,0.0,0.0,0.0,0.0,0.0,0.0,0.0,0.0,0.0,-6.2259,-6.2001,-6.2004,-6.2523,-6.2327,-6.223,-6.2505,-6.2652,-6.304,-6.371,-6.3585,-6.352,-6.3788,-6.3417,-6.3042,-6.2693,-6.2615,-6.2537,-6.2537,-6.2459,-6.2302,-6.1997,-6.1997,-6.1837,-6.1465,-6.1628,-6.1709,-6.179,-6.1877,-6.2197,-6.2599,-6.268,-6.3338,-6.4399,-6.4531,-6.4929,-6.5425,-6.5425,-6.5425,-6.5425,-6.5425,-6.5425,-6.5425,-6.5425,-6.5425,-6.5425,-6.5425,-6.5425,-6.5425,-6.5425,-6.5425,-6.5336,-6.5189,-6.5189,-6.5099,-6.4885,-6.4976,-6.5189,-6.5099,-6.4918,-6.4793,-6.4702,-6.5106,-6.5567,-6.5603,-6.6063,-6.6485,-6.655,-6.7035,-6.7193,-6.6657,-6.6695,-6.6491,-6.596,-6.5421,-6.4875,-6.432,-6.3728,-6.2774,-6.1575,-6.0734,-5.983,-5.8577,-5.8438,-5.8195,-5.7892,-5.7528,-5.7303,-5.7303,-5.7078,-5.6993,-5.688,-5.6566,-5.642,0.0,0.0,0.0,0.0,0.0,0.0,0.0,0.0,0.0,0.0,0.0,0.0,0.0,0.0,0.0,0.0,0.0,0.0,-6.1559,-6.1292,-6.1105,-6.1131,-6.0854,-6.0709,-6.0697,-6.1046,-6.1464,-6.1882,-6.1988,-6.2085,-6.2208,-6.1907,-6.1605,-6.1298,-6.1298,-6.1298,-6.1298,-6.167,-6.1761,-6.1492,-6.1828,-6.1756,-6.1383,-6.1465,-6.1547,-6.1547,-6.1547,-6.1699,-6.2016,-6.2098,-6.261,-6.3405,-6.41,-6.4597,-6.4962,-6.5293,-6.5425,-6.5425,-6.5425,-6.5425,-6.5425,-6.5425,-6.5425,-6.5425,-6.5425,-6.5425,-6.5425,-6.5425,-6.5336,-6.5279,-6.5099,-6.5008,-6.4885,-6.4702,-6.4793,-6.4885,-6.4702,-6.461,-6.4518,-6.4333,-6.4565,-6.4828,-6.5153,-6.5707,-6.6226,-6.6385,-6.6641,-6.6662,-6.6266,-6.5847,-6.5421,-6.4875,-6.4209,-6.3759,-6.3334,-6.2874,-6.2144,-6.1351,-6.0588,-5.9887,-5.9248,-5.8633,-5.799,-5.7557,-5.7416,-5.7191,-5.7107,-5.6993,-5.6766,-5.6423,-5.6105,-5.5874,0.0,0.0,0.0,0.0,0.0,0.0,0.0,0.0,0.0,0.0,0.0,0.0,0.0,0.0,0.0,0.0,0.0,0.0,0.0,-6.0635,-6.0227,-5.9873,-5.9482,-5.9182,-5.8875,-5.9426,-5.9873,-6.0011,-6.0381,-6.0647,-6.0603,-6.0523,-6.0299,-6.0114,-6.0114,-6.0114,-6.0114,-6.0757,-6.0984,-6.0796,-6.1324,-6.1455,-6.1265,-6.1183,-6.1201,-6.1301,-6.1383,-6.1383,-6.1368,-6.1832,-6.208,-6.2278,-6.3504,-6.4167,-6.4465,-6.5028,-6.5326,-6.5425,-6.5425,-6.5425,-6.5425,-6.5425,-6.5425,-6.5425,-6.5425,-6.5425,-6.5425,-6.5336,-6.5279,-6.5099,-6.5008,-6.4793,-6.461,-6.461,-6.461,-6.4518,-6.4333,-6.424,-6.4146,-6.3991,-6.4024,-6.4185,-6.4768,-6.5351,-6.5902,-6.6316,-6.6076,-6.5885,-6.5709,-6.5032,-6.4239,-6.3706,-6.3019,-6.2555,-6.2351,-6.2116,-6.188,-6.1494,-6.0761,-6.0322,-6.0206,-5.919,-5.8261,-5.7364,-5.7249,-5.7078,-5.688,-5.6766,-5.6537,-5.599,-5.599,-5.5729,0.0,0.0,0.0,0.0,0.0,0.0,0.0,0.0,0.0,0.0,0.0,0.0,0.0,0.0,0.0,0.0,0.0,0.0,0.0,-5.9873,-5.9482,-5.9113,-5.8771,-5.8456,-5.8099,-5.8128,-5.8434,-5.9112,-5.9248,-5.9512,-6.0156,-6.019,-6.0114,-6.0114,-6.0114,-6.0114,-6.0114,-6.0216,-6.025,-6.0173,-5.9967,-6.0136,-6.0658,-6.037,-6.049,-6.1169,-6.1301,-6.1334,-6.1119,-6.1218,-6.1616,-6.2179,-6.2378,-6.3239,-6.4399,-6.4498,-6.4895,-6.5425,-6.5425,-6.5425,-6.5425,-6.5425,-6.5425,-6.5425,-6.5425,-6.5425,-6.5336,-6.5189,-6.5099,-6.5008,-6.4518,-6.4426,-6.4333,-6.4085,-6.4085,-6.4085,-6.424,-6.4146,-6.3991,-6.4024,-6.4024,-6.4056,-6.4121,-6.425,-6.4319,-6.451,-6.4588,-6.4475,-6.4027,-6.3477,-6.2929,-6.2438,-6.1761,-6.1433,-6.1433,-6.1313,-6.1313,-6.1313,-6.1106,-6.0816,-6.0206,-6.0032,-5.9277,-5.7715,-5.7282,-5.6993,-5.688,-5.6423,-5.6105,-5.599,-5.5729,-5.5496,-4.4695,0.0,0.0,0.0,0.0,0.0,0.0,0.0,0.0,0.0,0.0,0.0,0.0,0.0,0.0,0.0,0.0,0.0,0.0,0.0,-5.8978,-5.8702,-5.8456,-5.8205,-5.7954,-5.7881,-5.8017,-5.8355,-5.8389,-5.8524,-5.8829,-5.8863,-5.8863,-5.8863,-5.8863,-5.8863,-5.8863,-5.9268,-5.9633,-5.9962,-5.9655,-5.9622,-5.9844,-5.9956,-6.0423,-6.1119,-6.1169,-6.1169,-6.1119,-6.1119,-6.1285,-6.1616,-6.2013,-6.2577,-6.3239,-6.4067,-6.4564,-6.4895,-6.5293,-6.5425,-6.5425,-6.5425,-6.5425,-6.5425,-6.5425,-6.5336,-6.5189,-6.5099,-6.4918,-6.461,-6.4333,-6.424,-6.4085,-6.4024,-6.4024,-6.3991,-6.4085,-6.4085,-6.4024,-6.4024,-6.4024,-6.4024,-6.4024,-6.4024,-6.4094,-6.4569,-6.4114,-6.3848,-6.377,-6.3039,-6.2292,-6.185,-6.1404,-6.1193,-6.1193,-6.1193,-6.1193,-6.1193,-6.1073,-6.0808,-6.0758,-6.0262,-5.9562,-5.8896,-5.7916,-5.7111,-5.6423,-5.6105,-5.5874,-5.5757,-5.5979,-5.6002,-4.5588,-4.9735,-5.3188,0.0,0.0,0.0,0.0,0.0,0.0,0.0,0.0,0.0,0.0,0.0,0.0,0.0,0.0,0.0,0.0,0.0,-5.8456,-5.8348,-5.8205,-5.8027,-5.7881,-5.7881,-5.7881,-5.7881,-5.7881,-5.7881,-5.7881,-5.7881,-5.7881,-5.7881,-5.7881,-5.7881,-5.7881,-5.8383,-5.8849,-5.9237,-5.9041,-5.8909,-5.8952,-5.9278,-5.996,-6.0854,-6.102,-6.1119,-6.1119,-6.1119,-6.1119,-6.1152,-6.1682,-6.2013,-6.2312,-6.3405,-6.4067,-6.4432,-6.4962,-6.526,-6.5425,-6.5336,-6.5336,-6.5336,-6.5246,-6.5066,-6.5008,-6.4918,-6.461,-6.4333,-6.424,-6.4085,-6.4024,-6.4024,-6.4024,-6.4024,-6.4024,-6.4024,-6.4024,-6.4024,-6.4024,-6.4024,-6.4024,-6.4153,-6.4384,-6.4716,-6.4048,-6.3518,-6.3668,-6.2555,-6.1761,-6.1494,-6.1284,-6.1193,-6.1193,-6.1193,-6.1193,-6.1073,-6.0831,-6.0802,-6.0952,-6.0341,-5.9755,-5.9491,-5.8663,-5.7654,-5.6443,-5.6185,-5.6068,-5.6002,-5.6451,-5.6648,-4.3286,-4.677,0.0,0.0,0.0,0.0,0.0,0.0,0.0,0.0,0.0,0.0,0.0,0.0,0.0,0.0,0.0,0.0,0.0,0.0,-5.7954,-5.7954,-5.7881,-5.7881,-5.7881,-5.7881,-5.7881,-5.7881,-5.7881,-5.7881,-5.7881,-5.7881,-5.7881,-5.7881,-5.7881,-5.7881,-5.7881,-5.7769,-5.7655,-5.7689,-5.7315,-5.7486,-5.8153,-5.7951,-5.8701,-6.0092,-6.0821,-6.1119,-6.1119,-6.1119,-6.1119,-6.1119,-6.1152,-6.1583,-6.2179,-6.2245,-6.314,-6.4332,-6.4399,-6.4862,-6.5336,-6.5189,-6.5099,-6.5099,-6.4793,-6.4702,-6.4702,-6.4426,-6.4333,-6.424,-6.4085,-6.4024,-6.4024,-6.4024,-6.4024,-6.4024,-6.4024,-6.4024,-6.4024,-6.4024,-6.4024,-6.4024,-6.4024,-6.4542,-6.4835,-6.4444,-6.4004,-6.3464,-6.3129,-6.1998,-6.1193,-6.1193,-6.1193,-6.1193,-6.1193,-6.1193,-6.1073,-6.0681,-6.0681,-6.056,-6.0316,-6.0531,-6.0123,-5.8916,-5.9073,-5.8703,-5.7718,-5.6767,-5.6676,-5.7294,-5.7322,-5.7322,-4.0596,0.0,0.0,0.0,0.0,0.0,0.0,0.0,0.0,0.0,0.0,0.0,0.0,0.0,0.0,0.0,0.0,0.0,0.0,0.0,0.0,-5.7881,-5.7881,-5.7881,-5.7881,-5.7881,-5.7881,-5.7881,-5.7881,-5.7881,-5.7881,-5.7881,-5.7881,-5.7881,-5.7881,-5.7808,-5.7735,-5.7662,-5.7439,-5.7214,-5.7063,-5.7044,-5.7266,-5.7653,-5.8071,-5.8668,-5.986,-6.0655,-6.1119,-6.1119,-6.1119,-6.1119,-6.1119,-6.1251,-6.155,-6.2013,-6.2808,-6.3703,-6.42,-6.4774,-6.5189,-6.5099,-6.5008,-6.4793,-6.4702,-6.461,-6.4426,-6.4333,-6.424,-6.4085,-6.4024,-6.4024,-6.4024,-6.4024,-6.4024,-6.4024,-6.4024,-6.4024,-6.3929,-6.3802,-6.358,-6.3389,-6.3293,-6.3675,-6.3848,-6.3652,-6.3318,-6.2971,-6.2814,-6.188,-6.1193,-6.1193,-6.1193,-6.1193,-6.1193,-6.1193,-6.1073,-6.0681,-6.056,-6.0316,-6.0194,-6.0071,-5.9863,-5.939,-5.9115,-5.8483,-5.7499,-5.7274,-5.7154,-5.7407,-5.78,-5.7969,-3.8047,0.0,0.0,0.0,0.0,0.0,0.0,0.0,0.0,0.0,0.0,0.0,0.0,0.0,0.0,0.0,0.0,0.0,0.0,0.0,0.0,-5.7881,-5.7881,-5.7881,-5.7881,-5.7881,-5.7881,-5.7881,-5.7881,-5.7881,-5.7881,-5.7881,-5.7881,-5.7808,-5.7735,-5.7662,-5.7514,-5.7439,-5.7289,-5.6987,-5.6911,-5.6834,-5.6713,-5.721,-5.7574,-5.7839,-5.8833,-5.9827,-6.0755,-6.102,-6.1119,-6.1119,-6.1119,-6.1119,-6.1152,-6.1532,-6.2326,-6.3252,-6.3661,-6.4276,-6.4918,-6.4826,-6.4702,-6.4518,-6.4518,-6.4333,-6.4146,-6.4146,-6.4085,-6.4024,-6.4024,-6.4024,-6.4024,-6.3897,-6.3802,-6.3707,-6.3612,-6.3802,-6.3897,-6.3484,-6.3164,-6.2839,-6.2667,-6.2965,-6.3142,-6.3117,-6.2889,-6.2709,-6.2496,-6.1642,-6.1193,-6.1193,-6.1193,-6.1193,-6.1193,-6.1193,-6.1073,-6.056,-6.0316,-6.0071,-5.9825,-5.9702,-5.9606,-5.9482,-5.9182,-5.8786,-5.7997,-5.78,-5.78,-5.7997,-5.8418,-5.8615,0.0,0.0,0.0,0.0,0.0,0.0,0.0,0.0,0.0,0.0,0.0,0.0,0.0,0.0,0.0,0.0,0.0,0.0,0.0,0.0,0.0,-5.7881,-5.7881,-5.7881,-5.7881,-5.7881,-5.7881,-5.7881,-5.7881,-5.7881,-5.7881,-5.7881,-5.7808,-5.7588,-5.7439,-5.7289,-5.7289,-5.7063,-5.6987,-5.6987,-5.6757,-5.668,-5.668,-5.668,-5.7077,-5.7773,-5.7773,-5.8601,-6.0026,-6.0755,-6.1086,-6.1119,-6.1119,-6.1119,-6.1035,-6.0802,-6.164,-6.2804,-6.2661,-6.349,-6.4669,-6.4393,-6.4333,-6.424,-6.4085,-6.4024,-6.4024,-6.4024,-6.4024,-6.4024,-6.4024,-6.4024,-6.3929,-6.3707,-6.3389,-6.3068,-6.2808,-6.3389,-6.3707,-6.3293,-6.2646,-6.2342,-6.2424,-6.2588,-6.2733,-6.2779,-6.2852,-6.2698,-6.2087,-6.1552,-6.1193,-6.1193,-6.1193,-6.1193,-6.1193,-6.1193,-6.0952,-6.0194,-6.0194,-5.9948,-5.9205,-5.9482,-5.9482,-5.9205,-5.9482,-5.9482,-5.9205,-5.8615,-5.8643,-5.9205,-5.9205,-5.9205,-3.405,0.0,0.0,0.0,0.0,0.0,0.0,0.0,0.0,0.0,0.0,0.0,0.0,0.0,0.0,0.0,0.0,0.0,0.0,0.0,0.0,-5.7881,-5.7881,-5.7881,-5.7881,-5.7881,-5.7881,0.0,-5.7881,-5.7881,-5.7881,-5.7735,-5.7588,-5.7364,-5.7364,-5.7214,-5.7063,-5.7063,-5.6911,-5.6757,-5.6757,-5.668,-5.668,-5.668,-5.6812,-5.7011,-5.7574,-5.8336,-5.9264,-5.9993,-6.0622,-6.1119,-6.1119,-6.1002,-6.0802,-6.0717,-6.1225,-6.1939,-6.2376,-6.3073,-6.3773,-6.417,-6.4146,-6.4085,-6.4024,-6.4024,-6.4024,-6.4024,-6.4024,-6.4024,-6.4024,-6.4024,-6.3897,-6.3389,-6.2939,-6.2418,-6.1953,-6.1721,-6.1721,-6.1985,-6.1551,-6.1155,-6.1339,-6.1443,-6.1558,-6.1768,-6.211,-6.2204,-6.185,-6.1404,-6.1193,-6.1193,-6.1193,-6.1193,-6.1193,-6.0952,-6.0681,-6.0194,-5.9948,-5.9578,-5.9205,-5.9329,-5.9329,-5.9205,-5.9329,-5.9329,-5.9205,-5.9036,-5.9064,-5.9205,-5.9205,-5.9205,-3.4336,-3.5757,-3.7347,0.0,0.0,0.0,0.0,0.0,0.0,0.0,0.0,0.0,0.0,0.0,0.0,0.0,0.0,0.0,0.0,0.0,0.0,0.0,-5.7881,-5.7881,-5.7881,-5.7881,-5.7881,-5.7881,-5.7881,-5.7881,-5.7808,-5.7514,-5.7289,-5.7214,-5.7063,-5.6987,-5.6911,-5.6834,-5.6834,-5.668,-5.668,-5.668,-5.668,-5.668,-5.668,-5.6713,-5.7144,-5.7939,-5.8933,-5.9363,-6.0158,-6.1119,-6.1002,-6.0835,-6.0717,-6.0548,-6.0836,-6.1349,-6.1718,-6.2444,-6.3172,-6.3562,-6.3826,-6.4024,-6.4024,-6.4024,-6.4024,-6.4024,-6.4024,-6.4024,-6.3897,-6.3707,-6.3484,-6.2873,-6.2153,-6.152,-6.0908,-6.039,-6.0211,-6.0732,-6.042,-6.0001,-6.0186,-6.0291,-6.0461,-6.088,-6.1439,-6.1642,-6.1523,-6.1284,-6.1193,-6.1193,-6.1193,-6.1193,-6.0952,-6.0802,-6.0438,-6.0071,-5.9853,-5.9606,-5.9205,-5.9205,-5.9205,-5.9205,-5.9205,-5.9205,-5.9205,-5.9205,-5.9205,-5.9205,-5.9205,-5.9205,-3.5859,-3.6874,-3.7922,-3.7922,-3.8328,0.0,-4.0426,-4.2455,0.0,0.0,0.0,0.0,0.0,0.0,0.0,0.0,0.0,0.0,0.0,0.0,0.0,0.0,-5.778,-5.778,-5.778,-5.7848,-5.7881,-5.7881,-5.7881,-5.7735,-5.7514,-5.7214,-5.6987,-5.6987,-5.6757,-5.668,-5.668,-5.668,-5.668,-5.668,-5.668,-5.668,-5.668,-5.668,-5.668,-5.668,-5.668,-5.7475,-5.8767,-5.8786,-5.9679,-6.1002,-6.0802,-6.0633,-6.0548,-6.0239,-6.0457,-6.0922,-6.0842,-6.1627,-6.2663,-6.2825,-6.3344,-6.3894,-6.3991,-6.4024,-6.4024,-6.4024,-6.4024,-6.3929,-6.3612,-6.3293,-6.2873,-6.2085,-6.1144,-6.0316,-5.9789,-5.9285,-5.9069,-5.9469,-5.9225,-5.8922,-5.9079,-5.9158,-5.9422,-6.009,-6.07,-6.1106,-6.1193,-6.1193,-6.1193,-6.1193,-6.1135,-6.0986,-6.0681,-6.0624,-6.0259,-5.9702,-5.973,-5.9482,-5.9205,-5.9205,-5.9205,-5.9205,-5.9205,-5.9205,-5.9205,-5.9205,-5.9205,-5.9205,-5.9205,-5.9205,-3.728,-3.7686,-3.7922,-3.7922,-3.755,0.0,-3.7584,-3.9343,0.0,0.0,0.0,0.0,0.0,0.0,0.0,0.0,0.0,0.0,0.0,0.0,0.0,0.0,-5.7002,-5.7002,-5.7002,-5.7543,-5.7881,-5.7881,-5.7735,-5.7514,-5.7139,-5.7063,-5.6911,-5.6757,-5.668,-5.668,-5.668,-5.668,-5.668,-5.668,-5.668,-5.668,-5.668,-5.668,-5.668,-5.668,-5.6525,-5.6975,-5.7833,-5.815,-5.9317,-6.0802,-6.0717,-6.0463,-6.0239,-6.0152,-6.0076,-6.0096,-6.0591,-6.0979,-6.14,-6.2502,-6.2987,-6.3214,-6.3829,-6.4024,-6.4024,-6.4024,-6.4024,-6.3897,-6.3389,-6.2841,-6.2221,-6.1215,-6.018,-5.9225,-5.8605,-5.8085,-5.764,-5.7722,-5.8085,-5.8401,-5.8742,-5.8635,-5.8871,-6.0032,-6.0322,-6.0584,-6.1135,-6.1193,-6.1193,-6.1193,-6.049,-6.0254,-6.0652,-5.9737,-5.9314,-5.9702,-5.9482,-5.9205,-5.9205,-5.9205,-5.9205,-5.9205,-5.9205,-5.9205,-5.9205,-5.9205,-5.9205,-5.9205,-5.9205,-5.9205,-3.9884,-3.9817,-3.9546,-3.9546,-3.843,0.0,0.0,-3.8464,-4.0054,0.0,0.0,0.0,0.0,0.0,0.0,0.0,0.0,0.0,0.0,0.0,0.0,0.0,-5.6258,-5.6393,-5.6765,-5.7137,-5.7509,-5.7701,-5.7439,-5.7214,-5.6987,-5.6578,-5.6392,-5.668,-5.6349,-5.6316,-5.668,-5.668,-5.668,-5.668,-5.668,-5.668,-5.668,-5.668,-5.6603,-5.6525,-5.6447,-5.6718,-5.7361,-5.7609,-5.8543,-5.9886,-6.0247,-6.0325,-6.0066,-5.9979,-5.9804,-5.9749,-6.0137,-6.0494,-6.0915,-6.1627,-6.2307,-6.2955,-6.3344,-6.3512,-6.358,-6.3421,-6.3293,-6.3099,-6.258,-6.1953,-6.1215,-6.0285,-5.9332,-5.8495,-5.8085,-5.764,-5.7303,-5.7303,-5.7528,-5.7757,-5.7965,-5.8201,-5.8523,-5.9161,-5.98,-6.0322,-6.0642,-6.099,-6.1077,-6.0518,-6.0052,-5.9611,-5.9251,-5.9038,-5.8814,-5.9002,-5.9161,-5.9205,-5.9205,-5.9205,-5.9205,-5.9205,-5.9205,-5.9205,-5.9205,-5.9205,-5.9205,-5.9205,-5.9205,-5.9064,-4.276,-4.232,-4.161,-4.1441,-3.9851,-3.8261,0.0,0.0,0.0,-4.0527,0.0,0.0,0.0,0.0,0.0,0.0,0.0,0.0,0.0,0.0,0.0,0.0,-5.5074,-5.5344,-5.6089,-5.6292,-5.652,-5.7116,-5.678,-5.6621,-5.6678,-5.6127,-5.6084,-5.668,-5.6117,-5.6117,-5.668,-5.668,-5.668,-5.668,-5.668,-5.668,-5.668,-5.668,-5.6525,-5.6402,-5.6323,-5.6493,-5.689,-5.7053,-5.7673,-5.8828,-5.9577,-5.9935,-5.9979,-5.9804,-5.9716,-5.9716,-5.9716,-6.0105,-6.0623,-6.0753,-6.1757,-6.289,-6.2797,-6.2906,-6.2971,-6.2678,-6.2284,-6.1953,-6.1379,-6.0835,-6.0211,-5.9469,-5.8634,-5.7974,-5.7781,-5.7528,-5.7303,-5.7303,-5.7303,-5.7303,-5.7303,-5.7739,-5.8145,-5.829,-5.9161,-5.9769,-6.0003,-6.0496,-6.0493,-5.9735,-5.9443,-5.8856,-5.786,-5.8192,-5.841,-5.8306,-5.8868,-5.9205,-5.9205,-5.9205,-5.9205,-5.9205,-5.9205,-5.9205,-5.9205,-5.9205,-5.9205,-5.9205,-5.9093,-5.8783,-4.5128,-4.4248,-4.2997,-4.2354,-4.1001,-3.9512,-3.8227,0.0,-3.9039,-3.9208,0.0,0.0,0.0,0.0,0.0,0.0,0.0,0.0,0.0,0.0,0.0,0.0,-5.2706,-5.301,-5.3788,-5.4293,-5.4828,-5.5353,-5.5202,-5.5281,-5.5719,-5.6282,-5.6614,-5.668,-5.6614,-5.6614,-5.668,-5.668,-5.668,-5.668,-5.668,-5.668,-5.668,-5.6558,-5.6369,-5.6402,-5.6006,-5.5912,-5.5961,-5.6416,-5.7048,-5.7858,-5.8743,-5.9393,-5.9716,-5.9716,-5.9716,-5.9716,-5.9716,-5.9749,-5.9943,-6.0591,-6.1757,-6.2797,-6.2297,-6.23,-6.2319,-6.1822,-6.1317,-6.0805,-6.0211,-5.9652,-5.9009,-5.8525,-5.7863,-5.7416,-5.7416,-5.7303,-5.7303,-5.7303,-5.7303,-5.7303,-5.7303,-5.7361,-5.7623,-5.8203,-5.8176,-5.8378,-5.9335,-5.9188,-5.9071,-5.8867,-5.8143,-5.7676,-5.7775,-5.7676,-5.7716,-5.8278,-5.8868,-5.9205,-5.9205,-5.9205,-5.9205,-5.9205,-5.9205,-5.9205,-5.9205,-5.9205,-5.9205,-5.9205,-5.8643,-5.8362,-4.753,-4.621,-4.4553,-4.3809,-4.1847,-3.9817,-3.8768,-3.8768,-3.9106,-3.9546,0.0,0.0,0.0,0.0,0.0,0.0,-4.1474,0.0,0.0,0.0,0.0,0.0,0.0,0.0,-5.142,-5.2437,-5.3043,-5.3276,-5.3031,-5.3352,-5.4442,-5.5132,-5.562,-5.6051,-5.6084,-5.6282,-5.668,-5.668,-5.668,-5.668,-5.668,-5.6603,-5.6525,-5.648,-5.6244,-5.6006,-5.5846,-5.5685,-5.5604,-5.5733,-5.6543,-5.7611,-5.8073,-5.8799,-5.9716,-5.9716,-5.9716,-5.9716,-5.9716,-5.9716,-5.9911,-6.0864,-6.1423,-6.1848,-6.1979,-6.1702,-6.1317,-6.0701,-6.0211,-5.9683,-5.9285,-5.8852,-5.8386,-5.8085,-5.764,-5.7303,-5.7303,-5.7303,-5.7303,-5.7303,-5.7303,-5.7303,-5.7303,-5.7303,-5.7278,-5.7482,-5.7715,-5.7916,-5.8117,-5.855,-5.8519,-5.7794,-5.7537,-5.7103,-5.6519,-5.7077,-5.7491,-5.7744,-5.8671,-5.9205,-5.9205,-5.9205,-5.9205,-5.9205,-5.9205,-5.9205,-5.9205,-5.8868,-5.8699,-5.8671,-5.8418,-5.7912,-4.9357,-4.7834,-4.6041,-4.4857,-4.2625,-4.046,-3.9512,-3.9445,-3.9817,-4.0527,-4.1271,0.0,0.0,0.0,-4.1441,-4.1238,0.0,-4.1068,0.0,0.0,0.0,0.0,0.0,0.0,0.0,-5.045,-5.116,-5.1362,-5.1261,-5.1822,-5.3285,-5.4302,-5.5057,-5.562,-5.5819,-5.615,-5.668,-5.668,-5.668,-5.668,-5.6603,-5.6525,-5.6402,-5.6323,-5.6086,-5.5799,-5.5685,-5.5604,-5.5409,-5.5409,-5.6284,-5.7579,-5.7579,-5.8453,-5.9716,-5.9716,-5.9716,-5.9716,-5.9716,-5.9846,-6.0081,-6.0876,-6.1052,-6.1154,-6.1289,-6.0887,-6.018,-5.9576,-5.9069,-5.8555,-5.8335,-5.8114,-5.7863,-5.7669,-5.7416,-5.7303,-5.7303,-5.7303,-5.7303,-5.7303,-5.7303,-5.7303,-5.7191,-5.7191,-5.7078,-5.688,-5.7168,-5.7224,-5.7108,-5.7625,-5.774,-5.6698,-5.6904,-5.6588,-5.5552,-5.6507,-5.7266,-5.7603,-5.8615,-5.9205,-5.9205,-5.9205,-5.9205,-5.9205,-5.9205,-5.9205,-5.9205,-5.8587,-5.8221,-5.8053,-5.7856,-5.7294,-5.0236,-4.8984,-4.7327,-4.5128,-4.3403,-4.1847,-4.0392,-4.0595,-4.1339,-4.2083,-4.2828,-4.3572,-4.435,-4.3267,-4.2016,-4.1305,-4.0595,0.0,0.0,0.0,0.0,0.0,0.0,0.0,0.0,-4.8557,-4.911,0.0,-5.0159,-5.0988,-5.234,-5.4427,-5.5587,-5.562,-5.6282,-5.668,-5.668,-5.668,-5.668,-5.668,-5.6525,-5.6402,-5.6402,-5.6006,-5.5799,-5.5799,-5.5523,-5.5409,-5.5409,-5.5409,-5.6284,-5.7579,-5.7579,-5.8453,-5.9716,-5.9716,-5.9716,-5.9716,-5.9716,-6.017,-6.0663,-6.0152,-6.0613,-6.1113,-6.0051,-5.9453,-5.8901,-5.8415,-5.7863,-5.7303,-5.7303,-5.7303,-5.7303,-5.7303,-5.7303,-5.7303,-5.7303,-5.7303,-5.7303,-5.7303,-5.7303,-5.7191,-5.6993,-5.688,-5.688,-5.688,-5.6451,-5.6105,-5.6451,-5.6249,-5.6018,-5.6018,-5.6018,-5.5874,-5.5496,-5.6086,-5.6985,-5.8193,-5.8868,-5.9205,-5.9205,-5.9205,-5.9205,-5.9205,-5.9205,-5.9205,-5.9205,-5.8587,-5.7997,-5.7407,-5.676,-5.6451,-5.1758,-5.0845,-4.956,-4.7361,-4.6007,-4.4756,-4.2726,-4.2895,-4.3639,-4.4384,-4.5128,-4.6041,-4.7293,-4.5872,-4.4316,-4.3572,-4.1982,-4.0493,0.0,0.0,0.0,0.0,0.0,0.0,0.0,0.0,0.0,-4.8207,-4.8256,-4.9061,-5.099,-5.2611,-5.3699,-5.4162,-5.4858,-5.5256,-5.5256,-5.5256,-5.5412,-5.5798,-5.5721,-5.5752,-5.6006,-5.5846,-5.5685,-5.5523,-5.5409,-5.5409,-5.5409,-5.5409,-5.6284,-5.7579,-5.7579,-5.8453,-5.9716,-5.9716,-5.9628,-5.9419,-5.9062,-5.9042,-5.9087,-5.957,-5.959,-5.9625,-5.9601,-5.9075,-5.8415,-5.8003,-5.764,-5.7303,-5.7303,-5.7303,-5.7303,-5.7303,-5.7191,-5.6993,-5.6993,-5.6851,-5.6737,-5.6737,-5.6737,-5.6623,-5.6623,-5.6423,-5.6308,-5.6308,-5.6077,-5.5961,-5.5845,-5.5961,-5.599,-5.5729,-5.5845,-5.5845,-5.5496,-5.6058,-5.6957,-5.8221,-5.8502,-5.8783,-5.9205,-5.9205,-5.9205,-5.9205,-5.9205,-5.9205,-5.9205,-5.8193,-5.7575,-5.735,-5.6311,-5.5805,-5.3315,-5.257,-5.1555,-4.9593,-4.8342,-4.7056,-4.506,-4.5229,-4.5974,-4.6718,-4.7665,-4.8815,-5.0338,-4.8578,-4.6447,-4.5139,-4.301,-4.0897,0.0,-3.8621,0.0,0.0,0.0,0.0,0.0,0.0,-4.6253,-4.6636,-4.6924,0.0,0.0,-5.1118,-5.2307,-5.3036,-5.4188,-5.4741,-5.4741,-5.4665,-5.4952,-5.5599,-5.5259,-5.5319,-5.5799,-5.5685,-5.5604,-5.5409,-5.5409,-5.5409,-5.5442,-5.5701,-5.6427,-5.7441,-5.7667,-5.8388,-5.9331,-5.9628,-5.9331,-5.885,-5.8303,-5.809,-5.8027,-5.8448,-5.857,-5.851,-5.8654,-5.8347,-5.7863,-5.7669,-5.7416,-5.7303,-5.7303,-5.7303,-5.7303,-5.7191,-5.6993,-5.688,-5.6766,-5.6537,-5.6394,-5.6394,-5.6394,-5.6394,-5.6308,-5.6077,-5.599,-5.599,-5.5874,-5.5729,-5.5496,-5.5729,-5.5729,-5.5496,-5.5729,-5.5729,-5.5496,-5.6283,-5.7097,-5.7912,-5.839,-5.8812,-5.9205,-5.9205,-5.9205,-5.9205,-5.9205,-5.9205,-5.9205,-5.8193,-5.7603,-5.735,-5.6311,-5.5721]}]]